Time,TemperatureF,DewpointF,PressureIn,WindDirection,WindDirectionDegrees,WindSpeedMPH,WindSpeedGustMPH,Humidity,HourlyPrecipIn,Conditions,Clouds,dailyrainin,SoftwareType,DateUTC
2013-03-20 00:00:00,71.1,67.7,29.84,East,80,10.0,10.0,89,0.00,,---,0.00,VWS V14.00,2013-03-20 05:00:00,
2013-03-20 00:01:00,71.1,67.7,29.83,East,81,7.0,12.0,89,0.00,,---,0.00,VWS V14.00,2013-03-20 05:01:00,
2013-03-20 00:02:00,71.1,67.7,29.84,East,81,10.0,11.0,89,0.00,,---,0.00,VWS V14.00,2013-03-20 05:02:00,
2013-03-20 00:03:00,71.1,67.7,29.84,East,81,10.0,12.0,89,0.00,,---,0.00,VWS V14.00,2013-03-20 05:03:00,
2013-03-20 00:04:00,71.1,67.7,29.84,East,80,8.0,13.0,89,0.00,,---,0.00,VWS V14.00,2013-03-20 05:04:00,
2013-03-20 00:05:00,71.2,67.8,29.83,East,80,8.0,12.0,89,0.00,,---,0.00,VWS V14.00,2013-03-20 05:05:00,
2013-03-20 00:06:00,71.1,67.7,29.83,East,81,8.0,12.0,89,0.00,,---,0.00,VWS V14.00,2013-03-20 05:06:00,
2013-03-20 00:08:00,71.2,67.8,29.83,East,81,10.0,12.0,89,0.00,,---,0.00,VWS V14.00,2013-03-20 05:08:00,
2013-03-20 00:09:00,71.2,67.8,29.83,East,81,11.0,11.0,89,0.00,,---,0.00,VWS V14.00,2013-03-20 05:09:00,
2013-03-20 00:10:00,71.1,67.7,29.83,East,82,8.0,13.0,89,0.00,,---,0.00,VWS V14.00,2013-03-20 05:10:00,
2013-03-20 00:12:00,71.2,67.8,29.83,East,82,11.0,13.0,89,0.00,,---,0.00,VWS V14.00,2013-03-20 05:12:00,
2013-03-20 00:13:00,71.1,67.7,29.83,East,82,8.0,13.0,89,0.00,,---,0.00,VWS V14.00,2013-03-20 05:13:00,
2013-03-20 00:14:00,71.1,67.7,29.83,East,82,8.0,11.0,89,0.00,,---,0.00,VWS V14.00,2013-03-20 05:14:00,
2013-03-20 00:15:00,71.1,67.7,29.83,East,82,7.0,8.0,89,0.00,,---,0.00,VWS V14.00,2013-03-20 05:15:00,
2013-03-20 00:16:00,71.1,68.0,29.83,East,82,7.0,11.0,90,0.00,,---,0.00,VWS V14.00,2013-03-20 05:16:00,
2013-03-20 00:17:00,71.1,68.0,29.83,East,82,7.0,8.0,90,0.00,,---,0.00,VWS V14.00,2013-03-20 05:17:00,
2013-03-20 00:18:00,71.1,67.7,29.83,East,82,6.0,8.0,89,0.00,,---,0.00,VWS V14.00,2013-03-20 05:18:00,
2013-03-20 00:19:00,71.1,68.0,29.83,East,82,10.0,10.0,90,0.00,,---,0.00,VWS V14.00,2013-03-20 05:19:00,
2013-03-20 00:20:00,71.2,67.8,29.83,East,82,12.0,13.0,89,0.00,,---,0.00,VWS V14.00,2013-03-20 05:20:00,
2013-03-20 00:21:00,71.2,67.8,29.83,East,82,11.0,12.0,89,0.00,,---,0.00,VWS V14.00,2013-03-20 05:21:00,
2013-03-20 00:22:00,71.1,67.7,29.83,East,82,12.0,13.0,89,0.00,,---,0.00,VWS V14.00,2013-03-20 05:22:00,
2013-03-20 00:23:00,71.2,67.8,29.83,East,83,11.0,13.0,89,0.00,,---,0.00,VWS V14.00,2013-03-20 05:23:00,
2013-03-20 00:24:00,71.2,67.8,29.83,East,84,12.0,15.0,89,0.00,,---,0.00,VWS V14.00,2013-03-20 05:24:00,
2013-03-20 00:25:00,71.1,68.0,29.83,East,85,11.0,12.0,90,0.00,,---,0.00,VWS V14.00,2013-03-20 05:25:00,
2013-03-20 00:26:00,71.1,68.0,29.83,East,83,10.0,12.0,90,0.00,,---,0.00,VWS V14.00,2013-03-20 05:26:00,
2013-03-20 00:27:00,71.1,68.0,29.83,East,84,11.0,12.0,90,0.00,,---,0.00,VWS V14.00,2013-03-20 05:27:00,
2013-03-20 00:28:00,71.1,68.0,29.83,East,85,10.0,12.0,90,0.00,,---,0.00,VWS V14.00,2013-03-20 05:28:00,
2013-03-20 00:29:00,71.1,68.0,29.83,East,84,10.0,13.0,90,0.00,,---,0.00,VWS V14.00,2013-03-20 05:29:00,
2013-03-20 00:30:00,71.0,67.6,29.83,East,86,10.0,11.0,89,0.00,,---,0.00,VWS V14.00,2013-03-20 05:30:00,
2013-03-20 00:31:00,71.1,67.7,29.83,East,84,8.0,11.0,89,0.00,,---,0.00,VWS V14.00,2013-03-20 05:31:00,
2013-03-20 00:32:00,71.1,67.7,29.83,East,84,7.0,11.0,89,0.00,,---,0.00,VWS V14.00,2013-03-20 05:32:00,
2013-03-20 00:33:00,71.0,67.6,29.83,East,86,8.0,12.0,89,0.00,,---,0.00,VWS V14.00,2013-03-20 05:33:00,
2013-03-20 00:34:00,71.0,67.6,29.83,East,86,10.0,10.0,89,0.00,,---,0.00,VWS V14.00,2013-03-20 05:34:00,
2013-03-20 00:35:00,71.0,67.6,29.83,East,82,11.0,13.0,89,0.00,,---,0.00,VWS V14.00,2013-03-20 05:35:00,
2013-03-20 00:36:00,71.0,67.6,29.83,East,86,11.0,11.0,89,0.00,,---,0.00,VWS V14.00,2013-03-20 05:36:00,
2013-03-20 00:37:00,71.0,67.6,29.83,East,86,8.0,12.0,89,0.00,,---,0.00,VWS V14.00,2013-03-20 05:37:00,
2013-03-20 00:38:00,71.0,67.6,29.83,East,82,7.0,13.0,89,0.00,,---,0.00,VWS V14.00,2013-03-20 05:38:00,
2013-03-20 00:39:00,71.0,67.6,29.83,East,82,10.0,11.0,89,0.00,,---,0.00,VWS V14.00,2013-03-20 05:39:00,
2013-03-20 00:40:00,71.0,67.6,29.83,East,82,10.0,11.0,89,0.00,,---,0.00,VWS V14.00,2013-03-20 05:40:00,
2013-03-20 00:41:00,71.0,67.9,29.83,East,82,10.0,12.0,90,0.00,,---,0.00,VWS V14.00,2013-03-20 05:41:00,
2013-03-20 00:42:00,71.0,67.6,29.83,East,82,11.0,12.0,89,0.00,,---,0.00,VWS V14.00,2013-03-20 05:42:00,
2013-03-20 00:43:00,71.0,67.6,29.83,East,82,12.0,14.0,89,0.00,,---,0.00,VWS V14.00,2013-03-20 05:43:00,
2013-03-20 00:44:00,71.0,67.6,29.83,East,82,12.0,14.0,89,0.00,,---,0.00,VWS V14.00,2013-03-20 05:44:00,
2013-03-20 00:45:00,70.9,67.5,29.83,East,82,10.0,11.0,89,0.00,,---,0.00,VWS V14.00,2013-03-20 05:45:00,
2013-03-20 00:46:00,70.9,67.5,29.83,East,82,12.0,13.0,89,0.00,,---,0.00,VWS V14.00,2013-03-20 05:46:00,
2013-03-20 00:47:00,70.9,67.5,29.83,East,82,11.0,13.0,89,0.00,,---,0.00,VWS V14.00,2013-03-20 05:47:00,
2013-03-20 00:48:00,70.9,67.5,29.83,East,82,8.0,11.0,89,0.00,,---,0.00,VWS V14.00,2013-03-20 05:48:00,
2013-03-20 00:49:00,70.9,67.8,29.83,East,82,6.0,10.0,90,0.00,,---,0.00,VWS V14.00,2013-03-20 05:49:00,
2013-03-20 00:50:00,70.9,67.8,29.83,East,82,10.0,11.0,90,0.00,,---,0.00,VWS V14.00,2013-03-20 05:50:00,
2013-03-20 00:51:00,70.9,67.8,29.83,East,82,8.0,8.0,90,0.00,,---,0.00,VWS V14.00,2013-03-20 05:51:00,
2013-03-20 00:52:00,70.9,67.8,29.83,East,82,10.0,11.0,90,0.00,,---,0.00,VWS V14.00,2013-03-20 05:52:00,
2013-03-20 00:53:00,70.9,67.8,29.83,East,82,13.0,13.0,90,0.00,,---,0.00,VWS V14.00,2013-03-20 05:53:00,
2013-03-20 00:54:00,70.9,67.8,29.83,East,82,10.0,13.0,90,0.00,,---,0.00,VWS V14.00,2013-03-20 05:54:00,
2013-03-20 00:55:00,70.9,67.8,29.83,East,84,12.0,14.0,90,0.00,,---,0.00,VWS V14.00,2013-03-20 05:55:00,
2013-03-20 00:56:00,70.9,67.8,29.83,East,82,7.0,10.0,90,0.00,,---,0.00,VWS V14.00,2013-03-20 05:56:00,
2013-03-20 00:57:00,70.9,67.8,29.83,East,84,13.0,15.0,90,0.00,,---,0.00,VWS V14.00,2013-03-20 05:57:00,
2013-03-20 00:58:00,70.8,67.7,29.83,East,84,11.0,14.0,90,0.00,,---,0.00,VWS V14.00,2013-03-20 05:58:00,
2013-03-20 00:59:00,70.8,67.4,29.83,East,82,13.0,13.0,89,0.00,,---,0.00,VWS V14.00,2013-03-20 05:59:00,
2013-03-20 01:00:00,70.8,67.7,29.83,East,83,8.0,12.0,90,0.00,,---,0.00,VWS V14.00,2013-03-20 06:00:00,
2013-03-20 01:01:00,70.8,67.4,29.83,East,83,12.0,15.0,89,0.00,,---,0.00,VWS V14.00,2013-03-20 06:01:00,
2013-03-20 01:02:00,70.7,67.6,29.83,East,83,12.0,14.0,90,0.00,,---,0.00,VWS V14.00,2013-03-20 06:02:00,
2013-03-20 01:03:00,70.7,67.6,29.83,East,83,12.0,12.0,90,0.00,,---,0.00,VWS V14.00,2013-03-20 06:03:00,
2013-03-20 01:04:00,70.7,67.6,29.83,East,84,11.0,14.0,90,0.00,,---,0.00,VWS V14.00,2013-03-20 06:04:00,
2013-03-20 01:05:00,70.7,67.6,29.83,East,84,12.0,13.0,90,0.00,,---,0.00,VWS V14.00,2013-03-20 06:05:00,
2013-03-20 01:06:00,70.7,67.6,29.83,East,84,12.0,13.0,90,0.00,,---,0.00,VWS V14.00,2013-03-20 06:06:00,
2013-03-20 01:07:00,70.7,67.6,29.83,East,85,11.0,14.0,90,0.00,,---,0.00,VWS V14.00,2013-03-20 06:07:00,
2013-03-20 01:08:00,70.7,67.6,29.83,East,84,11.0,13.0,90,0.00,,---,0.00,VWS V14.00,2013-03-20 06:08:00,
2013-03-20 01:09:00,70.7,67.6,29.83,East,84,12.0,15.0,90,0.00,,---,0.00,VWS V14.00,2013-03-20 06:09:00,
2013-03-20 01:10:00,70.6,67.5,29.83,East,82,12.0,14.0,90,0.00,,---,0.00,VWS V14.00,2013-03-20 06:10:00,
2013-03-20 01:11:00,70.6,67.5,29.83,East,82,13.0,15.0,90,0.00,,---,0.00,VWS V14.00,2013-03-20 06:11:00,
2013-03-20 01:12:00,70.6,67.5,29.83,East,82,12.0,15.0,90,0.00,,---,0.00,VWS V14.00,2013-03-20 06:12:00,
2013-03-20 01:13:00,70.6,67.5,29.83,East,82,12.0,14.0,90,0.00,,---,0.00,VWS V14.00,2013-03-20 06:13:00,
2013-03-20 01:14:00,70.6,67.5,29.84,East,83,10.0,14.0,90,0.00,,---,0.00,VWS V14.00,2013-03-20 06:14:00,
2013-03-20 01:15:00,70.6,67.5,29.84,East,82,7.0,10.0,90,0.00,,---,0.00,VWS V14.00,2013-03-20 06:15:00,
2013-03-20 01:16:00,70.6,67.5,29.84,East,82,7.0,11.0,90,0.00,,---,0.00,VWS V14.00,2013-03-20 06:16:00,
2013-03-20 01:17:00,70.6,67.5,29.84,East,82,8.0,10.0,90,0.00,,---,0.00,VWS V14.00,2013-03-20 06:17:00,
2013-03-20 01:18:00,70.6,67.5,29.84,East,82,8.0,10.0,90,0.00,,---,0.00,VWS V14.00,2013-03-20 06:18:00,
2013-03-20 01:19:00,70.6,67.5,29.84,East,82,8.0,11.0,90,0.00,,---,0.00,VWS V14.00,2013-03-20 06:19:00,
2013-03-20 01:20:00,70.6,67.5,29.84,East,82,8.0,10.0,90,0.00,,---,0.00,VWS V14.00,2013-03-20 06:20:00,
2013-03-20 01:21:00,70.6,67.5,29.84,East,82,11.0,11.0,90,0.00,,---,0.00,VWS V14.00,2013-03-20 06:21:00,
2013-03-20 01:22:00,70.6,67.5,29.84,East,82,7.0,11.0,90,0.00,,---,0.00,VWS V14.00,2013-03-20 06:22:00,
2013-03-20 01:23:00,70.6,67.5,29.84,East,82,8.0,10.0,90,0.00,,---,0.00,VWS V14.00,2013-03-20 06:23:00,
2013-03-20 01:24:00,70.6,67.5,29.84,East,82,7.0,11.0,90,0.00,,---,0.00,VWS V14.00,2013-03-20 06:24:00,
2013-03-20 01:25:00,70.6,67.5,29.84,ENE,78,10.0,14.0,90,0.00,,---,0.00,VWS V14.00,2013-03-20 06:25:00,
2013-03-20 01:26:00,70.6,67.5,29.84,East,81,12.0,13.0,90,0.00,,---,0.00,VWS V14.00,2013-03-20 06:26:00,
2013-03-20 01:27:00,70.6,67.5,29.84,East,80,11.0,13.0,90,0.00,,---,0.00,VWS V14.00,2013-03-20 06:27:00,
2013-03-20 01:28:00,70.7,67.6,29.84,ENE,78,10.0,14.0,90,0.00,,---,0.00,VWS V14.00,2013-03-20 06:28:00,
2013-03-20 01:29:00,70.7,67.6,29.84,ENE,72,13.0,15.0,90,0.00,,---,0.00,VWS V14.00,2013-03-20 06:29:00,
2013-03-20 01:30:00,70.6,67.5,29.84,ENE,72,13.0,13.0,90,0.00,,---,0.00,VWS V14.00,2013-03-20 06:30:00,
2013-03-20 01:31:00,70.6,67.5,29.84,ENE,72,12.0,13.0,90,0.00,,---,0.00,VWS V14.00,2013-03-20 06:31:00,
2013-03-20 01:32:00,70.7,67.6,29.84,ENE,72,10.0,13.0,90,0.00,,---,0.00,VWS V14.00,2013-03-20 06:32:00,
2013-03-20 01:33:00,70.6,67.5,29.84,ENE,72,11.0,13.0,90,0.00,,---,0.00,VWS V14.00,2013-03-20 06:33:00,
2013-03-20 01:34:00,70.6,67.5,29.85,ENE,72,8.0,12.0,90,0.00,,---,0.00,VWS V14.00,2013-03-20 06:34:00,
2013-03-20 01:35:00,70.5,67.4,29.84,ENE,72,10.0,13.0,90,0.00,,---,0.00,VWS V14.00,2013-03-20 06:35:00,
2013-03-20 01:36:00,70.6,67.5,29.85,ENE,72,10.0,11.0,90,0.00,,---,0.00,VWS V14.00,2013-03-20 06:36:00,
2013-03-20 01:37:00,70.5,67.4,29.84,ENE,72,11.0,12.0,90,0.00,,---,0.00,VWS V14.00,2013-03-20 06:37:00,
2013-03-20 01:38:00,70.5,67.4,29.84,ENE,72,12.0,13.0,90,0.00,,---,0.00,VWS V14.00,2013-03-20 06:38:00,
2013-03-20 01:39:00,70.5,67.4,29.84,ENE,72,11.0,14.0,90,0.00,,---,0.00,VWS V14.00,2013-03-20 06:39:00,
2013-03-20 01:40:00,70.5,67.4,29.84,ENE,72,11.0,13.0,90,0.00,,---,0.00,VWS V14.00,2013-03-20 06:40:00,
2013-03-20 01:41:00,70.6,67.5,29.84,ENE,72,11.0,14.0,90,0.00,,---,0.00,VWS V14.00,2013-03-20 06:41:00,
2013-03-20 01:42:00,70.5,67.4,29.84,ENE,72,12.0,14.0,90,0.00,,---,0.00,VWS V14.00,2013-03-20 06:42:00,
2013-03-20 01:43:00,70.5,67.4,29.84,ENE,72,11.0,13.0,90,0.00,,---,0.00,VWS V14.00,2013-03-20 06:43:00,
2013-03-20 01:44:00,70.4,67.3,29.84,ENE,67,13.0,14.0,90,0.00,,---,0.00,VWS V14.00,2013-03-20 06:44:00,
2013-03-20 01:45:00,70.4,67.3,29.84,ENE,68,14.0,14.0,90,0.00,,---,0.00,VWS V14.00,2013-03-20 06:45:00,
2013-03-20 01:46:00,70.4,67.3,29.84,ENE,67,12.0,15.0,90,0.00,,---,0.00,VWS V14.00,2013-03-20 06:46:00,
2013-03-20 01:47:00,70.4,67.3,29.84,ENE,67,13.0,15.0,90,0.00,,---,0.00,VWS V14.00,2013-03-20 06:47:00,
2013-03-20 01:48:00,70.4,67.3,29.84,ENE,67,13.0,15.0,90,0.00,,---,0.00,VWS V14.00,2013-03-20 06:48:00,
2013-03-20 01:49:00,70.4,67.3,29.84,ENE,67,13.0,14.0,90,0.00,,---,0.00,VWS V14.00,2013-03-20 06:49:00,
2013-03-20 01:50:00,70.3,67.2,29.84,ENE,69,13.0,13.0,90,0.00,,---,0.00,VWS V14.00,2013-03-20 06:50:00,
2013-03-20 01:51:00,70.3,67.2,29.84,ENE,67,12.0,13.0,90,0.00,,---,0.00,VWS V14.00,2013-03-20 06:51:00,
2013-03-20 01:52:00,70.4,67.3,29.84,ENE,67,11.0,12.0,90,0.00,,---,0.00,VWS V14.00,2013-03-20 06:52:00,
2013-03-20 01:53:00,70.3,67.2,29.84,ENE,69,11.0,13.0,90,0.00,,---,0.00,VWS V14.00,2013-03-20 06:53:00,
2013-03-20 01:54:00,70.3,67.2,29.84,ENE,69,10.0,13.0,90,0.00,,---,0.00,VWS V14.00,2013-03-20 06:54:00,
2013-03-20 01:55:00,70.3,67.2,29.84,ENE,69,8.0,12.0,90,0.00,,---,0.00,VWS V14.00,2013-03-20 06:55:00,
2013-03-20 01:56:00,70.3,67.2,29.84,ENE,69,10.0,13.0,90,0.00,,---,0.00,VWS V14.00,2013-03-20 06:56:00,
2013-03-20 01:57:00,70.3,67.2,29.84,ENE,69,10.0,11.0,90,0.00,,---,0.00,VWS V14.00,2013-03-20 06:57:00,
2013-03-20 01:58:00,70.3,67.2,29.84,ENE,69,10.0,12.0,90,0.00,,---,0.00,VWS V14.00,2013-03-20 06:58:00,
2013-03-20 01:59:00,70.3,67.2,29.84,ENE,69,13.0,15.0,90,0.00,,---,0.00,VWS V14.00,2013-03-20 06:59:00,
2013-03-20 02:00:00,70.2,67.1,29.84,ENE,73,13.0,15.0,90,0.00,,---,0.00,VWS V14.00,2013-03-20 07:00:00,
2013-03-20 02:01:00,70.3,67.2,29.84,ENE,68,10.0,13.0,90,0.00,,---,0.00,VWS V14.00,2013-03-20 07:01:00,
2013-03-20 02:02:00,70.3,67.2,29.84,ENE,71,13.0,14.0,90,0.00,,---,0.00,VWS V14.00,2013-03-20 07:02:00,
2013-03-20 02:03:00,70.2,67.1,29.84,ENE,73,13.0,15.0,90,0.00,,---,0.00,VWS V14.00,2013-03-20 07:03:00,
2013-03-20 02:04:00,70.2,67.1,29.84,ENE,73,7.0,14.0,90,0.00,,---,0.00,VWS V14.00,2013-03-20 07:04:00,
2013-03-20 02:05:00,70.2,67.1,29.84,ENE,65,18.0,19.0,90,0.00,,---,0.00,VWS V14.00,2013-03-20 07:05:00,
2013-03-20 02:06:00,70.2,67.1,29.84,ENE,71,17.0,17.0,90,0.00,,---,0.00,VWS V14.00,2013-03-20 07:06:00,
2013-03-20 02:07:00,70.2,67.1,29.84,ENE,67,18.0,19.0,90,0.00,,---,0.00,VWS V14.00,2013-03-20 07:07:00,
2013-03-20 02:08:00,70.2,67.1,29.84,ENE,67,17.0,19.0,90,0.00,,---,0.00,VWS V14.00,2013-03-20 07:08:00,
2013-03-20 02:09:00,70.2,67.1,29.84,ENE,71,14.0,20.0,90,0.00,,---,0.00,VWS V14.00,2013-03-20 07:09:00,
2013-03-20 02:10:00,70.1,67.0,29.85,ENE,66,12.0,17.0,90,0.00,,---,0.00,VWS V14.00,2013-03-20 07:10:00,
2013-03-20 02:11:00,70.2,67.1,29.85,ENE,66,15.0,18.0,90,0.00,,---,0.00,VWS V14.00,2013-03-20 07:11:00,
2013-03-20 02:12:00,70.1,67.0,29.84,ENE,66,11.0,17.0,90,0.00,,---,0.00,VWS V14.00,2013-03-20 07:12:00,
2013-03-20 02:13:00,70.1,67.0,29.85,ENE,67,14.0,17.0,90,0.00,,---,0.00,VWS V14.00,2013-03-20 07:13:00,
2013-03-20 02:14:00,70.1,67.0,29.85,ENE,69,14.0,17.0,90,0.00,,---,0.00,VWS V14.00,2013-03-20 07:14:00,
2013-03-20 02:15:00,70.1,67.0,29.85,ENE,70,13.0,14.0,90,0.00,,---,0.00,VWS V14.00,2013-03-20 07:15:00,
2013-03-20 02:16:00,70.1,67.0,29.85,ENE,71,11.0,15.0,90,0.00,,---,0.00,VWS V14.00,2013-03-20 07:16:00,
2013-03-20 02:17:00,70.1,67.0,29.85,ENE,70,14.0,15.0,90,0.00,,---,0.00,VWS V14.00,2013-03-20 07:17:00,
2013-03-20 02:18:00,70.1,67.4,29.85,ENE,71,11.0,14.0,91,0.00,,---,0.00,VWS V14.00,2013-03-20 07:18:00,
2013-03-20 02:19:00,70.1,67.0,29.85,ENE,69,10.0,15.0,90,0.00,,---,0.00,VWS V14.00,2013-03-20 07:19:00,
2013-03-20 02:20:00,70.1,67.4,29.85,ENE,73,14.0,18.0,91,0.00,,---,0.00,VWS V14.00,2013-03-20 07:20:00,
2013-03-20 02:21:00,70.2,67.4,29.85,ENE,68,13.0,15.0,91,0.00,,---,0.00,VWS V14.00,2013-03-20 07:21:00,
2013-03-20 02:22:00,70.1,67.4,29.85,ENE,72,18.0,18.0,91,0.00,,---,0.00,VWS V14.00,2013-03-20 07:22:00,
2013-03-20 02:23:00,70.1,67.4,29.85,ENE,73,13.0,18.0,91,0.00,,---,0.00,VWS V14.00,2013-03-20 07:23:00,
2013-03-20 02:24:00,70.1,67.4,29.85,ENE,74,14.0,17.0,91,0.00,,---,0.00,VWS V14.00,2013-03-20 07:24:00,
2013-03-20 02:25:00,70.1,67.4,29.85,ENE,74,11.0,14.0,91,0.00,,---,0.00,VWS V14.00,2013-03-20 07:25:00,
2013-03-20 02:26:00,70.1,67.4,29.85,ENE,74,13.0,14.0,91,0.00,,---,0.00,VWS V14.00,2013-03-20 07:26:00,
2013-03-20 02:27:00,70.1,67.4,29.85,ENE,74,12.0,15.0,91,0.00,,---,0.00,VWS V14.00,2013-03-20 07:27:00,
2013-03-20 02:28:00,70.1,67.4,29.85,ENE,74,12.0,14.0,91,0.00,,---,0.00,VWS V14.00,2013-03-20 07:28:00,
2013-03-20 02:29:00,70.1,67.4,29.85,ENE,74,11.0,13.0,91,0.00,,---,0.00,VWS V14.00,2013-03-20 07:29:00,
2013-03-20 02:30:00,70.1,67.4,29.85,ENE,73,12.0,15.0,91,0.00,,---,0.00,VWS V14.00,2013-03-20 07:30:00,
2013-03-20 02:31:00,70.1,67.4,29.85,ENE,72,15.0,19.0,91,0.00,,---,0.00,VWS V14.00,2013-03-20 07:31:00,
2013-03-20 02:32:00,70.1,67.4,29.85,ENE,74,12.0,18.0,91,0.00,,---,0.00,VWS V14.00,2013-03-20 07:32:00,
2013-03-20 02:33:00,70.1,67.4,29.85,ENE,74,11.0,15.0,91,0.00,,---,0.00,VWS V14.00,2013-03-20 07:33:00,
2013-03-20 02:34:00,70.1,67.4,29.85,ENE,72,15.0,17.0,91,0.00,,---,0.00,VWS V14.00,2013-03-20 07:34:00,
2013-03-20 02:35:00,70.1,67.4,29.85,ENE,73,10.0,17.0,91,0.00,,---,0.00,VWS V14.00,2013-03-20 07:35:00,
2013-03-20 02:36:00,70.1,67.4,29.85,ENE,74,10.0,15.0,91,0.00,,---,0.00,VWS V14.00,2013-03-20 07:36:00,
2013-03-20 02:37:00,70.1,67.4,29.85,ENE,73,12.0,12.0,91,0.00,,---,0.00,VWS V14.00,2013-03-20 07:37:00,
2013-03-20 02:38:00,70.1,67.4,29.85,ENE,74,13.0,17.0,91,0.00,,---,0.00,VWS V14.00,2013-03-20 07:38:00,
2013-03-20 02:39:00,70.1,67.4,29.85,ENE,74,13.0,14.0,91,0.00,,---,0.00,VWS V14.00,2013-03-20 07:39:00,
2013-03-20 02:40:00,70.1,67.4,29.85,ENE,69,14.0,19.0,91,0.00,,---,0.00,VWS V14.00,2013-03-20 07:40:00,
2013-03-20 02:41:00,70.1,67.4,29.85,ENE,73,13.0,18.0,91,0.00,,---,0.00,VWS V14.00,2013-03-20 07:41:00,
2013-03-20 02:42:00,70.1,67.4,29.85,ENE,69,14.0,18.0,91,0.00,,---,0.00,VWS V14.00,2013-03-20 07:42:00,
2013-03-20 02:43:00,70.1,67.4,29.85,ENE,68,18.0,19.0,91,0.00,,---,0.00,VWS V14.00,2013-03-20 07:43:00,
2013-03-20 02:44:00,70.1,67.4,29.86,ENE,67,17.0,18.0,91,0.00,,---,0.00,VWS V14.00,2013-03-20 07:44:00,
2013-03-20 02:45:00,70.1,67.4,29.85,ENE,63,14.0,15.0,91,0.00,,---,0.00,VWS V14.00,2013-03-20 07:45:00,
2013-03-20 02:46:00,70.1,67.4,29.85,ENE,65,12.0,15.0,91,0.00,,---,0.00,VWS V14.00,2013-03-20 07:46:00,
2013-03-20 02:47:00,70.1,67.4,29.85,ENE,62,14.0,18.0,91,0.00,,---,0.00,VWS V14.00,2013-03-20 07:47:00,
2013-03-20 02:48:00,70.1,67.4,29.85,ENE,63,14.0,15.0,91,0.00,,---,0.00,VWS V14.00,2013-03-20 07:48:00,
2013-03-20 02:49:00,70.1,67.4,29.85,ENE,69,17.0,18.0,91,0.00,,---,0.00,VWS V14.00,2013-03-20 07:49:00,
2013-03-20 02:50:00,70.1,67.4,29.85,ENE,71,15.0,20.0,91,0.00,,---,0.00,VWS V14.00,2013-03-20 07:50:00,
2013-03-20 02:51:00,70.1,67.4,29.85,ENE,72,18.0,20.0,91,0.00,,---,0.00,VWS V14.00,2013-03-20 07:51:00,
2013-03-20 02:52:00,70.1,67.4,29.85,ENE,69,18.0,20.0,91,0.00,,---,0.00,VWS V14.00,2013-03-20 07:52:00,
2013-03-20 02:53:00,70.1,67.4,29.85,ENE,69,15.0,20.0,91,0.00,,---,0.00,VWS V14.00,2013-03-20 07:53:00,
2013-03-20 02:54:00,70.1,67.4,29.85,ENE,71,12.0,15.0,91,0.00,,---,0.00,VWS V14.00,2013-03-20 07:54:00,
2013-03-20 02:55:00,70.1,67.4,29.85,ENE,74,12.0,15.0,91,0.00,,---,0.00,VWS V14.00,2013-03-20 07:55:00,
2013-03-20 02:56:00,70.1,67.4,29.85,ENE,74,13.0,19.0,91,0.00,,---,0.00,VWS V14.00,2013-03-20 07:56:00,
2013-03-20 02:57:00,70.1,67.4,29.85,ENE,73,12.0,15.0,91,0.00,,---,0.00,VWS V14.00,2013-03-20 07:57:00,
2013-03-20 02:58:00,70.1,67.4,29.85,ENE,73,11.0,15.0,91,0.00,,---,0.00,VWS V14.00,2013-03-20 07:58:00,
2013-03-20 02:59:00,70.1,67.4,29.85,ENE,63,19.0,19.0,91,0.00,,---,0.00,VWS V14.00,2013-03-20 07:59:00,
2013-03-20 03:00:00,70.1,67.4,29.86,ENE,66,15.0,19.0,91,0.00,,---,0.00,VWS V14.00,2013-03-20 08:00:00,
2013-03-20 03:01:00,70.1,67.4,29.85,ENE,67,18.0,19.0,91,0.00,,---,0.00,VWS V14.00,2013-03-20 08:01:00,
2013-03-20 03:02:00,70.1,67.4,29.85,ENE,67,18.0,21.0,91,0.00,,---,0.00,VWS V14.00,2013-03-20 08:02:00,
2013-03-20 03:03:00,70.1,67.4,29.86,ENE,66,14.0,19.0,91,0.00,,---,0.00,VWS V14.00,2013-03-20 08:03:00,
2013-03-20 03:04:00,70.1,67.4,29.86,ENE,68,14.0,18.0,91,0.00,,---,0.00,VWS V14.00,2013-03-20 08:04:00,
2013-03-20 03:05:00,70.1,67.4,29.86,ENE,69,15.0,15.0,91,0.00,,---,0.00,VWS V14.00,2013-03-20 08:05:00,
2013-03-20 03:06:00,70.1,67.4,29.86,ENE,67,18.0,18.0,91,0.00,,---,0.00,VWS V14.00,2013-03-20 08:06:00,
2013-03-20 03:07:00,70.1,67.4,29.86,ENE,69,12.0,18.0,91,0.00,,---,0.00,VWS V14.00,2013-03-20 08:07:00,
2013-03-20 03:08:00,70.1,67.4,29.86,ENE,67,18.0,19.0,91,0.00,,---,0.00,VWS V14.00,2013-03-20 08:08:00,
2013-03-20 03:09:00,70.1,67.4,29.86,ENE,67,18.0,19.0,91,0.00,,---,0.00,VWS V14.00,2013-03-20 08:09:00,
2013-03-20 03:10:00,70.1,67.4,29.86,ENE,68,11.0,13.0,91,0.00,,---,0.00,VWS V14.00,2013-03-20 08:10:00,
2013-03-20 03:11:00,70.1,67.4,29.86,ENE,67,14.0,15.0,91,0.00,,---,0.00,VWS V14.00,2013-03-20 08:11:00,
2013-03-20 03:12:00,70.1,67.4,29.86,ENE,68,12.0,15.0,91,0.00,,---,0.00,VWS V14.00,2013-03-20 08:12:00,
2013-03-20 03:13:00,70.1,67.4,29.86,ENE,67,14.0,15.0,91,0.00,,---,0.00,VWS V14.00,2013-03-20 08:13:00,
2013-03-20 03:14:00,70.1,67.4,29.86,ENE,70,15.0,18.0,91,0.00,,---,0.00,VWS V14.00,2013-03-20 08:14:00,
2013-03-20 03:15:00,70.1,67.4,29.86,ENE,61,14.0,17.0,91,0.00,,---,0.00,VWS V14.00,2013-03-20 08:15:00,
2013-03-20 03:16:00,70.2,67.4,29.86,ENE,57,13.0,15.0,91,0.00,,---,0.00,VWS V14.00,2013-03-20 08:16:00,
2013-03-20 03:17:00,70.1,67.4,29.86,ENE,59,13.0,19.0,91,0.00,,---,0.00,VWS V14.00,2013-03-20 08:17:00,
2013-03-20 03:18:00,70.1,67.4,29.86,ENE,61,12.0,17.0,91,0.00,,---,0.00,VWS V14.00,2013-03-20 08:18:00,
2013-03-20 03:19:00,70.1,67.4,29.86,ENE,61,18.0,18.0,91,0.00,,---,0.00,VWS V14.00,2013-03-20 08:19:00,
2013-03-20 03:20:00,70.1,67.4,29.86,ENE,58,16.0,18.0,91,0.00,,---,0.00,VWS V14.00,2013-03-20 08:20:00,
2013-03-20 03:21:00,70.1,67.4,29.86,ENE,61,17.0,19.0,91,0.00,,---,0.00,VWS V14.00,2013-03-20 08:21:00,
2013-03-20 03:22:00,70.1,67.4,29.86,ENE,57,17.0,19.0,91,0.00,,---,0.00,VWS V14.00,2013-03-20 08:22:00,
2013-03-20 03:23:00,70.0,67.3,29.86,ENE,59,17.0,18.0,91,0.00,,---,0.00,VWS V14.00,2013-03-20 08:23:00,
2013-03-20 03:24:00,70.0,67.3,29.86,ENE,61,19.0,20.0,91,0.00,,---,0.00,VWS V14.00,2013-03-20 08:24:00,
2013-03-20 03:25:00,69.9,67.2,29.86,ENE,57,17.0,19.0,91,0.00,,---,0.00,VWS V14.00,2013-03-20 08:25:00,
2013-03-20 03:26:00,70.0,67.3,29.86,ENE,57,16.0,21.0,91,0.00,,---,0.00,VWS V14.00,2013-03-20 08:26:00,
2013-03-20 03:27:00,70.0,67.3,29.86,ENE,61,18.0,20.0,91,0.00,,---,0.00,VWS V14.00,2013-03-20 08:27:00,
2013-03-20 03:28:00,69.9,67.2,29.86,ENE,57,20.0,20.0,91,0.00,,---,0.00,VWS V14.00,2013-03-20 08:28:00,
2013-03-20 03:29:00,69.9,67.2,29.86,NE,52,17.0,21.0,91,0.00,,---,0.00,VWS V14.00,2013-03-20 08:29:00,
2013-03-20 03:30:00,69.9,67.2,29.86,ENE,60,17.0,20.0,91,0.00,,---,0.00,VWS V14.00,2013-03-20 08:30:00,
2013-03-20 03:31:00,69.9,67.2,29.86,ENE,59,18.0,20.0,91,0.00,,---,0.00,VWS V14.00,2013-03-20 08:31:00,
2013-03-20 03:32:00,69.9,67.2,29.86,ENE,57,15.0,18.0,91,0.00,,---,0.00,VWS V14.00,2013-03-20 08:32:00,
2013-03-20 03:33:00,69.9,67.2,29.86,ENE,57,18.0,20.0,91,0.00,,---,0.00,VWS V14.00,2013-03-20 08:33:00,
2013-03-20 03:34:00,69.8,67.1,29.86,ENE,57,20.0,21.0,91,0.00,,---,0.00,VWS V14.00,2013-03-20 08:34:00,
2013-03-20 03:35:00,69.8,67.1,29.87,ENE,58,16.0,18.0,91,0.00,,---,0.00,VWS V14.00,2013-03-20 08:35:00,
2013-03-20 03:37:00,69.8,67.1,29.86,ENE,61,18.0,20.0,91,0.00,,---,0.00,VWS V14.00,2013-03-20 08:37:00,
2013-03-20 03:38:00,69.8,67.1,29.87,NE,55,18.0,19.0,91,0.00,,---,0.00,VWS V14.00,2013-03-20 08:38:00,
2013-03-20 03:39:00,69.8,67.1,29.87,ENE,58,17.0,20.0,91,0.00,,---,0.00,VWS V14.00,2013-03-20 08:39:00,
2013-03-20 03:40:00,69.7,67.0,29.87,NE,55,14.0,17.0,91,0.00,,---,0.00,VWS V14.00,2013-03-20 08:40:00,
2013-03-20 03:41:00,69.7,67.0,29.87,NE,55,15.0,19.0,91,0.00,,---,0.00,VWS V14.00,2013-03-20 08:41:00,
2013-03-20 03:42:00,69.7,67.0,29.87,NE,53,11.0,17.0,91,0.00,,---,0.00,VWS V14.00,2013-03-20 08:42:00,
2013-03-20 03:43:00,69.7,67.0,29.87,NE,55,13.0,17.0,91,0.00,,---,0.00,VWS V14.00,2013-03-20 08:43:00,
2013-03-20 03:44:00,69.7,67.0,29.87,NE,56,14.0,17.0,91,0.00,,---,0.00,VWS V14.00,2013-03-20 08:44:00,
2013-03-20 03:45:00,69.6,66.9,29.87,NE,53,16.0,20.0,91,0.00,,---,0.00,VWS V14.00,2013-03-20 08:45:00,
2013-03-20 03:46:00,69.6,66.9,29.87,NE,55,15.0,17.0,91,0.00,,---,0.00,VWS V14.00,2013-03-20 08:46:00,
2013-03-20 03:47:00,69.6,66.5,29.87,NE,54,14.0,18.0,90,0.00,,---,0.00,VWS V14.00,2013-03-20 08:47:00,
2013-03-20 03:48:00,69.6,66.9,29.87,NE,55,19.0,20.0,91,0.00,,---,0.00,VWS V14.00,2013-03-20 08:48:00,
2013-03-20 03:49:00,69.5,66.8,29.87,ENE,57,16.0,19.0,91,0.00,,---,0.00,VWS V14.00,2013-03-20 08:49:00,
2013-03-20 03:50:00,69.5,66.8,29.87,ENE,61,18.0,18.0,91,0.00,,---,0.00,VWS V14.00,2013-03-20 08:50:00,
2013-03-20 03:51:00,69.5,66.8,29.87,ENE,61,11.0,18.0,91,0.00,,---,0.00,VWS V14.00,2013-03-20 08:51:00,
2013-03-20 03:52:00,69.5,66.8,29.87,ENE,61,13.0,19.0,91,0.00,,---,0.00,VWS V14.00,2013-03-20 08:52:00,
2013-03-20 03:53:00,69.5,66.8,29.87,ENE,62,14.0,18.0,91,0.00,,---,0.00,VWS V14.00,2013-03-20 08:53:00,
2013-03-20 03:54:00,69.4,66.7,29.87,ENE,63,12.0,17.0,91,0.00,,---,0.00,VWS V14.00,2013-03-20 08:54:00,
2013-03-20 03:55:00,69.4,66.7,29.88,ENE,63,12.0,13.0,91,0.00,,---,0.00,VWS V14.00,2013-03-20 08:55:00,
2013-03-20 03:56:00,69.4,66.7,29.87,ENE,63,15.0,15.0,91,0.00,,---,0.00,VWS V14.00,2013-03-20 08:56:00,
2013-03-20 03:57:00,69.4,66.7,29.88,ENE,63,11.0,15.0,91,0.00,,---,0.00,VWS V14.00,2013-03-20 08:57:00,
2013-03-20 03:58:00,69.4,66.7,29.88,ENE,63,11.0,13.0,91,0.00,,---,0.00,VWS V14.00,2013-03-20 08:58:00,
2013-03-20 03:59:00,69.4,66.7,29.88,ENE,57,14.0,17.0,91,0.00,,---,0.00,VWS V14.00,2013-03-20 08:59:00,
2013-03-20 04:00:00,69.4,66.7,29.88,ENE,57,13.0,17.0,91,0.00,,---,0.00,VWS V14.00,2013-03-20 09:00:00,
2013-03-20 04:01:00,69.4,66.7,29.88,ENE,57,13.0,15.0,91,0.00,,---,0.00,VWS V14.00,2013-03-20 09:01:00,
2013-03-20 04:02:00,69.4,66.7,29.88,NE,55,17.0,18.0,91,0.00,,---,0.00,VWS V14.00,2013-03-20 09:02:00,
2013-03-20 04:03:00,69.4,66.7,29.88,ENE,57,13.0,17.0,91,0.00,,---,0.00,VWS V14.00,2013-03-20 09:03:00,
2013-03-20 04:04:00,69.4,66.7,29.88,ENE,57,14.0,15.0,91,0.00,,---,0.00,VWS V14.00,2013-03-20 09:04:00,
2013-03-20 04:05:00,69.4,66.7,29.88,NE,53,18.0,20.0,91,0.00,,---,0.00,VWS V14.00,2013-03-20 09:05:00,
2013-03-20 04:06:00,69.4,66.7,29.88,NE,53,19.0,19.0,91,0.00,,---,0.00,VWS V14.00,2013-03-20 09:06:00,
2013-03-20 04:07:00,69.4,66.7,29.88,NE,55,17.0,20.0,91,0.00,,---,0.00,VWS V14.00,2013-03-20 09:07:00,
2013-03-20 04:08:00,69.4,66.7,29.88,NE,49,17.0,20.0,91,0.00,,---,0.00,VWS V14.00,2013-03-20 09:08:00,
2013-03-20 04:09:00,69.4,66.7,29.88,NE,52,17.0,17.0,91,0.00,,---,0.00,VWS V14.00,2013-03-20 09:09:00,
2013-03-20 04:10:00,69.4,66.7,29.88,NE,53,18.0,18.0,91,0.00,,---,0.00,VWS V14.00,2013-03-20 09:10:00,
2013-03-20 04:11:00,69.4,66.7,29.88,NE,55,19.0,19.0,91,0.00,,---,0.00,VWS V14.00,2013-03-20 09:11:00,
2013-03-20 04:12:00,69.4,66.7,29.88,NE,55,14.0,20.0,91,0.00,,---,0.00,VWS V14.00,2013-03-20 09:12:00,
2013-03-20 04:13:00,69.4,66.7,29.88,NE,51,18.0,19.0,91,0.00,,---,0.00,VWS V14.00,2013-03-20 09:13:00,
2013-03-20 04:14:00,69.4,66.7,29.88,NE,48,18.0,20.0,91,0.00,,---,0.00,VWS V14.00,2013-03-20 09:14:00,
2013-03-20 04:15:00,69.5,66.4,29.88,NE,48,15.0,18.0,90,0.00,,---,0.00,VWS V14.00,2013-03-20 09:15:00,
2013-03-20 04:16:00,69.5,66.4,29.88,NE,44,17.0,19.0,90,0.00,,---,0.00,VWS V14.00,2013-03-20 09:16:00,
2013-03-20 04:17:00,69.5,66.4,29.88,NE,50,18.0,19.0,90,0.00,,---,0.00,VWS V14.00,2013-03-20 09:17:00,
2013-03-20 04:18:00,69.5,66.4,29.88,NE,48,15.0,18.0,90,0.00,,---,0.00,VWS V14.00,2013-03-20 09:18:00,
2013-03-20 04:19:00,69.5,66.4,29.88,NE,45,16.0,16.0,90,0.00,,---,0.00,VWS V14.00,2013-03-20 09:19:00,
2013-03-20 04:20:00,69.5,66.4,29.88,NE,46,15.0,15.0,90,0.00,,---,0.00,VWS V14.00,2013-03-20 09:20:00,
2013-03-20 04:21:00,69.5,66.4,29.88,NE,44,11.0,17.0,90,0.00,,---,0.00,VWS V14.00,2013-03-20 09:21:00,
2013-03-20 04:22:00,69.5,66.4,29.88,NE,45,13.0,16.0,90,0.00,,---,0.00,VWS V14.00,2013-03-20 09:22:00,
2013-03-20 04:23:00,69.5,66.4,29.88,NE,44,16.0,17.0,90,0.00,,---,0.00,VWS V14.00,2013-03-20 09:23:00,
2013-03-20 04:24:00,69.5,66.4,29.88,NE,44,16.0,16.0,90,0.00,,---,0.00,VWS V14.00,2013-03-20 09:24:00,
2013-03-20 04:25:00,69.6,66.5,29.88,NE,46,17.0,19.0,90,0.00,,---,0.00,VWS V14.00,2013-03-20 09:25:00,
2013-03-20 04:26:00,69.6,66.5,29.88,NE,46,13.0,19.0,90,0.00,,---,0.00,VWS V14.00,2013-03-20 09:26:00,
2013-03-20 04:27:00,69.6,66.5,29.88,NE,44,19.0,19.0,90,0.00,,---,0.00,VWS V14.00,2013-03-20 09:27:00,
2013-03-20 04:28:00,69.6,66.5,29.88,NE,46,19.0,19.0,90,0.00,,---,0.00,VWS V14.00,2013-03-20 09:28:00,
2013-03-20 04:29:00,69.6,66.5,29.88,NE,43,18.0,21.0,90,0.00,,---,0.00,VWS V14.00,2013-03-20 09:29:00,
2013-03-20 04:30:00,69.6,66.5,29.88,NE,47,17.0,17.0,90,0.00,,---,0.00,VWS V14.00,2013-03-20 09:30:00,
2013-03-20 04:31:00,69.7,66.6,29.88,NE,50,17.0,19.0,90,0.00,,---,0.00,VWS V14.00,2013-03-20 09:31:00,
2013-03-20 04:32:00,69.7,66.6,29.88,NE,49,15.0,18.0,90,0.00,,---,0.00,VWS V14.00,2013-03-20 09:32:00,
2013-03-20 04:33:00,69.6,66.5,29.88,NE,48,16.0,18.0,90,0.00,,---,0.00,VWS V14.00,2013-03-20 09:33:00,
2013-03-20 04:34:00,69.7,66.6,29.88,NE,46,14.0,17.0,90,0.00,,---,0.00,VWS V14.00,2013-03-20 09:34:00,
2013-03-20 04:35:00,69.7,66.6,29.88,NE,47,17.0,18.0,90,0.00,,---,0.00,VWS V14.00,2013-03-20 09:35:00,
2013-03-20 04:36:00,69.7,66.6,29.88,NE,42,12.0,16.0,90,0.00,,---,0.00,VWS V14.00,2013-03-20 09:36:00,
2013-03-20 04:37:00,69.7,66.6,29.88,NE,46,16.0,19.0,90,0.00,,---,0.00,VWS V14.00,2013-03-20 09:37:00,
2013-03-20 04:38:00,69.7,66.6,29.88,NE,47,13.0,18.0,90,0.00,,---,0.00,VWS V14.00,2013-03-20 09:38:00,
2013-03-20 04:39:00,69.7,66.6,29.88,NE,49,17.0,17.0,90,0.00,,---,0.00,VWS V14.00,2013-03-20 09:39:00,
2013-03-20 04:40:00,69.7,66.6,29.88,NE,47,21.0,21.0,90,0.00,,---,0.00,VWS V14.00,2013-03-20 09:40:00,
2013-03-20 04:41:00,69.7,66.6,29.88,NE,45,18.0,21.0,90,0.00,,---,0.00,VWS V14.00,2013-03-20 09:41:00,
2013-03-20 04:42:00,69.7,66.6,29.88,NE,49,17.0,20.0,90,0.00,,---,0.00,VWS V14.00,2013-03-20 09:42:00,
2013-03-20 04:43:00,69.7,66.6,29.88,NE,44,14.0,21.0,90,0.00,,---,0.00,VWS V14.00,2013-03-20 09:43:00,
2013-03-20 04:44:00,69.7,66.6,29.89,NE,40,19.0,19.0,90,0.00,,---,0.00,VWS V14.00,2013-03-20 09:44:00,
2013-03-20 04:45:00,69.8,66.7,29.89,NE,42,18.0,22.0,90,0.00,,---,0.00,VWS V14.00,2013-03-20 09:45:00,
2013-03-20 04:46:00,69.8,66.7,29.88,NE,42,17.0,20.0,90,0.00,,---,0.00,VWS V14.00,2013-03-20 09:46:00,
2013-03-20 04:47:00,69.8,66.7,29.88,NE,45,22.0,22.0,90,0.00,,---,0.00,VWS V14.00,2013-03-20 09:47:00,
2013-03-20 04:48:00,69.8,66.7,29.89,NE,48,18.0,22.0,90,0.00,,---,0.00,VWS V14.00,2013-03-20 09:48:00,
2013-03-20 04:49:00,69.8,66.7,29.89,NE,50,20.0,20.0,90,0.00,,---,0.00,VWS V14.00,2013-03-20 09:49:00,
2013-03-20 04:50:00,69.8,66.7,29.89,NE,44,16.0,16.0,90,0.00,,---,0.00,VWS V14.00,2013-03-20 09:50:00,
2013-03-20 04:51:00,69.8,66.7,29.89,NE,47,19.0,20.0,90,0.00,,---,0.00,VWS V14.00,2013-03-20 09:51:00,
2013-03-20 04:52:00,69.8,66.7,29.89,NE,43,13.0,19.0,90,0.00,,---,0.00,VWS V14.00,2013-03-20 09:52:00,
2013-03-20 04:53:00,69.8,66.7,29.89,NE,46,14.0,18.0,90,0.00,,---,0.00,VWS V14.00,2013-03-20 09:53:00,
2013-03-20 04:54:00,69.8,66.7,29.89,NE,45,15.0,16.0,90,0.00,,---,0.00,VWS V14.00,2013-03-20 09:54:00,
2013-03-20 04:55:00,69.9,66.8,29.89,NE,48,20.0,20.0,90,0.00,,---,0.00,VWS V14.00,2013-03-20 09:55:00,
2013-03-20 04:56:00,69.9,66.8,29.89,NE,43,18.0,21.0,90,0.00,,---,0.00,VWS V14.00,2013-03-20 09:56:00,
2013-03-20 04:59:00,69.9,66.8,29.89,NE,45,20.0,23.0,90,0.00,,---,0.00,VWS V14.00,2013-03-20 09:59:00,
2013-03-20 05:00:00,69.9,66.8,29.90,NE,45,15.0,18.0,90,0.00,,---,0.00,VWS V14.00,2013-03-20 10:00:00,
2013-03-20 05:01:00,69.9,66.8,29.90,NE,44,13.0,19.0,90,0.00,,---,0.00,VWS V14.00,2013-03-20 10:01:00,
2013-03-20 05:02:00,69.9,66.8,29.90,NE,40,14.0,21.0,90,0.00,,---,0.00,VWS V14.00,2013-03-20 10:02:00,
2013-03-20 05:03:00,69.9,66.8,29.90,NE,46,17.0,18.0,90,0.00,,---,0.00,VWS V14.00,2013-03-20 10:03:00,
2013-03-20 05:04:00,69.9,66.8,29.90,NE,43,18.0,20.0,90,0.00,,---,0.00,VWS V14.00,2013-03-20 10:04:00,
2013-03-20 05:05:00,69.9,66.8,29.90,NNE,33,16.0,19.0,90,0.00,,---,0.00,VWS V14.00,2013-03-20 10:05:00,
2013-03-20 05:06:00,69.9,66.8,29.90,NE,40,12.0,17.0,90,0.00,,---,0.00,VWS V14.00,2013-03-20 10:06:00,
2013-03-20 05:07:00,69.9,66.8,29.90,NNE,26,16.0,20.0,90,0.00,,---,0.00,VWS V14.00,2013-03-20 10:07:00,
2013-03-20 05:08:00,69.9,66.8,29.90,NE,34,19.0,19.0,90,0.00,,---,0.00,VWS V14.00,2013-03-20 10:08:00,
2013-03-20 05:09:00,69.9,66.8,29.90,NE,38,18.0,20.0,90,0.00,,---,0.00,VWS V14.00,2013-03-20 10:09:00,
2013-03-20 05:10:00,69.9,66.8,29.90,NE,35,20.0,20.0,90,0.00,,---,0.00,VWS V14.00,2013-03-20 10:10:00,
2013-03-20 05:11:00,69.9,66.8,29.90,NE,42,19.0,23.0,90,0.00,,---,0.00,VWS V14.00,2013-03-20 10:11:00,
2013-03-20 05:12:00,69.9,66.8,29.90,NE,40,16.0,20.0,90,0.00,,---,0.00,VWS V14.00,2013-03-20 10:12:00,
2013-03-20 05:13:00,69.9,66.8,29.90,NE,38,19.0,22.0,90,0.00,,---,0.00,VWS V14.00,2013-03-20 10:13:00,
2013-03-20 05:14:00,69.8,66.7,29.90,NE,36,18.0,24.0,90,0.00,,---,0.00,VWS V14.00,2013-03-20 10:14:00,
2013-03-20 05:15:00,69.8,66.7,29.90,NE,37,16.0,19.0,90,0.00,,---,0.00,VWS V14.00,2013-03-20 10:15:00,
2013-03-20 05:16:00,69.8,66.7,29.90,NE,43,19.0,21.0,90,0.00,,---,0.00,VWS V14.00,2013-03-20 10:16:00,
2013-03-20 05:17:00,69.8,66.7,29.90,NE,40,18.0,20.0,90,0.00,,---,0.00,VWS V14.00,2013-03-20 10:17:00,
2013-03-20 05:18:00,69.8,66.7,29.90,NE,34,21.0,22.0,90,0.00,,---,0.00,VWS V14.00,2013-03-20 10:18:00,
2013-03-20 05:19:00,69.7,66.6,29.90,NE,46,22.0,26.0,90,0.00,,---,0.00,VWS V14.00,2013-03-20 10:19:00,
2013-03-20 05:20:00,69.7,66.6,29.90,NE,37,20.0,22.0,90,0.00,,---,0.00,VWS V14.00,2013-03-20 10:20:00,
2013-03-20 05:21:00,69.7,66.6,29.90,NE,53,21.0,23.0,90,0.00,,---,0.00,VWS V14.00,2013-03-20 10:21:00,
2013-03-20 05:22:00,69.7,66.6,29.90,NE,44,22.0,24.0,90,0.00,,---,0.00,VWS V14.00,2013-03-20 10:22:00,
2013-03-20 05:23:00,69.7,66.6,29.90,NE,43,20.0,22.0,90,0.00,,---,0.00,VWS V14.00,2013-03-20 10:23:00,
2013-03-20 05:24:00,69.7,66.6,29.90,NE,40,18.0,22.0,90,0.00,,---,0.00,VWS V14.00,2013-03-20 10:24:00,
2013-03-20 05:25:00,69.6,66.5,29.91,NE,38,17.0,20.0,90,0.00,,---,0.00,VWS V14.00,2013-03-20 10:25:00,
2013-03-20 05:26:00,69.7,66.6,29.90,NE,42,18.0,23.0,90,0.00,,---,0.00,VWS V14.00,2013-03-20 10:26:00,
2013-03-20 05:27:00,69.7,66.6,29.91,NE,40,16.0,21.0,90,0.00,,---,0.00,VWS V14.00,2013-03-20 10:27:00,
2013-03-20 05:28:00,69.6,66.5,29.91,NE,38,16.0,20.0,90,0.00,,---,0.00,VWS V14.00,2013-03-20 10:28:00,
2013-03-20 05:29:00,69.6,66.5,29.91,NNE,29,17.0,22.0,90,0.00,,---,0.00,VWS V14.00,2013-03-20 10:29:00,
2013-03-20 05:30:00,69.4,66.3,29.91,NE,37,19.0,19.0,90,0.00,,---,0.00,VWS V14.00,2013-03-20 10:30:00,
2013-03-20 05:31:00,69.5,66.4,29.91,NNE,27,18.0,24.0,90,0.00,,---,0.00,VWS V14.00,2013-03-20 10:31:00,
2013-03-20 05:32:00,69.4,66.3,29.91,NE,38,17.0,20.0,90,0.00,,---,0.00,VWS V14.00,2013-03-20 10:32:00,
2013-03-20 05:33:00,69.4,66.3,29.91,NNE,33,17.0,19.0,90,0.00,,---,0.00,VWS V14.00,2013-03-20 10:33:00,
2013-03-20 05:34:00,69.4,66.3,29.91,NNE,33,21.0,26.0,90,0.00,,---,0.00,VWS V14.00,2013-03-20 10:34:00,
2013-03-20 05:35:00,69.0,65.9,29.91,NE,37,26.0,26.0,90,0.00,,---,0.00,VWS V14.00,2013-03-20 10:35:00,
2013-03-20 05:36:00,69.1,66.1,29.91,NNE,25,23.0,28.0,90,0.00,,---,0.00,VWS V14.00,2013-03-20 10:36:00,
2013-03-20 05:37:00,69.0,65.9,29.91,NE,38,19.0,26.0,90,0.00,,---,0.00,VWS V14.00,2013-03-20 10:37:00,
2013-03-20 05:38:00,68.9,65.8,29.91,NNE,30,21.0,27.0,90,0.00,,---,0.00,VWS V14.00,2013-03-20 10:38:00,
2013-03-20 05:39:00,68.8,65.8,29.91,NE,34,23.0,30.0,90,0.00,,---,0.00,VWS V14.00,2013-03-20 10:39:00,
2013-03-20 05:40:00,68.5,65.5,29.91,NE,36,25.0,27.0,90,0.00,,---,0.00,VWS V14.00,2013-03-20 10:40:00,
2013-03-20 05:41:00,68.6,65.6,29.91,NE,39,22.0,27.0,90,0.00,,---,0.00,VWS V14.00,2013-03-20 10:41:00,
2013-03-20 05:42:00,68.6,65.6,29.91,NE,41,26.0,26.0,90,0.00,,---,0.00,VWS V14.00,2013-03-20 10:42:00,
2013-03-20 05:43:00,68.5,65.5,29.91,NE,43,24.0,27.0,90,0.00,,---,0.00,VWS V14.00,2013-03-20 10:43:00,
2013-03-20 05:44:00,68.4,65.4,29.92,NE,44,23.0,28.0,90,0.00,,---,0.00,VWS V14.00,2013-03-20 10:44:00,
2013-03-20 05:45:00,68.2,65.2,29.92,NE,47,22.0,22.0,90,0.00,,---,0.00,VWS V14.00,2013-03-20 10:45:00,
2013-03-20 05:46:00,68.3,65.3,29.92,NE,47,24.0,27.0,90,0.00,,---,0.00,VWS V14.00,2013-03-20 10:46:00,
2013-03-20 05:47:00,68.3,65.3,29.92,NE,41,17.0,24.0,90,0.00,,---,0.00,VWS V14.00,2013-03-20 10:47:00,
2013-03-20 05:48:00,68.2,65.2,29.92,NE,42,24.0,27.0,90,0.00,,---,0.00,VWS V14.00,2013-03-20 10:48:00,
2013-03-20 05:49:00,68.2,65.2,29.92,NE,39,25.0,25.0,90,0.00,,---,0.00,VWS V14.00,2013-03-20 10:49:00,
2013-03-20 05:50:00,68.1,65.1,29.92,NE,46,22.0,28.0,90,0.00,,---,0.00,VWS V14.00,2013-03-20 10:50:00,
2013-03-20 05:51:00,68.2,65.2,29.92,NE,39,19.0,25.0,90,0.00,,---,0.00,VWS V14.00,2013-03-20 10:51:00,
2013-03-20 05:52:00,68.2,65.2,29.92,NE,40,22.0,22.0,90,0.00,,---,0.00,VWS V14.00,2013-03-20 10:52:00,
2013-03-20 05:53:00,68.2,65.2,29.92,NE,49,24.0,28.0,90,0.00,,---,0.00,VWS V14.00,2013-03-20 10:53:00,
2013-03-20 05:54:00,68.1,65.1,29.93,NE,40,19.0,26.0,90,0.00,,---,0.00,VWS V14.00,2013-03-20 10:54:00,
2013-03-20 05:55:00,68.1,65.1,29.93,NE,43,26.0,26.0,90,0.00,,---,0.00,VWS V14.00,2013-03-20 10:55:00,
2013-03-20 05:56:00,68.2,65.2,29.93,NE,34,23.0,24.0,90,0.00,,---,0.00,VWS V14.00,2013-03-20 10:56:00,
2013-03-20 05:57:00,68.2,65.2,29.93,NE,44,20.0,25.0,90,0.00,,---,0.00,VWS V14.00,2013-03-20 10:57:00,
2013-03-20 05:58:00,68.1,65.1,29.93,NE,46,20.0,26.0,90,0.00,,---,0.00,VWS V14.00,2013-03-20 10:58:00,
2013-03-20 05:59:00,68.1,65.1,29.93,NE,44,22.0,25.0,90,0.00,,---,0.00,VWS V14.00,2013-03-20 10:59:00,
2013-03-20 06:00:00,68.1,65.1,29.93,NE,41,19.0,21.0,90,0.00,,---,0.00,VWS V14.00,2013-03-20 11:00:00,
2013-03-20 06:01:00,68.1,65.1,29.93,NE,38,21.0,22.0,90,0.00,,---,0.00,VWS V14.00,2013-03-20 11:01:00,
2013-03-20 06:02:00,68.1,65.1,29.93,NE,36,20.0,23.0,90,0.00,,---,0.00,VWS V14.00,2013-03-20 11:02:00,
2013-03-20 06:03:00,68.1,65.1,29.93,NE,41,21.0,21.0,90,0.00,,---,0.00,VWS V14.00,2013-03-20 11:03:00,
2013-03-20 06:04:00,68.1,65.1,29.93,NE,52,22.0,23.0,90,0.00,,---,0.00,VWS V14.00,2013-03-20 11:04:00,
2013-03-20 06:05:00,68.1,65.1,29.93,NNE,25,18.0,26.0,90,0.00,,---,0.00,VWS V14.00,2013-03-20 11:05:00,
2013-03-20 06:06:00,68.1,65.1,29.93,NE,38,17.0,23.0,90,0.00,,---,0.00,VWS V14.00,2013-03-20 11:06:00,
2013-03-20 06:07:00,68.1,65.1,29.93,NE,44,18.0,21.0,90,0.00,,---,0.00,VWS V14.00,2013-03-20 11:07:00,
2013-03-20 06:08:00,68.1,65.1,29.93,NE,42,27.0,30.0,90,0.00,,---,0.00,VWS V14.00,2013-03-20 11:08:00,
2013-03-20 06:09:00,68.1,65.1,29.93,NE,40,29.0,30.0,90,0.00,,---,0.00,VWS V14.00,2013-03-20 11:09:00,
2013-03-20 06:10:00,68.1,65.1,29.94,NE,41,23.0,29.0,90,0.00,,---,0.00,VWS V14.00,2013-03-20 11:10:00,
2013-03-20 06:11:00,68.1,65.1,29.94,NE,38,24.0,29.0,90,0.00,,---,0.00,VWS V14.00,2013-03-20 11:11:00,
2013-03-20 06:12:00,68.1,65.1,29.94,NE,38,26.0,28.0,90,0.00,,---,0.00,VWS V14.00,2013-03-20 11:12:00,
2013-03-20 06:13:00,68.1,65.1,29.94,NE,42,24.0,29.0,90,0.00,,---,0.00,VWS V14.00,2013-03-20 11:13:00,
2013-03-20 06:14:00,68.1,65.1,29.94,NNE,30,20.0,26.0,90,0.00,,---,0.00,VWS V14.00,2013-03-20 11:14:00,
2013-03-20 06:15:00,68.2,64.8,29.94,NNE,32,20.0,24.0,89,0.00,,---,0.00,VWS V14.00,2013-03-20 11:15:00,
2013-03-20 06:16:00,68.2,65.2,29.94,NE,42,21.0,24.0,90,0.00,,---,0.00,VWS V14.00,2013-03-20 11:16:00,
2013-03-20 06:17:00,68.2,64.8,29.94,NE,41,22.0,26.0,89,0.00,,---,0.00,VWS V14.00,2013-03-20 11:17:00,
2013-03-20 06:18:00,68.2,64.8,29.94,NE,38,22.0,24.0,89,0.00,,---,0.00,VWS V14.00,2013-03-20 11:18:00,
2013-03-20 06:19:00,68.2,64.8,29.94,NE,41,23.0,23.0,89,0.00,,---,0.00,VWS V14.00,2013-03-20 11:19:00,
2013-03-20 06:20:00,68.2,64.8,29.95,NE,41,21.0,21.0,89,0.00,,---,0.00,VWS V14.00,2013-03-20 11:20:00,
2013-03-20 06:21:00,68.2,64.8,29.95,NE,48,20.0,22.0,89,0.00,,---,0.00,VWS V14.00,2013-03-20 11:21:00,
2013-03-20 06:22:00,68.2,64.8,29.95,NE,41,20.0,27.0,89,0.00,,---,0.00,VWS V14.00,2013-03-20 11:22:00,
2013-03-20 06:23:00,68.2,64.8,29.95,NE,39,19.0,22.0,89,0.00,,---,0.00,VWS V14.00,2013-03-20 11:23:00,
2013-03-20 06:24:00,68.3,64.9,29.95,NE,42,22.0,24.0,89,0.00,,---,0.00,VWS V14.00,2013-03-20 11:24:00,
2013-03-20 06:25:00,68.2,64.8,29.95,NE,41,20.0,26.0,89,0.00,,---,0.00,VWS V14.00,2013-03-20 11:25:00,
2013-03-20 06:26:00,68.2,64.8,29.95,NE,42,23.0,26.0,89,0.00,,---,0.00,VWS V14.00,2013-03-20 11:26:00,
2013-03-20 06:27:00,68.2,64.8,29.95,NE,40,24.0,26.0,89,0.00,,---,0.00,VWS V14.00,2013-03-20 11:27:00,
2013-03-20 06:28:00,68.2,64.8,29.95,NE,34,19.0,26.0,89,0.00,,---,0.00,VWS V14.00,2013-03-20 11:28:00,
2013-03-20 06:29:00,68.3,64.6,29.95,NE,46,23.0,24.0,88,0.00,,---,0.00,VWS V14.00,2013-03-20 11:29:00,
2013-03-20 06:30:00,68.3,64.6,29.96,NE,34,23.0,25.0,88,0.00,,---,0.00,VWS V14.00,2013-03-20 11:30:00,
2013-03-20 06:31:00,68.3,64.6,29.96,NE,39,23.0,29.0,88,0.00,,---,0.00,VWS V14.00,2013-03-20 11:31:00,
2013-03-20 06:32:00,68.3,64.6,29.96,NE,35,17.0,24.0,88,0.00,,---,0.00,VWS V14.00,2013-03-20 11:32:00,
2013-03-20 06:33:00,68.3,64.6,29.96,NE,35,19.0,26.0,88,0.00,,---,0.00,VWS V14.00,2013-03-20 11:33:00,
2013-03-20 06:34:00,68.3,64.6,29.96,NE,39,27.0,29.0,88,0.00,,---,0.00,VWS V14.00,2013-03-20 11:34:00,
2013-03-20 06:35:00,67.4,62.7,29.96,NE,36,31.0,31.0,85,0.00,,---,0.00,VWS V14.00,2013-03-20 11:35:00,
2013-03-20 06:36:00,67.9,63.6,29.96,NNE,15,21.0,33.0,86,0.00,,---,0.00,VWS V14.00,2013-03-20 11:36:00,
2013-03-20 06:37:00,67.6,63.3,29.96,NNE,23,27.0,30.0,86,0.00,,---,0.00,VWS V14.00,2013-03-20 11:37:00,
2013-03-20 06:38:00,67.3,62.6,29.96,NNE,26,26.0,31.0,85,0.00,,---,0.00,VWS V14.00,2013-03-20 11:38:00,
2013-03-20 06:39:00,67.0,62.7,29.96,NNE,32,30.0,36.0,86,0.00,,---,0.00,VWS V14.00,2013-03-20 11:39:00,
2013-03-20 06:40:00,66.2,61.6,29.97,NNE,31,29.0,33.0,85,0.00,,---,0.00,VWS V14.00,2013-03-20 11:40:00,
2013-03-20 06:41:00,66.5,61.9,29.96,NNE,24,28.0,31.0,85,0.00,,---,0.00,VWS V14.00,2013-03-20 11:41:00,
2013-03-20 06:42:00,66.4,61.8,29.97,NNE,32,30.0,37.0,85,0.00,,---,0.00,VWS V14.00,2013-03-20 11:42:00,
2013-03-20 06:43:00,66.1,61.5,29.97,NNE,13,22.0,33.0,85,0.00,,---,0.00,VWS V14.00,2013-03-20 11:43:00,
2013-03-20 06:44:00,66.0,61.4,29.97,NNE,32,26.0,27.0,85,0.00,,---,0.00,VWS V14.00,2013-03-20 11:44:00,
2013-03-20 06:45:00,65.5,60.9,29.97,NE,39,27.0,29.0,85,0.00,,---,0.00,VWS V14.00,2013-03-20 11:45:00,
2013-03-20 06:46:00,65.7,61.1,29.97,NNE,32,21.0,29.0,85,0.00,,---,0.00,VWS V14.00,2013-03-20 11:46:00,
2013-03-20 06:47:00,65.6,61.0,29.97,NE,43,25.0,31.0,85,0.00,,---,0.00,VWS V14.00,2013-03-20 11:47:00,
2013-03-20 06:48:00,65.5,60.9,29.97,NNE,28,27.0,31.0,85,0.00,,---,0.00,VWS V14.00,2013-03-20 11:48:00,
2013-03-20 06:49:00,65.3,60.3,29.98,NE,34,30.0,31.0,84,0.00,,---,0.00,VWS V14.00,2013-03-20 11:49:00,
2013-03-20 06:50:00,65.1,60.2,29.98,NE,53,31.0,31.0,84,0.00,,---,0.00,VWS V14.00,2013-03-20 11:50:00,
2013-03-20 06:51:00,65.2,60.2,29.98,NE,46,24.0,27.0,84,0.00,,---,0.00,VWS V14.00,2013-03-20 11:51:00,
2013-03-20 06:52:00,65.1,60.2,29.98,NE,40,19.0,27.0,84,0.00,,---,0.00,VWS V14.00,2013-03-20 11:52:00,
2013-03-20 06:53:00,65.0,60.0,29.98,NE,38,21.0,31.0,84,0.00,,---,0.00,VWS V14.00,2013-03-20 11:53:00,
2013-03-20 06:54:00,64.9,60.0,29.98,NE,38,19.0,29.0,84,0.00,,---,0.00,VWS V14.00,2013-03-20 11:54:00,
2013-03-20 06:55:00,64.7,59.1,29.98,NNE,30,22.0,23.0,82,0.00,,---,0.00,VWS V14.00,2013-03-20 11:55:00,
2013-03-20 06:56:00,64.7,59.4,29.98,NE,39,23.0,32.0,83,0.00,,---,0.00,VWS V14.00,2013-03-20 11:56:00,
2013-03-20 06:57:00,64.6,59.0,29.98,NNE,32,18.0,28.0,82,0.00,,---,0.00,VWS V14.00,2013-03-20 11:57:00,
2013-03-20 06:58:00,64.7,59.1,29.98,NE,40,22.0,23.0,82,0.00,,---,0.00,VWS V14.00,2013-03-20 11:58:00,
2013-03-20 06:59:00,64.6,59.0,29.98,NE,37,22.0,26.0,82,0.00,,---,0.00,VWS V14.00,2013-03-20 11:59:00,
2013-03-20 07:00:00,64.3,58.3,29.98,NE,40,24.0,27.0,81,0.00,,---,0.00,VWS V14.00,2013-03-20 12:00:00,
2013-03-20 07:01:00,64.4,58.5,29.98,NE,43,25.0,30.0,81,0.00,,---,0.00,VWS V14.00,2013-03-20 12:01:00,
2013-03-20 07:02:00,64.3,58.3,29.98,NE,45,24.0,28.0,81,0.00,,---,0.00,VWS V14.00,2013-03-20 12:02:00,
2013-03-20 07:03:00,64.3,58.0,29.98,NE,46,24.0,27.0,80,0.00,,---,0.00,VWS V14.00,2013-03-20 12:03:00,
2013-03-20 07:04:00,64.2,57.9,29.98,NE,46,23.0,30.0,80,0.00,,---,0.00,VWS V14.00,2013-03-20 12:04:00,
2013-03-20 07:05:00,64.0,57.4,29.99,NE,44,22.0,27.0,79,0.00,,---,0.00,VWS V14.00,2013-03-20 12:05:00,
2013-03-20 07:06:00,64.0,57.7,29.99,NE,40,28.0,28.0,80,0.00,,---,0.00,VWS V14.00,2013-03-20 12:06:00,
2013-03-20 07:07:00,64.0,57.7,29.99,NE,40,26.0,32.0,80,0.00,,---,0.00,VWS V14.00,2013-03-20 12:07:00,
2013-03-20 07:08:00,64.0,57.4,29.99,NE,44,33.0,33.0,79,0.00,,---,0.00,VWS V14.00,2013-03-20 12:08:00,
2013-03-20 07:09:00,64.0,57.4,29.99,NE,36,20.0,30.0,79,0.00,,---,0.00,VWS V14.00,2013-03-20 12:09:00,
2013-03-20 07:10:00,63.7,56.4,29.99,NE,35,31.0,35.0,77,0.00,,---,0.00,VWS V14.00,2013-03-20 12:10:00,
2013-03-20 07:11:00,63.9,57.3,29.99,NE,35,25.0,30.0,79,0.00,,---,0.00,VWS V14.00,2013-03-20 12:11:00,
2013-03-20 07:12:00,63.8,56.8,29.99,NNE,31,32.0,34.0,78,0.00,,---,0.00,VWS V14.00,2013-03-20 12:12:00,
2013-03-20 07:13:00,63.6,56.3,29.99,NE,36,33.0,36.0,77,0.00,,---,0.00,VWS V14.00,2013-03-20 12:13:00,
2013-03-20 07:14:00,63.5,55.8,29.99,NE,37,29.0,34.0,76,0.00,,---,0.00,VWS V14.00,2013-03-20 12:14:00,
2013-03-20 07:15:00,63.4,55.3,29.99,NNE,29,23.0,32.0,75,0.00,,---,0.00,VWS V14.00,2013-03-20 12:15:00,
2013-03-20 07:16:00,63.4,55.7,29.99,NE,34,29.0,31.0,76,0.00,,---,0.00,VWS V14.00,2013-03-20 12:16:00,
2013-03-20 07:17:00,63.4,55.3,29.99,NE,45,27.0,32.0,75,0.00,,---,0.00,VWS V14.00,2013-03-20 12:17:00,
2013-03-20 07:18:00,63.4,55.3,29.99,NNE,29,23.0,32.0,75,0.00,,---,0.00,VWS V14.00,2013-03-20 12:18:00,
2013-03-20 07:19:00,63.4,55.3,30.00,NE,44,27.0,29.0,75,0.00,,---,0.00,VWS V14.00,2013-03-20 12:19:00,
2013-03-20 07:20:00,63.2,54.8,30.00,NE,43,32.0,35.0,74,0.00,,---,0.00,VWS V14.00,2013-03-20 12:20:00,
2013-03-20 07:21:00,63.3,55.2,30.00,NE,38,24.0,29.0,75,0.00,,---,0.00,VWS V14.00,2013-03-20 12:21:00,
2013-03-20 07:22:00,63.3,54.9,30.00,NNE,27,26.0,26.0,74,0.00,,---,0.00,VWS V14.00,2013-03-20 12:22:00,
2013-03-20 07:23:00,63.2,54.8,30.00,NE,43,30.0,35.0,74,0.00,,---,0.00,VWS V14.00,2013-03-20 12:23:00,
2013-03-20 07:24:00,63.2,54.4,29.99,ENE,58,28.0,35.0,73,0.00,,---,0.00,VWS V14.00,2013-03-20 12:24:00,
2013-03-20 07:25:00,63.1,53.9,30.00,NE,48,29.0,29.0,72,0.00,,---,0.00,VWS V14.00,2013-03-20 12:25:00,
2013-03-20 07:27:00,63.1,53.9,29.99,NE,43,27.0,32.0,72,0.00,,---,0.00,VWS V14.00,2013-03-20 12:27:00,
2013-03-20 07:28:00,63.2,54.0,30.00,NE,38,23.0,29.0,72,0.00,,---,0.00,VWS V14.00,2013-03-20 12:28:00,
2013-03-20 07:30:00,63.1,53.6,30.00,NE,40,32.0,32.0,71,0.00,,---,0.00,VWS V14.00,2013-03-20 12:30:00,
2013-03-20 07:31:00,63.1,53.9,30.00,NE,36,24.0,30.0,72,0.00,,---,0.00,VWS V14.00,2013-03-20 12:31:00,
2013-03-20 07:32:00,63.1,53.9,30.00,NE,37,23.0,32.0,72,0.00,,---,0.00,VWS V14.00,2013-03-20 12:32:00,
2013-03-20 07:34:00,63.1,53.6,30.00,NE,46,28.0,30.0,71,0.00,,---,0.00,VWS V14.00,2013-03-20 12:34:00,
2013-03-20 07:35:00,63.1,53.2,30.00,NE,42,24.0,31.0,70,0.00,,---,0.00,VWS V14.00,2013-03-20 12:35:00,
2013-03-20 07:37:00,63.1,53.6,30.00,NE,39,25.0,30.0,71,0.00,,---,0.00,VWS V14.00,2013-03-20 12:37:00,
2013-03-20 07:38:00,63.1,53.2,30.00,NNE,32,28.0,31.0,70,0.00,,---,0.00,VWS V14.00,2013-03-20 12:38:00,
2013-03-20 07:39:00,63.1,53.2,30.00,NE,45,26.0,28.0,70,0.00,,---,0.00,VWS V14.00,2013-03-20 12:39:00,
2013-03-20 07:40:00,63.1,52.4,30.01,NE,38,22.0,31.0,68,0.00,,---,0.00,VWS V14.00,2013-03-20 12:40:00,
2013-03-20 07:41:00,63.1,52.8,30.01,NE,44,27.0,33.0,69,0.00,,---,0.00,VWS V14.00,2013-03-20 12:41:00,
2013-03-20 07:42:00,63.1,52.8,30.01,NE,46,30.0,34.0,69,0.00,,---,0.00,VWS V14.00,2013-03-20 12:42:00,
2013-03-20 07:43:00,63.1,52.4,30.01,NE,38,29.0,35.0,68,0.00,,---,0.00,VWS V14.00,2013-03-20 12:43:00,
2013-03-20 07:45:00,63.1,52.4,30.01,NE,47,21.0,29.0,68,0.00,,---,0.00,VWS V14.00,2013-03-20 12:45:00,
2013-03-20 07:46:00,63.1,52.4,30.01,NE,45,27.0,28.0,68,0.00,,---,0.00,VWS V14.00,2013-03-20 12:46:00,
2013-03-20 07:47:00,63.1,52.4,30.01,NE,51,29.0,31.0,68,0.00,,---,0.00,VWS V14.00,2013-03-20 12:47:00,
2013-03-20 07:49:00,63.1,52.4,30.01,NE,49,20.0,27.0,68,0.00,,---,0.00,VWS V14.00,2013-03-20 12:49:00,
2013-03-20 07:50:00,63.1,52.0,30.01,NE,44,28.0,31.0,67,0.00,,---,0.00,VWS V14.00,2013-03-20 12:50:00,
2013-03-20 07:51:00,63.1,52.0,30.01,NE,51,27.0,28.0,67,0.00,,---,0.00,VWS V14.00,2013-03-20 12:51:00,
2013-03-20 07:53:00,63.1,52.0,30.01,NE,45,18.0,31.0,67,0.00,,---,0.00,VWS V14.00,2013-03-20 12:53:00,
2013-03-20 07:54:00,63.1,52.0,30.01,NE,46,19.0,28.0,67,0.00,,---,0.00,VWS V14.00,2013-03-20 12:54:00,
2013-03-20 07:55:00,63.2,51.7,30.01,NE,47,23.0,26.0,66,0.00,,---,0.00,VWS V14.00,2013-03-20 12:55:00,
2013-03-20 07:56:00,63.2,51.7,30.01,NE,49,27.0,34.0,66,0.00,,---,0.00,VWS V14.00,2013-03-20 12:56:00,
2013-03-20 07:57:00,63.2,51.7,30.01,NE,48,26.0,31.0,66,0.00,,---,0.00,VWS V14.00,2013-03-20 12:57:00,
2013-03-20 07:58:00,63.3,51.8,30.01,NE,48,27.0,30.0,66,0.00,,---,0.00,VWS V14.00,2013-03-20 12:58:00,
2013-03-20 07:59:00,63.3,51.8,30.01,NE,51,26.0,27.0,66,0.00,,---,0.00,VWS V14.00,2013-03-20 12:59:00,
2013-03-20 08:00:00,63.4,51.9,30.01,NE,47,22.0,27.0,66,0.00,,---,0.00,VWS V14.00,2013-03-20 13:00:00,
2013-03-20 08:01:00,63.3,51.8,30.01,NE,38,20.0,26.0,66,0.00,,---,0.00,VWS V14.00,2013-03-20 13:01:00,
2013-03-20 08:02:00,63.3,51.8,30.01,NE,53,27.0,28.0,66,0.00,,---,0.00,VWS V14.00,2013-03-20 13:02:00,
2013-03-20 08:03:00,63.4,51.4,30.01,NE,45,22.0,27.0,65,0.00,,---,0.00,VWS V14.00,2013-03-20 13:03:00,
2013-03-20 08:04:00,63.4,51.9,30.01,NE,50,28.0,28.0,66,0.00,,---,0.00,VWS V14.00,2013-03-20 13:04:00,
2013-03-20 08:05:00,63.5,51.5,30.01,NE,50,21.0,25.0,65,0.00,,---,0.00,VWS V14.00,2013-03-20 13:05:00,
2013-03-20 08:06:00,63.5,51.5,30.01,NE,49,29.0,32.0,65,0.00,,---,0.00,VWS V14.00,2013-03-20 13:06:00,
2013-03-20 08:07:00,63.4,51.4,30.01,NE,38,22.0,29.0,65,0.00,,---,0.00,VWS V14.00,2013-03-20 13:07:00,
2013-03-20 08:08:00,63.5,51.5,30.01,NE,52,21.0,25.0,65,0.00,,---,0.00,VWS V14.00,2013-03-20 13:08:00,
2013-03-20 08:09:00,63.5,51.5,30.01,NE,43,21.0,22.0,65,0.00,,---,0.00,VWS V14.00,2013-03-20 13:09:00,
2013-03-20 08:10:00,63.5,51.1,30.02,NE,42,25.0,27.0,64,0.00,,---,0.00,VWS V14.00,2013-03-20 13:10:00,
2013-03-20 08:11:00,63.5,51.5,30.01,NE,40,22.0,28.0,65,0.00,,---,0.00,VWS V14.00,2013-03-20 13:11:00,
2013-03-20 08:12:00,63.5,51.1,30.01,NE,51,27.0,31.0,64,0.00,,---,0.00,VWS V14.00,2013-03-20 13:12:00,
2013-03-20 08:13:00,63.6,51.2,30.02,NE,49,20.0,27.0,64,0.00,,---,0.00,VWS V14.00,2013-03-20 13:13:00,
2013-03-20 08:14:00,63.6,51.2,30.02,NE,44,25.0,28.0,64,0.00,,---,0.00,VWS V14.00,2013-03-20 13:14:00,
2013-03-20 08:15:00,63.7,51.3,30.02,NE,43,19.0,22.0,64,0.00,,---,0.00,VWS V14.00,2013-03-20 13:15:00,
2013-03-20 08:16:00,63.7,51.3,30.02,NE,50,18.0,23.0,64,0.00,,---,0.00,VWS V14.00,2013-03-20 13:16:00,
2013-03-20 08:17:00,63.7,51.3,30.02,NE,53,20.0,25.0,64,0.00,,---,0.00,VWS V14.00,2013-03-20 13:17:00,
2013-03-20 08:18:00,63.7,51.3,30.02,NE,40,25.0,26.0,64,0.00,,---,0.00,VWS V14.00,2013-03-20 13:18:00,
2013-03-20 08:19:00,63.8,51.0,30.02,NE,40,22.0,26.0,63,0.00,,---,0.00,VWS V14.00,2013-03-20 13:19:00,
2013-03-20 08:20:00,63.8,50.5,30.02,NE,38,28.0,29.0,62,0.00,,---,0.00,VWS V14.00,2013-03-20 13:20:00,
2013-03-20 08:21:00,63.8,51.0,30.02,NE,53,22.0,29.0,63,0.00,,---,0.00,VWS V14.00,2013-03-20 13:21:00,
2013-03-20 08:22:00,63.8,51.0,30.02,NE,51,24.0,28.0,63,0.00,,---,0.00,VWS V14.00,2013-03-20 13:22:00,
2013-03-20 08:23:00,63.8,50.5,30.02,ENE,59,28.0,29.0,62,0.00,,---,0.00,VWS V14.00,2013-03-20 13:23:00,
2013-03-20 08:24:00,63.8,50.5,30.02,NE,42,21.0,28.0,62,0.00,,---,0.00,VWS V14.00,2013-03-20 13:24:00,
2013-03-20 08:25:00,63.8,51.0,30.02,NE,38,27.0,29.0,63,0.00,,---,0.00,VWS V14.00,2013-03-20 13:25:00,
2013-03-20 08:26:00,63.8,51.0,30.02,NE,53,26.0,29.0,63,0.00,,---,0.00,VWS V14.00,2013-03-20 13:26:00,
2013-03-20 08:27:00,63.8,51.0,30.02,NE,42,22.0,27.0,63,0.00,,---,0.00,VWS V14.00,2013-03-20 13:27:00,
2013-03-20 08:28:00,63.8,50.5,30.02,NE,51,22.0,29.0,62,0.00,,---,0.00,VWS V14.00,2013-03-20 13:28:00,
2013-03-20 08:29:00,63.9,51.1,30.02,NE,44,21.0,26.0,63,0.00,,---,0.00,VWS V14.00,2013-03-20 13:29:00,
2013-03-20 08:30:00,64.0,50.7,30.02,NE,51,20.0,24.0,62,0.00,,---,0.00,VWS V14.00,2013-03-20 13:30:00,
2013-03-20 08:31:00,63.9,50.6,30.02,NE,49,31.0,31.0,62,0.00,,---,0.00,VWS V14.00,2013-03-20 13:31:00,
2013-03-20 08:32:00,64.0,50.7,30.02,NE,48,22.0,31.0,62,0.00,,---,0.00,VWS V14.00,2013-03-20 13:32:00,
2013-03-20 08:33:00,64.0,50.7,30.02,NE,39,26.0,30.0,62,0.00,,---,0.00,VWS V14.00,2013-03-20 13:33:00,
2013-03-20 08:34:00,64.1,50.8,30.02,NE,55,23.0,31.0,62,0.00,,---,0.00,VWS V14.00,2013-03-20 13:34:00,
2013-03-20 08:35:00,64.5,51.2,30.03,NE,56,21.0,27.0,62,0.00,,---,0.00,VWS V14.00,2013-03-20 13:35:00,
2013-03-20 08:36:00,64.3,51.0,30.03,ENE,59,21.0,28.0,62,0.00,,---,0.00,VWS V14.00,2013-03-20 13:36:00,
2013-03-20 08:37:00,64.4,51.1,30.03,NE,51,27.0,29.0,62,0.00,,---,0.00,VWS V14.00,2013-03-20 13:37:00,
2013-03-20 08:38:00,64.5,51.2,30.03,NE,42,23.0,27.0,62,0.00,,---,0.00,VWS V14.00,2013-03-20 13:38:00,
2013-03-20 08:39:00,64.6,51.3,30.03,NE,49,24.0,27.0,62,0.00,,---,0.00,VWS V14.00,2013-03-20 13:39:00,
2013-03-20 08:40:00,65.0,51.2,30.02,ENE,58,19.0,27.0,61,0.00,,---,0.00,VWS V14.00,2013-03-20 13:40:00,
2013-03-20 08:41:00,64.8,51.0,30.02,NE,53,22.0,28.0,61,0.00,,---,0.00,VWS V14.00,2013-03-20 13:41:00,
2013-03-20 08:42:00,64.9,51.2,30.02,ENE,59,20.0,24.0,61,0.00,,---,0.00,VWS V14.00,2013-03-20 13:42:00,
2013-03-20 08:43:00,65.1,51.3,30.02,ENE,68,23.0,27.0,61,0.00,,---,0.00,VWS V14.00,2013-03-20 13:43:00,
2013-03-20 08:44:00,65.2,51.4,30.02,ENE,65,24.0,25.0,61,0.00,,---,0.00,VWS V14.00,2013-03-20 13:44:00,
2013-03-20 08:45:00,65.3,51.1,30.02,NE,49,28.0,31.0,60,0.00,,---,0.00,VWS V14.00,2013-03-20 13:45:00,
2013-03-20 08:46:00,65.3,51.5,30.02,ENE,60,23.0,29.0,61,0.00,,---,0.00,VWS V14.00,2013-03-20 13:46:00,
2013-03-20 08:47:00,65.3,51.1,30.02,NE,45,28.0,30.0,60,0.00,,---,0.00,VWS V14.00,2013-03-20 13:47:00,
2013-03-20 08:48:00,65.3,51.1,30.02,NE,53,29.0,31.0,60,0.00,,---,0.00,VWS V14.00,2013-03-20 13:48:00,
2013-03-20 08:49:00,65.3,51.1,30.02,ENE,59,26.0,29.0,60,0.00,,---,0.00,VWS V14.00,2013-03-20 13:49:00,
2013-03-20 08:50:00,65.2,51.0,30.03,NE,56,29.0,30.0,60,0.00,,---,0.00,VWS V14.00,2013-03-20 13:50:00,
2013-03-20 08:51:00,65.2,51.0,30.02,NE,55,21.0,29.0,60,0.00,,---,0.00,VWS V14.00,2013-03-20 13:51:00,
2013-03-20 08:52:00,65.2,51.4,30.02,ENE,61,22.0,30.0,61,0.00,,---,0.00,VWS V14.00,2013-03-20 13:52:00,
2013-03-20 08:53:00,65.2,51.0,30.03,NE,45,22.0,30.0,60,0.00,,---,0.00,VWS V14.00,2013-03-20 13:53:00,
2013-03-20 08:54:00,65.3,51.1,30.03,NE,47,26.0,29.0,60,0.00,,---,0.00,VWS V14.00,2013-03-20 13:54:00,
2013-03-20 08:55:00,65.5,51.7,30.02,NE,54,27.0,27.0,61,0.00,,---,0.00,VWS V14.00,2013-03-20 13:55:00,
2013-03-20 08:56:00,65.3,51.1,30.03,NE,53,23.0,28.0,60,0.00,,---,0.00,VWS V14.00,2013-03-20 13:56:00,
2013-03-20 08:57:00,65.4,51.2,30.03,NE,56,17.0,30.0,60,0.00,,---,0.00,VWS V14.00,2013-03-20 13:57:00,
2013-03-20 08:58:00,65.5,51.7,30.02,NE,51,26.0,28.0,61,0.00,,---,0.00,VWS V14.00,2013-03-20 13:58:00,
2013-03-20 08:59:00,65.7,51.5,30.02,NE,56,23.0,28.0,60,0.00,,---,0.00,VWS V14.00,2013-03-20 13:59:00,
2013-03-20 09:00:00,65.9,51.6,30.03,NE,49,28.0,30.0,60,0.00,,---,0.00,VWS V14.00,2013-03-20 14:00:00,
2013-03-20 09:01:00,65.9,51.6,30.02,NE,55,30.0,31.0,60,0.00,,---,0.00,VWS V14.00,2013-03-20 14:01:00,
2013-03-20 09:02:00,65.9,51.6,30.03,NE,54,28.0,32.0,60,0.00,,---,0.00,VWS V14.00,2013-03-20 14:02:00,
2013-03-20 09:03:00,66.0,51.7,30.03,ENE,58,22.0,30.0,60,0.00,,---,0.00,VWS V14.00,2013-03-20 14:03:00,
2013-03-20 09:04:00,66.0,51.7,30.03,NE,54,22.0,28.0,60,0.00,,---,0.00,VWS V14.00,2013-03-20 14:04:00,
2013-03-20 09:05:00,66.0,51.7,30.04,NE,53,26.0,28.0,60,0.00,,---,0.00,VWS V14.00,2013-03-20 14:05:00,
2013-03-20 09:06:00,66.0,51.3,30.03,NE,55,23.0,31.0,59,0.00,,---,0.00,VWS V14.00,2013-03-20 14:06:00,
2013-03-20 09:07:00,66.0,51.7,30.03,NE,50,22.0,28.0,60,0.00,,---,0.00,VWS V14.00,2013-03-20 14:07:00,
2013-03-20 09:08:00,66.0,51.3,30.04,NE,53,29.0,30.0,59,0.00,,---,0.00,VWS V14.00,2013-03-20 14:08:00,
2013-03-20 09:09:00,66.0,51.3,30.04,NE,51,27.0,30.0,59,0.00,,---,0.00,VWS V14.00,2013-03-20 14:09:00,
2013-03-20 09:10:00,66.2,51.5,30.04,NE,49,27.0,32.0,59,0.00,,---,0.00,VWS V14.00,2013-03-20 14:10:00,
2013-03-20 09:11:00,66.1,51.4,30.04,NE,49,23.0,30.0,59,0.00,,---,0.00,VWS V14.00,2013-03-20 14:11:00,
2013-03-20 09:12:00,66.1,51.4,30.04,NE,53,28.0,31.0,59,0.00,,---,0.00,VWS V14.00,2013-03-20 14:12:00,
2013-03-20 09:13:00,66.2,51.5,30.04,NE,44,23.0,32.0,59,0.00,,---,0.00,VWS V14.00,2013-03-20 14:13:00,
2013-03-20 09:14:00,66.2,51.5,30.04,NE,56,24.0,30.0,59,0.00,,---,0.00,VWS V14.00,2013-03-20 14:14:00,
2013-03-20 09:15:00,66.4,51.7,30.04,NE,55,22.0,27.0,59,0.00,,---,0.00,VWS V14.00,2013-03-20 14:15:00,
2013-03-20 09:16:00,66.3,51.6,30.04,NE,56,26.0,30.0,59,0.00,,---,0.00,VWS V14.00,2013-03-20 14:16:00,
2013-03-20 09:17:00,66.3,51.6,30.04,ENE,61,25.0,29.0,59,0.00,,---,0.00,VWS V14.00,2013-03-20 14:17:00,
2013-03-20 09:18:00,66.5,52.2,30.04,NE,56,27.0,27.0,60,0.00,,---,0.00,VWS V14.00,2013-03-20 14:18:00,
2013-03-20 09:19:00,66.6,51.8,30.04,ENE,63,28.0,32.0,59,0.00,,---,0.00,VWS V14.00,2013-03-20 14:19:00,
2013-03-20 09:20:00,67.0,52.2,30.05,NE,54,29.0,31.0,59,0.00,,---,0.00,VWS V14.00,2013-03-20 14:20:00,
2013-03-20 09:21:00,66.8,52.0,30.04,ENE,63,31.0,32.0,59,0.00,,---,0.00,VWS V14.00,2013-03-20 14:21:00,
2013-03-20 09:22:00,66.9,52.1,30.04,ENE,61,25.0,31.0,59,0.00,,---,0.00,VWS V14.00,2013-03-20 14:22:00,
2013-03-20 09:23:00,67.0,52.2,30.05,ENE,57,30.0,31.0,59,0.00,,---,0.00,VWS V14.00,2013-03-20 14:23:00,
2013-03-20 09:24:00,67.1,52.3,30.05,ENE,64,22.0,31.0,59,0.00,,---,0.00,VWS V14.00,2013-03-20 14:24:00,
2013-03-20 09:25:00,67.6,52.3,30.05,ENE,61,25.0,28.0,58,0.00,,---,0.00,VWS V14.00,2013-03-20 14:25:00,
2013-03-20 09:26:00,67.4,52.1,30.05,NE,55,22.0,30.0,58,0.00,,---,0.00,VWS V14.00,2013-03-20 14:26:00,
2013-03-20 09:27:00,67.6,52.3,30.05,ENE,59,28.0,29.0,58,0.00,,---,0.00,VWS V14.00,2013-03-20 14:27:00,
2013-03-20 09:28:00,67.6,52.3,30.05,ENE,57,26.0,28.0,58,0.00,,---,0.00,VWS V14.00,2013-03-20 14:28:00,
2013-03-20 09:29:00,67.6,52.3,30.05,ENE,57,26.0,29.0,58,0.00,,---,0.00,VWS V14.00,2013-03-20 14:29:00,
2013-03-20 09:30:00,68.1,52.8,30.05,ENE,60,25.0,29.0,58,0.00,,---,0.00,VWS V14.00,2013-03-20 14:30:00,
2013-03-20 09:31:00,67.9,52.6,30.05,ENE,63,31.0,31.0,58,0.00,,---,0.00,VWS V14.00,2013-03-20 14:31:00,
2013-03-20 09:32:00,68.0,52.7,30.05,NE,52,29.0,31.0,58,0.00,,---,0.00,VWS V14.00,2013-03-20 14:32:00,
2013-03-20 09:33:00,68.1,52.8,30.05,NE,51,24.0,29.0,58,0.00,,---,0.00,VWS V14.00,2013-03-20 14:33:00,
2013-03-20 09:34:00,68.2,52.4,30.05,NE,51,26.0,29.0,57,0.00,,---,0.00,VWS V14.00,2013-03-20 14:34:00,
2013-03-20 09:35:00,68.4,53.1,30.05,ENE,64,21.0,25.0,58,0.00,,---,0.00,VWS V14.00,2013-03-20 14:35:00,
2013-03-20 09:36:00,68.4,53.1,30.05,ENE,59,27.0,30.0,58,0.00,,---,0.00,VWS V14.00,2013-03-20 14:36:00,
2013-03-20 09:37:00,68.4,53.1,30.05,ENE,78,23.0,29.0,58,0.00,,---,0.00,VWS V14.00,2013-03-20 14:37:00,
2013-03-20 09:38:00,68.4,52.6,30.05,ENE,58,23.0,25.0,57,0.00,,---,0.00,VWS V14.00,2013-03-20 14:38:00,
2013-03-20 09:39:00,68.6,53.2,30.05,ENE,70,25.0,30.0,58,0.00,,---,0.00,VWS V14.00,2013-03-20 14:39:00,
2013-03-20 09:40:00,68.7,52.9,30.04,ENE,67,25.0,30.0,57,0.00,,---,0.00,VWS V14.00,2013-03-20 14:40:00,
2013-03-20 09:41:00,68.7,52.9,30.04,ENE,57,29.0,31.0,57,0.00,,---,0.00,VWS V14.00,2013-03-20 14:41:00,
2013-03-20 09:42:00,68.7,52.9,30.04,ENE,60,30.0,30.0,57,0.00,,---,0.00,VWS V14.00,2013-03-20 14:42:00,
2013-03-20 09:43:00,68.7,52.9,30.04,ENE,61,28.0,30.0,57,0.00,,---,0.00,VWS V14.00,2013-03-20 14:43:00,
2013-03-20 09:44:00,68.8,53.0,30.04,NE,56,26.0,31.0,57,0.00,,---,0.00,VWS V14.00,2013-03-20 14:44:00,
2013-03-20 09:45:00,68.7,52.4,30.05,ENE,61,28.0,34.0,56,0.00,,---,0.00,VWS V14.00,2013-03-20 14:45:00,
2013-03-20 09:46:00,68.8,52.5,30.04,ENE,62,30.0,33.0,56,0.00,,---,0.00,VWS V14.00,2013-03-20 14:46:00,
2013-03-20 09:47:00,68.8,52.5,30.04,ENE,61,25.0,32.0,56,0.00,,---,0.00,VWS V14.00,2013-03-20 14:47:00,
2013-03-20 09:48:00,68.7,52.9,30.05,ENE,59,29.0,34.0,57,0.00,,---,0.00,VWS V14.00,2013-03-20 14:48:00,
2013-03-20 09:49:00,68.9,53.1,30.05,NE,54,28.0,30.0,57,0.00,,---,0.00,VWS V14.00,2013-03-20 14:49:00,
2013-03-20 09:50:00,69.2,52.8,30.05,ENE,65,26.0,31.0,56,0.00,,---,0.00,VWS V14.00,2013-03-20 14:50:00,
2013-03-20 09:51:00,69.2,52.8,30.05,ENE,71,24.0,30.0,56,0.00,,---,0.00,VWS V14.00,2013-03-20 14:51:00,
2013-03-20 09:52:00,69.1,52.8,30.05,ENE,65,21.0,30.0,56,0.00,,---,0.00,VWS V14.00,2013-03-20 14:52:00,
2013-03-20 09:53:00,69.2,52.8,30.05,ENE,68,32.0,32.0,56,0.00,,---,0.00,VWS V14.00,2013-03-20 14:53:00,
2013-03-20 09:54:00,69.2,52.8,30.05,ENE,59,27.0,32.0,56,0.00,,---,0.00,VWS V14.00,2013-03-20 14:54:00,
2013-03-20 09:55:00,69.3,53.4,30.06,ENE,67,28.0,31.0,57,0.00,,---,0.00,VWS V14.00,2013-03-20 14:55:00,
2013-03-20 09:56:00,69.1,52.8,30.06,NE,56,23.0,30.0,56,0.00,,---,0.00,VWS V14.00,2013-03-20 14:56:00,
2013-03-20 09:57:00,69.2,53.3,30.06,NE,55,27.0,31.0,57,0.00,,---,0.00,VWS V14.00,2013-03-20 14:57:00,
2013-03-20 09:58:00,69.3,53.4,30.06,ENE,58,22.0,31.0,57,0.00,,---,0.00,VWS V14.00,2013-03-20 14:58:00,
2013-03-20 09:59:00,69.5,53.1,30.06,NE,55,27.0,30.0,56,0.00,,---,0.00,VWS V14.00,2013-03-20 14:59:00,
2013-03-20 10:00:00,69.7,53.3,30.06,ENE,69,20.0,24.0,56,0.00,,---,0.00,VWS V14.00,2013-03-20 15:00:00,
2013-03-20 10:01:00,69.7,53.3,30.06,ENE,65,25.0,32.0,56,0.00,,---,0.00,VWS V14.00,2013-03-20 15:01:00,
2013-03-20 10:02:00,69.7,53.3,30.06,ENE,64,24.0,27.0,56,0.00,,---,0.00,VWS V14.00,2013-03-20 15:02:00,
2013-03-20 10:03:00,69.8,53.4,30.06,ENE,62,31.0,32.0,56,0.00,,---,0.00,VWS V14.00,2013-03-20 15:03:00,
2013-03-20 10:04:00,69.9,53.5,30.06,ENE,67,26.0,31.0,56,0.00,,---,0.00,VWS V14.00,2013-03-20 15:04:00,
2013-03-20 10:05:00,70.2,53.8,30.06,ENE,59,22.0,30.0,56,0.00,,---,0.00,VWS V14.00,2013-03-20 15:05:00,
2013-03-20 10:06:00,69.8,53.4,30.06,ENE,74,21.0,27.0,56,0.00,,---,0.00,VWS V14.00,2013-03-20 15:06:00,
2013-03-20 10:07:00,70.0,53.6,30.06,ENE,57,24.0,27.0,56,0.00,,---,0.00,VWS V14.00,2013-03-20 15:07:00,
2013-03-20 10:08:00,70.4,54.0,30.06,ENE,69,23.0,30.0,56,0.00,,---,0.00,VWS V14.00,2013-03-20 15:08:00,
2013-03-20 10:09:00,70.6,53.7,30.06,ENE,60,29.0,30.0,55,0.00,,---,0.00,VWS V14.00,2013-03-20 15:09:00,
2013-03-20 10:10:00,71.0,53.5,30.06,ENE,77,21.0,29.0,54,0.00,,---,0.00,VWS V14.00,2013-03-20 15:10:00,
2013-03-20 10:11:00,70.8,53.3,30.06,ENE,61,29.0,32.0,54,0.00,,---,0.00,VWS V14.00,2013-03-20 15:11:00,
2013-03-20 10:12:00,71.0,53.5,30.06,ENE,70,27.0,29.0,54,0.00,,---,0.00,VWS V14.00,2013-03-20 15:12:00,
2013-03-20 10:13:00,71.0,53.5,30.06,NE,53,29.0,30.0,54,0.00,,---,0.00,VWS V14.00,2013-03-20 15:13:00,
2013-03-20 10:14:00,71.0,53.5,30.06,ENE,70,19.0,30.0,54,0.00,,---,0.00,VWS V14.00,2013-03-20 15:14:00,
2013-03-20 10:15:00,71.0,53.5,30.06,ENE,66,24.0,29.0,54,0.00,,---,0.00,VWS V14.00,2013-03-20 15:15:00,
2013-03-20 10:16:00,71.1,53.6,30.06,ENE,72,24.0,29.0,54,0.00,,---,0.00,VWS V14.00,2013-03-20 15:16:00,
2013-03-20 10:17:00,71.0,53.5,30.06,ENE,57,29.0,30.0,54,0.00,,---,0.00,VWS V14.00,2013-03-20 15:17:00,
2013-03-20 10:18:00,70.9,53.4,30.06,ENE,62,25.0,29.0,54,0.00,,---,0.00,VWS V14.00,2013-03-20 15:18:00,
2013-03-20 10:19:00,70.8,53.3,30.06,ENE,72,20.0,29.0,54,0.00,,---,0.00,VWS V14.00,2013-03-20 15:19:00,
2013-03-20 10:20:00,71.3,53.8,30.06,ENE,77,21.0,28.0,54,0.00,,---,0.00,VWS V14.00,2013-03-20 15:20:00,
2013-03-20 10:21:00,71.1,53.6,30.06,ENE,60,20.0,29.0,54,0.00,,---,0.00,VWS V14.00,2013-03-20 15:21:00,
2013-03-20 10:22:00,71.2,53.7,30.06,ENE,72,28.0,28.0,54,0.00,,---,0.00,VWS V14.00,2013-03-20 15:22:00,
2013-03-20 10:23:00,71.5,54.0,30.06,ENE,69,24.0,28.0,54,0.00,,---,0.00,VWS V14.00,2013-03-20 15:23:00,
2013-03-20 10:24:00,71.7,53.7,30.06,ENE,72,28.0,28.0,53,0.00,,---,0.00,VWS V14.00,2013-03-20 15:24:00,
2013-03-20 10:25:00,72.0,54.0,30.07,NE,49,20.0,25.0,53,0.00,,---,0.00,VWS V14.00,2013-03-20 15:25:00,
2013-03-20 10:26:00,71.7,53.7,30.06,NE,52,21.0,28.0,53,0.00,,---,0.00,VWS V14.00,2013-03-20 15:26:00,
2013-03-20 10:27:00,71.9,53.9,30.07,ENE,67,20.0,29.0,53,0.00,,---,0.00,VWS V14.00,2013-03-20 15:27:00,
2013-03-20 10:28:00,72.1,53.5,30.07,ENE,67,23.0,28.0,52,0.00,,---,0.00,VWS V14.00,2013-03-20 15:28:00,
2013-03-20 10:29:00,72.1,54.0,30.07,ENE,75,23.0,26.0,53,0.00,,---,0.00,VWS V14.00,2013-03-20 15:29:00,
2013-03-20 10:30:00,72.1,54.0,30.07,NE,56,20.0,21.0,53,0.00,,---,0.00,VWS V14.00,2013-03-20 15:30:00,
2013-03-20 10:31:00,72.1,53.5,30.07,ENE,76,20.0,24.0,52,0.00,,---,0.00,VWS V14.00,2013-03-20 15:31:00,
2013-03-20 10:32:00,72.0,53.4,30.06,ENE,67,17.0,23.0,52,0.00,,---,0.00,VWS V14.00,2013-03-20 15:32:00,
2013-03-20 10:33:00,72.2,54.1,30.07,ENE,69,21.0,22.0,53,0.00,,---,0.00,VWS V14.00,2013-03-20 15:33:00,
2013-03-20 10:34:00,72.4,54.3,30.07,ENE,78,20.0,21.0,53,0.00,,---,0.00,VWS V14.00,2013-03-20 15:34:00,
2013-03-20 10:35:00,73.2,54.5,30.07,ENE,69,18.0,22.0,52,0.00,,---,0.00,VWS V14.00,2013-03-20 15:35:00,
2013-03-20 10:36:00,73.0,54.3,30.07,East,79,21.0,21.0,52,0.00,,---,0.00,VWS V14.00,2013-03-20 15:36:00,
2013-03-20 10:37:00,73.2,54.5,30.07,NE,55,16.0,23.0,52,0.00,,---,0.00,VWS V14.00,2013-03-20 15:37:00,
2013-03-20 10:38:00,73.2,54.5,30.07,ENE,67,18.0,22.0,52,0.00,,---,0.00,VWS V14.00,2013-03-20 15:38:00,
2013-03-20 10:39:00,73.2,54.5,30.07,ENE,57,20.0,24.0,52,0.00,,---,0.00,VWS V14.00,2013-03-20 15:39:00,
2013-03-20 10:40:00,72.9,53.7,30.07,ENE,69,25.0,27.0,51,0.00,,---,0.00,VWS V14.00,2013-03-20 15:40:00,
2013-03-20 10:41:00,73.0,54.3,30.07,ENE,75,22.0,22.0,52,0.00,,---,0.00,VWS V14.00,2013-03-20 15:41:00,
2013-03-20 10:42:00,72.9,53.7,30.07,ENE,63,20.0,24.0,51,0.00,,---,0.00,VWS V14.00,2013-03-20 15:42:00,
2013-03-20 10:43:00,72.8,53.6,30.07,ENE,60,22.0,27.0,51,0.00,,---,0.00,VWS V14.00,2013-03-20 15:43:00,
2013-03-20 10:44:00,72.8,53.6,30.07,ENE,71,19.0,24.0,51,0.00,,---,0.00,VWS V14.00,2013-03-20 15:44:00,
2013-03-20 10:45:00,73.2,54.5,30.07,ENE,59,19.0,26.0,52,0.00,,---,0.00,VWS V14.00,2013-03-20 15:45:00,
2013-03-20 10:46:00,72.8,54.2,30.07,ENE,61,18.0,22.0,52,0.00,,---,0.00,VWS V14.00,2013-03-20 15:46:00,
2013-03-20 10:47:00,73.1,54.5,30.07,ENE,58,23.0,27.0,52,0.00,,---,0.00,VWS V14.00,2013-03-20 15:47:00,
2013-03-20 10:48:00,73.2,54.5,30.07,NE,54,20.0,26.0,52,0.00,,---,0.00,VWS V14.00,2013-03-20 15:48:00,
2013-03-20 10:49:00,73.2,54.0,30.07,ENE,63,17.0,20.0,51,0.00,,---,0.00,VWS V14.00,2013-03-20 15:49:00,
2013-03-20 10:50:00,73.6,54.4,30.07,NE,56,19.0,26.0,51,0.00,,---,0.00,VWS V14.00,2013-03-20 15:50:00,
2013-03-20 10:51:00,73.4,54.2,30.07,NE,55,19.0,27.0,51,0.00,,---,0.00,VWS V14.00,2013-03-20 15:51:00,
2013-03-20 10:52:00,73.5,54.3,30.07,ENE,57,21.0,24.0,51,0.00,,---,0.00,VWS V14.00,2013-03-20 15:52:00,
2013-03-20 10:53:00,73.6,54.4,30.07,NE,53,23.0,26.0,51,0.00,,---,0.00,VWS V14.00,2013-03-20 15:53:00,
2013-03-20 10:54:00,73.6,54.4,30.08,NE,54,20.0,23.0,51,0.00,,---,0.00,VWS V14.00,2013-03-20 15:54:00,
2013-03-20 10:55:00,73.5,53.7,30.08,NE,55,15.0,16.0,50,0.00,,---,0.00,VWS V14.00,2013-03-20 15:55:00,
2013-03-20 10:56:00,73.7,53.9,30.08,NE,52,18.0,24.0,50,0.00,,---,0.00,VWS V14.00,2013-03-20 15:56:00,
2013-03-20 10:57:00,73.7,53.9,30.08,ENE,60,14.0,19.0,50,0.00,,---,0.00,VWS V14.00,2013-03-20 15:57:00,
2013-03-20 10:58:00,73.5,54.3,30.08,ENE,63,20.0,20.0,51,0.00,,---,0.00,VWS V14.00,2013-03-20 15:58:00,
2013-03-20 10:59:00,73.8,55.1,30.08,ENE,57,21.0,26.0,52,0.00,,---,0.00,VWS V14.00,2013-03-20 15:59:00,
2013-03-20 11:00:00,74.1,54.3,30.07,NE,53,21.0,22.0,50,0.00,,---,0.00,VWS V14.00,2013-03-20 16:00:00,
2013-03-20 11:01:00,74.1,54.3,30.07,ENE,57,16.0,23.0,50,0.00,,---,0.00,VWS V14.00,2013-03-20 16:01:00,
2013-03-20 11:02:00,74.0,54.2,30.07,NE,39,18.0,19.0,50,0.00,,---,0.00,VWS V14.00,2013-03-20 16:02:00,
2013-03-20 11:03:00,74.2,54.4,30.07,ENE,59,21.0,22.0,50,0.00,,---,0.00,VWS V14.00,2013-03-20 16:03:00,
2013-03-20 11:04:00,74.4,55.1,30.07,NE,49,24.0,26.0,51,0.00,,---,0.00,VWS V14.00,2013-03-20 16:04:00,
2013-03-20 11:05:00,74.1,54.3,30.07,ENE,60,23.0,26.0,50,0.00,,---,0.00,VWS V14.00,2013-03-20 16:05:00,
2013-03-20 11:06:00,74.5,54.1,30.07,ENE,67,22.0,27.0,49,0.00,,---,0.00,VWS V14.00,2013-03-20 16:06:00,
2013-03-20 11:07:00,74.2,54.4,30.08,NE,55,19.0,23.0,50,0.00,,---,0.00,VWS V14.00,2013-03-20 16:07:00,
2013-03-20 11:08:00,74.0,54.2,30.08,ENE,59,17.0,26.0,50,0.00,,---,0.00,VWS V14.00,2013-03-20 16:08:00,
2013-03-20 11:09:00,74.0,54.2,30.08,NE,38,19.0,19.0,50,0.00,,---,0.00,VWS V14.00,2013-03-20 16:09:00,
2013-03-20 11:10:00,74.4,54.6,30.08,ENE,67,20.0,20.0,50,0.00,,---,0.00,VWS V14.00,2013-03-20 16:10:00,
2013-03-20 11:11:00,74.5,55.2,30.08,NE,55,21.0,26.0,51,0.00,,---,0.00,VWS V14.00,2013-03-20 16:11:00,
2013-03-20 11:12:00,74.5,54.7,30.08,ENE,63,13.0,21.0,50,0.00,,---,0.00,VWS V14.00,2013-03-20 16:12:00,
2013-03-20 11:13:00,74.3,54.5,30.08,ENE,67,11.0,21.0,50,0.00,,---,0.00,VWS V14.00,2013-03-20 16:13:00,
2013-03-20 11:14:00,74.3,54.5,30.08,NE,42,25.0,26.0,50,0.00,,---,0.00,VWS V14.00,2013-03-20 16:14:00,
2013-03-20 11:15:00,74.6,54.2,30.08,NE,55,19.0,26.0,49,0.00,,---,0.00,VWS V14.00,2013-03-20 16:15:00,
2013-03-20 11:16:00,74.8,54.4,30.08,ENE,65,24.0,27.0,49,0.00,,---,0.00,VWS V14.00,2013-03-20 16:16:00,
2013-03-20 11:17:00,74.7,54.3,30.08,NE,51,26.0,26.0,49,0.00,,---,0.00,VWS V14.00,2013-03-20 16:17:00,
2013-03-20 11:18:00,74.6,54.2,30.08,NE,42,19.0,26.0,49,0.00,,---,0.00,VWS V14.00,2013-03-20 16:18:00,
2013-03-20 11:19:00,74.7,54.3,30.08,ENE,72,21.0,21.0,49,0.00,,---,0.00,VWS V14.00,2013-03-20 16:19:00,
2013-03-20 11:20:00,74.6,54.2,30.08,ENE,65,21.0,21.0,49,0.00,,---,0.00,VWS V14.00,2013-03-20 16:20:00,
2013-03-20 11:21:00,74.8,54.4,30.08,ENE,71,17.0,22.0,49,0.00,,---,0.00,VWS V14.00,2013-03-20 16:21:00,
2013-03-20 11:22:00,74.8,54.4,30.08,NE,54,17.0,23.0,49,0.00,,---,0.00,VWS V14.00,2013-03-20 16:22:00,
2013-03-20 11:23:00,74.6,54.2,30.08,NE,49,17.0,21.0,49,0.00,,---,0.00,VWS V14.00,2013-03-20 16:23:00,
2013-03-20 11:24:00,75.0,55.1,30.08,ENE,61,20.0,23.0,50,0.00,,---,0.00,VWS V14.00,2013-03-20 16:24:00,
2013-03-20 11:25:00,75.0,54.0,30.08,NE,53,15.0,26.0,48,0.00,,---,0.00,VWS V14.00,2013-03-20 16:25:00,
2013-03-20 11:26:00,74.9,53.9,30.08,NE,56,22.0,22.0,48,0.00,,---,0.00,VWS V14.00,2013-03-20 16:26:00,
2013-03-20 11:27:00,75.0,54.0,30.08,NE,53,24.0,27.0,48,0.00,,---,0.00,VWS V14.00,2013-03-20 16:27:00,
2013-03-20 11:28:00,75.1,54.1,30.08,NE,42,21.0,26.0,48,0.00,,---,0.00,VWS V14.00,2013-03-20 16:28:00,
2013-03-20 11:29:00,75.1,54.1,30.08,ENE,62,17.0,22.0,48,0.00,,---,0.00,VWS V14.00,2013-03-20 16:29:00,
2013-03-20 11:30:00,75.3,53.7,30.08,ENE,65,20.0,24.0,47,0.00,,---,0.00,VWS V14.00,2013-03-20 16:30:00,
2013-03-20 11:31:00,75.3,54.3,30.08,ENE,61,20.0,27.0,48,0.00,,---,0.00,VWS V14.00,2013-03-20 16:31:00,
2013-03-20 11:32:00,75.3,54.3,30.08,ENE,57,19.0,24.0,48,0.00,,---,0.00,VWS V14.00,2013-03-20 16:32:00,
2013-03-20 11:33:00,75.2,53.6,30.08,ENE,66,18.0,24.0,47,0.00,,---,0.00,VWS V14.00,2013-03-20 16:33:00,
2013-03-20 11:34:00,75.1,53.5,30.08,NE,51,16.0,20.0,47,0.00,,---,0.00,VWS V14.00,2013-03-20 16:34:00,
2013-03-20 11:35:00,75.0,54.0,30.08,NE,53,24.0,28.0,48,0.00,,---,0.00,VWS V14.00,2013-03-20 16:35:00,
2013-03-20 11:36:00,75.2,53.6,30.08,ENE,58,16.0,25.0,47,0.00,,---,0.00,VWS V14.00,2013-03-20 16:36:00,
2013-03-20 11:37:00,75.0,53.4,30.08,East,84,22.0,22.0,47,0.00,,---,0.00,VWS V14.00,2013-03-20 16:37:00,
2013-03-20 11:38:00,75.2,54.2,30.08,ENE,57,18.0,28.0,48,0.00,,---,0.00,VWS V14.00,2013-03-20 16:38:00,
2013-03-20 11:39:00,75.3,53.7,30.08,ENE,67,23.0,24.0,47,0.00,,---,0.00,VWS V14.00,2013-03-20 16:39:00,
2013-03-20 11:40:00,75.4,54.4,30.08,East,81,19.0,20.0,48,0.00,,---,0.00,VWS V14.00,2013-03-20 16:40:00,
2013-03-20 11:41:00,75.3,54.3,30.08,East,81,19.0,25.0,48,0.00,,---,0.00,VWS V14.00,2013-03-20 16:41:00,
2013-03-20 11:42:00,75.2,53.6,30.08,ENE,76,17.0,21.0,47,0.00,,---,0.00,VWS V14.00,2013-03-20 16:42:00,
2013-03-20 11:43:00,75.5,54.5,30.08,ENE,60,22.0,23.0,48,0.00,,---,0.00,VWS V14.00,2013-03-20 16:43:00,
2013-03-20 11:44:00,75.6,54.0,30.08,ENE,75,14.0,23.0,47,0.00,,---,0.00,VWS V14.00,2013-03-20 16:44:00,
2013-03-20 11:45:00,76.1,53.8,30.08,NE,45,19.0,21.0,46,0.00,,---,0.00,VWS V14.00,2013-03-20 16:45:00,
2013-03-20 11:46:00,76.1,54.4,30.07,ENE,65,17.0,28.0,47,0.00,,---,0.00,VWS V14.00,2013-03-20 16:46:00,
2013-03-20 11:47:00,76.0,53.8,30.08,ENE,57,21.0,24.0,46,0.00,,---,0.00,VWS V14.00,2013-03-20 16:47:00,
2013-03-20 11:48:00,76.1,53.8,30.08,ENE,69,19.0,21.0,46,0.00,,---,0.00,VWS V14.00,2013-03-20 16:48:00,
2013-03-20 11:49:00,76.3,54.0,30.08,ENE,57,20.0,24.0,46,0.00,,---,0.00,VWS V14.00,2013-03-20 16:49:00,
2013-03-20 11:50:00,76.9,54.0,30.08,NE,53,18.0,19.0,45,0.00,,---,0.00,VWS V14.00,2013-03-20 16:50:00,
2013-03-20 11:51:00,76.9,54.0,30.08,ENE,59,24.0,27.0,45,0.00,,---,0.00,VWS V14.00,2013-03-20 16:51:00,
2013-03-20 11:52:00,76.9,54.0,30.08,NE,55,16.0,24.0,45,0.00,,---,0.00,VWS V14.00,2013-03-20 16:52:00,
2013-03-20 11:53:00,76.9,54.0,30.08,NE,48,14.0,19.0,45,0.00,,---,0.00,VWS V14.00,2013-03-20 16:53:00,
2013-03-20 11:54:00,77.1,54.2,30.08,ENE,69,19.0,22.0,45,0.00,,---,0.00,VWS V14.00,2013-03-20 16:54:00,
2013-03-20 11:55:00,77.1,54.2,30.07,NE,55,20.0,24.0,45,0.00,,---,0.00,VWS V14.00,2013-03-20 16:55:00,
2013-03-20 11:56:00,77.2,54.2,30.07,ENE,69,17.0,21.0,45,0.00,,---,0.00,VWS V14.00,2013-03-20 16:56:00,
2013-03-20 11:57:00,77.1,54.2,30.07,ENE,74,14.0,27.0,45,0.00,,---,0.00,VWS V14.00,2013-03-20 16:57:00,
2013-03-20 11:58:00,77.0,53.4,30.07,NE,52,19.0,24.0,44,0.00,,---,0.00,VWS V14.00,2013-03-20 16:58:00,
2013-03-20 11:59:00,76.8,53.9,30.07,NE,42,12.0,20.0,45,0.00,,---,0.00,VWS V14.00,2013-03-20 16:59:00,
2013-03-20 12:00:00,76.6,53.7,30.07,East,84,15.0,15.0,45,0.00,,---,0.00,VWS V14.00,2013-03-20 17:00:00,
2013-03-20 12:01:00,76.9,54.0,30.07,East,82,15.0,21.0,45,0.00,,---,0.00,VWS V14.00,2013-03-20 17:01:00,
2013-03-20 12:02:00,76.7,53.8,30.07,ENE,76,11.0,17.0,45,0.00,,---,0.00,VWS V14.00,2013-03-20 17:02:00,
2013-03-20 12:03:00,76.5,54.2,30.07,ENE,67,19.0,22.0,46,0.00,,---,0.00,VWS V14.00,2013-03-20 17:03:00,
2013-03-20 12:04:00,76.7,54.4,30.07,NE,49,16.0,23.0,46,0.00,,---,0.00,VWS V14.00,2013-03-20 17:04:00,
2013-03-20 12:05:00,77.6,54.6,30.08,NE,36,16.0,20.0,45,0.00,,---,0.00,VWS V14.00,2013-03-20 17:05:00,
2013-03-20 12:06:00,77.3,54.3,30.07,NE,49,18.0,22.0,45,0.00,,---,0.00,VWS V14.00,2013-03-20 17:06:00,
2013-03-20 12:07:00,77.5,54.5,30.07,NNE,26,14.0,23.0,45,0.00,,---,0.00,VWS V14.00,2013-03-20 17:07:00,
2013-03-20 12:08:00,77.7,54.1,30.08,NNE,32,17.0,21.0,44,0.00,,---,0.00,VWS V14.00,2013-03-20 17:08:00,
2013-03-20 12:09:00,77.7,54.7,30.07,NE,53,15.0,19.0,45,0.00,,---,0.00,VWS V14.00,2013-03-20 17:09:00,
2013-03-20 12:10:00,78.1,53.8,30.08,NE,34,11.0,16.0,43,0.00,,---,0.00,VWS V14.00,2013-03-20 17:10:00,
2013-03-20 12:11:00,78.0,55.0,30.07,NNE,26,19.0,23.0,45,0.00,,---,0.00,VWS V14.00,2013-03-20 17:11:00,
2013-03-20 12:12:00,78.2,54.5,30.08,NE,51,15.0,25.0,44,0.00,,---,0.00,VWS V14.00,2013-03-20 17:12:00,
2013-03-20 12:13:00,77.9,53.6,30.08,NNE,28,13.0,16.0,43,0.00,,---,0.00,VWS V14.00,2013-03-20 17:13:00,
2013-03-20 12:14:00,77.6,54.0,30.07,NE,36,19.0,19.0,44,0.00,,---,0.00,VWS V14.00,2013-03-20 17:14:00,
2013-03-20 12:15:00,78.3,55.2,30.08,NE,53,21.0,23.0,45,0.00,,---,0.00,VWS V14.00,2013-03-20 17:15:00,
2013-03-20 12:16:00,77.7,54.1,30.08,NNE,17,10.0,16.0,44,0.00,,---,0.00,VWS V14.00,2013-03-20 17:16:00,
2013-03-20 12:17:00,78.0,55.0,30.07,ENE,58,23.0,23.0,45,0.00,,---,0.00,VWS V14.00,2013-03-20 17:17:00,
2013-03-20 12:18:00,78.4,55.3,30.08,NE,42,18.0,23.0,45,0.00,,---,0.00,VWS V14.00,2013-03-20 17:18:00,
2013-03-20 12:19:00,78.3,54.6,30.08,NE,48,18.0,21.0,44,0.00,,---,0.00,VWS V14.00,2013-03-20 17:19:00,
2013-03-20 12:20:00,78.2,55.1,30.08,NNE,33,16.0,21.0,45,0.00,,---,0.00,VWS V14.00,2013-03-20 17:20:00,
2013-03-20 12:21:00,78.0,54.3,30.08,NE,42,8.0,13.0,44,0.00,,---,0.00,VWS V14.00,2013-03-20 17:21:00,
2013-03-20 12:22:00,78.0,55.0,30.08,NE,42,21.0,22.0,45,0.00,,---,0.00,VWS V14.00,2013-03-20 17:22:00,
2013-03-20 12:23:00,78.3,55.2,30.08,NE,41,12.0,21.0,45,0.00,,---,0.00,VWS V14.00,2013-03-20 17:23:00,
2013-03-20 12:24:00,78.1,54.4,30.08,NE,39,16.0,16.0,44,0.00,,---,0.00,VWS V14.00,2013-03-20 17:24:00,
2013-03-20 12:25:00,77.6,54.0,30.08,ENE,59,22.0,23.0,44,0.00,,---,0.00,VWS V14.00,2013-03-20 17:25:00,
2013-03-20 12:26:00,77.7,54.7,30.08,NNE,33,23.0,25.0,45,0.00,,---,0.00,VWS V14.00,2013-03-20 17:26:00,
2013-03-20 12:27:00,77.6,54.0,30.08,ENE,67,20.0,24.0,44,0.00,,---,0.00,VWS V14.00,2013-03-20 17:27:00,
2013-03-20 12:28:00,77.4,53.8,30.08,NE,41,22.0,30.0,44,0.00,,---,0.00,VWS V14.00,2013-03-20 17:28:00,
2013-03-20 12:29:00,77.1,54.2,30.08,NE,37,21.0,22.0,45,0.00,,---,0.00,VWS V14.00,2013-03-20 17:29:00,
2013-03-20 12:30:00,77.3,54.9,30.08,ENE,65,18.0,20.0,46,0.00,,---,0.00,VWS V14.00,2013-03-20 17:30:00,
2013-03-20 12:31:00,77.1,54.2,30.08,NE,39,9.0,17.0,45,0.00,,---,0.00,VWS V14.00,2013-03-20 17:31:00,
2013-03-20 12:32:00,77.1,54.8,30.08,NE,36,20.0,21.0,46,0.00,,---,0.00,VWS V14.00,2013-03-20 17:32:00,
2013-03-20 12:33:00,77.4,54.4,30.08,ENE,66,11.0,20.0,45,0.00,,---,0.00,VWS V14.00,2013-03-20 17:33:00,
2013-03-20 12:34:00,77.1,54.2,30.08,ENE,77,12.0,19.0,45,0.00,,---,0.00,VWS V14.00,2013-03-20 17:34:00,
2013-03-20 12:35:00,77.1,55.3,30.08,NE,42,17.0,22.0,47,0.00,,---,0.00,VWS V14.00,2013-03-20 17:35:00,
2013-03-20 12:36:00,76.5,54.2,30.08,ENE,66,18.0,26.0,46,0.00,,---,0.00,VWS V14.00,2013-03-20 17:36:00,
2013-03-20 12:37:00,76.7,55.0,30.08,NE,56,21.0,24.0,47,0.00,,---,0.00,VWS V14.00,2013-03-20 17:37:00,
2013-03-20 12:38:00,77.4,54.4,30.08,NE,46,23.0,25.0,45,0.00,,---,0.00,VWS V14.00,2013-03-20 17:38:00,
2013-03-20 12:39:00,77.5,54.5,30.08,NNE,32,9.0,23.0,45,0.00,,---,0.00,VWS V14.00,2013-03-20 17:39:00,
2013-03-20 12:40:00,77.2,54.2,30.08,ENE,69,12.0,15.0,45,0.00,,---,0.00,VWS V14.00,2013-03-20 17:40:00,
2013-03-20 12:41:00,77.3,54.3,30.08,NE,51,22.0,23.0,45,0.00,,---,0.00,VWS V14.00,2013-03-20 17:41:00,
2013-03-20 12:42:00,77.3,54.3,30.08,ENE,65,14.0,24.0,45,0.00,,---,0.00,VWS V14.00,2013-03-20 17:42:00,
2013-03-20 12:43:00,77.1,54.2,30.08,NE,53,11.0,20.0,45,0.00,,---,0.00,VWS V14.00,2013-03-20 17:43:00,
2013-03-20 12:44:00,76.8,53.9,30.08,ENE,65,17.0,17.0,45,0.00,,---,0.00,VWS V14.00,2013-03-20 17:44:00,
2013-03-20 12:45:00,77.5,55.1,30.08,NE,44,19.0,20.0,46,0.00,,---,0.00,VWS V14.00,2013-03-20 17:45:00,
2013-03-20 12:46:00,77.1,54.8,30.08,NE,43,16.0,21.0,46,0.00,,---,0.00,VWS V14.00,2013-03-20 17:46:00,
2013-03-20 12:47:00,77.3,54.9,30.08,NE,40,20.0,20.0,46,0.00,,---,0.00,VWS V14.00,2013-03-20 17:47:00,
2013-03-20 12:48:00,77.6,55.2,30.08,NE,46,18.0,20.0,46,0.00,,---,0.00,VWS V14.00,2013-03-20 17:48:00,
2013-03-20 12:49:00,77.8,54.8,30.08,NE,40,20.0,22.0,45,0.00,,---,0.00,VWS V14.00,2013-03-20 17:49:00,
2013-03-20 12:50:00,76.6,54.3,30.08,NE,47,13.0,15.0,46,0.00,,---,0.00,VWS V14.00,2013-03-20 17:50:00,
2013-03-20 12:51:00,77.0,54.1,30.08,NE,53,12.0,14.0,45,0.00,,---,0.00,VWS V14.00,2013-03-20 17:51:00,
2013-03-20 12:52:00,76.6,54.3,30.08,NE,46,15.0,19.0,46,0.00,,---,0.00,VWS V14.00,2013-03-20 17:52:00,
2013-03-20 12:53:00,76.5,54.2,30.08,ENE,57,14.0,15.0,46,0.00,,---,0.00,VWS V14.00,2013-03-20 17:53:00,
2013-03-20 12:54:00,76.4,54.7,30.08,ENE,67,14.0,15.0,47,0.00,,---,0.00,VWS V14.00,2013-03-20 17:54:00,
2013-03-20 12:55:00,76.6,54.9,30.08,ENE,66,22.0,22.0,47,0.00,,---,0.00,VWS V14.00,2013-03-20 17:55:00,
2013-03-20 12:56:00,76.0,54.3,30.08,NE,42,20.0,23.0,47,0.00,,---,0.00,VWS V14.00,2013-03-20 17:56:00,
2013-03-20 12:57:00,76.5,54.8,30.08,NE,46,22.0,27.0,47,0.00,,---,0.00,VWS V14.00,2013-03-20 17:57:00,
2013-03-20 12:58:00,76.6,54.3,30.08,ENE,57,16.0,22.0,46,0.00,,---,0.00,VWS V14.00,2013-03-20 17:58:00,
2013-03-20 12:59:00,76.4,54.1,30.08,NE,37,11.0,21.0,46,0.00,,---,0.00,VWS V14.00,2013-03-20 17:59:00,
2013-03-20 13:00:00,76.4,54.1,30.08,East,81,8.0,13.0,46,0.00,,---,0.00,VWS V14.00,2013-03-20 18:00:00,
2013-03-20 13:01:00,76.6,54.3,30.08,ENE,74,19.0,22.0,46,0.00,,---,0.00,VWS V14.00,2013-03-20 18:01:00,
2013-03-20 13:02:00,76.4,54.1,30.08,ENE,67,12.0,20.0,46,0.00,,---,0.00,VWS V14.00,2013-03-20 18:02:00,
2013-03-20 13:03:00,76.1,53.8,30.08,East,82,17.0,18.0,46,0.00,,---,0.00,VWS V14.00,2013-03-20 18:03:00,
2013-03-20 13:04:00,75.9,54.2,30.08,NE,48,10.0,17.0,47,0.00,,---,0.00,VWS V14.00,2013-03-20 18:04:00,
2013-03-20 13:05:00,77.2,55.4,30.08,ENE,58,13.0,20.0,47,0.00,,---,0.00,VWS V14.00,2013-03-20 18:05:00,
2013-03-20 13:06:00,76.4,55.3,30.08,NE,51,26.0,27.0,48,0.00,,---,0.00,VWS V14.00,2013-03-20 18:06:00,
2013-03-20 13:07:00,77.2,55.4,30.08,NE,56,20.0,28.0,47,0.00,,---,0.00,VWS V14.00,2013-03-20 18:07:00,
2013-03-20 13:08:00,77.2,55.4,30.08,NE,44,9.0,20.0,47,0.00,,---,0.00,VWS V14.00,2013-03-20 18:08:00,
2013-03-20 13:09:00,77.1,55.3,30.08,NE,46,10.0,11.0,47,0.00,,---,0.00,VWS V14.00,2013-03-20 18:09:00,
2013-03-20 13:10:00,77.3,56.1,30.08,NE,41,18.0,18.0,48,0.00,,---,0.00,VWS V14.00,2013-03-20 18:10:00,
2013-03-20 13:11:00,77.3,55.5,30.08,NE,50,19.0,23.0,47,0.00,,---,0.00,VWS V14.00,2013-03-20 18:11:00,
2013-03-20 13:12:00,77.3,56.1,30.08,NNE,26,11.0,19.0,48,0.00,,---,0.00,VWS V14.00,2013-03-20 18:12:00,
2013-03-20 13:13:00,77.5,55.7,30.08,ENE,60,23.0,26.0,47,0.00,,---,0.00,VWS V14.00,2013-03-20 18:13:00,
2013-03-20 13:14:00,77.3,55.5,30.08,ENE,61,22.0,25.0,47,0.00,,---,0.00,VWS V14.00,2013-03-20 18:14:00,
2013-03-20 13:15:00,76.3,55.8,30.08,NE,41,14.0,18.0,49,0.00,,---,0.00,VWS V14.00,2013-03-20 18:15:00,
2013-03-20 13:16:00,76.6,55.5,30.08,ENE,76,17.0,21.0,48,0.00,,---,0.00,VWS V14.00,2013-03-20 18:16:00,
2013-03-20 13:17:00,76.3,55.2,30.08,NE,40,18.0,20.0,48,0.00,,---,0.00,VWS V14.00,2013-03-20 18:17:00,
2013-03-20 13:18:00,76.3,55.8,30.07,NNE,22,0.0,18.0,49,0.00,,---,0.00,VWS V14.00,2013-03-20 18:18:00,
2013-03-20 13:19:00,76.3,55.8,30.07,NE,49,11.0,16.0,49,0.00,,---,0.00,VWS V14.00,2013-03-20 18:19:00,
2013-03-20 13:20:00,76.8,56.2,30.07,NE,44,17.0,22.0,49,0.00,,---,0.00,VWS V14.00,2013-03-20 18:20:00,
2013-03-20 13:21:00,76.3,56.3,30.07,ENE,71,14.0,16.0,50,0.00,,---,0.00,VWS V14.00,2013-03-20 18:21:00,
2013-03-20 13:23:00,76.8,56.2,30.07,ENE,72,14.0,22.0,49,0.00,,---,0.00,VWS V14.00,2013-03-20 18:23:00,
2013-03-20 13:24:00,77.3,56.7,30.07,NE,41,23.0,24.0,49,0.00,,---,0.00,VWS V14.00,2013-03-20 18:24:00,
2013-03-20 13:25:00,77.6,56.4,30.07,NNE,27,11.0,13.0,48,0.00,,---,0.00,VWS V14.00,2013-03-20 18:25:00,
2013-03-20 13:26:00,77.8,56.6,30.07,NNE,22,12.0,20.0,48,0.00,,---,0.00,VWS V14.00,2013-03-20 18:26:00,
2013-03-20 13:27:00,77.6,55.8,30.07,NNE,28,6.0,12.0,47,0.00,,---,0.00,VWS V14.00,2013-03-20 18:27:00,
2013-03-20 13:28:00,77.6,56.4,30.07,NNE,24,9.0,13.0,48,0.00,,---,0.00,VWS V14.00,2013-03-20 18:28:00,
2013-03-20 13:29:00,77.5,56.3,30.07,NNE,24,10.0,11.0,48,0.00,,---,0.00,VWS V14.00,2013-03-20 18:29:00,
2013-03-20 13:30:00,77.1,55.9,30.07,ENE,67,10.0,11.0,48,0.00,,---,0.00,VWS V14.00,2013-03-20 18:30:00,
2013-03-20 13:31:00,77.5,56.3,30.07,East,98,19.0,22.0,48,0.00,,---,0.00,VWS V14.00,2013-03-20 18:31:00,
2013-03-20 13:32:00,77.3,56.1,30.07,ENE,63,11.0,20.0,48,0.00,,---,0.00,VWS V14.00,2013-03-20 18:32:00,
2013-03-20 13:33:00,77.0,56.4,30.07,NE,46,8.0,11.0,49,0.00,,---,0.00,VWS V14.00,2013-03-20 18:33:00,
2013-03-20 13:34:00,76.9,56.3,30.07,NNE,25,13.0,13.0,49,0.00,,---,0.00,VWS V14.00,2013-03-20 18:34:00,
2013-03-20 13:35:00,77.0,57.0,30.07,North,11,8.0,13.0,50,0.00,,---,0.00,VWS V14.00,2013-03-20 18:35:00,
2013-03-20 13:36:00,77.0,56.4,30.07,NNE,25,13.0,18.0,49,0.00,,---,0.00,VWS V14.00,2013-03-20 18:36:00,
2013-03-20 13:37:00,77.0,57.0,30.07,NNE,29,10.0,13.0,50,0.00,,---,0.00,VWS V14.00,2013-03-20 18:37:00,
2013-03-20 13:38:00,77.1,57.0,30.07,NNE,28,17.0,19.0,50,0.00,,---,0.00,VWS V14.00,2013-03-20 18:38:00,
2013-03-20 13:39:00,77.2,57.1,30.07,NE,42,14.0,18.0,50,0.00,,---,0.00,VWS V14.00,2013-03-20 18:39:00,
2013-03-20 13:40:00,77.6,57.0,30.07,NE,42,23.0,24.0,49,0.00,,---,0.00,VWS V14.00,2013-03-20 18:40:00,
2013-03-20 13:41:00,77.6,57.5,30.07,NE,44,17.0,21.0,50,0.00,,---,0.00,VWS V14.00,2013-03-20 18:41:00,
2013-03-20 13:42:00,77.6,57.0,30.07,ENE,58,20.0,24.0,49,0.00,,---,0.00,VWS V14.00,2013-03-20 18:42:00,
2013-03-20 13:43:00,77.8,57.1,30.07,NE,36,20.0,24.0,49,0.00,,---,0.00,VWS V14.00,2013-03-20 18:43:00,
2013-03-20 13:44:00,77.7,57.0,30.07,NNE,20,17.0,21.0,49,0.00,,---,0.00,VWS V14.00,2013-03-20 18:44:00,
2013-03-20 13:45:00,77.3,57.2,30.07,NE,42,17.0,24.0,50,0.00,,---,0.00,VWS V14.00,2013-03-20 18:45:00,
2013-03-20 13:46:00,77.4,57.3,30.07,NNE,22,15.0,19.0,50,0.00,,---,0.00,VWS V14.00,2013-03-20 18:46:00,
2013-03-20 13:47:00,77.4,57.3,30.07,NE,45,24.0,24.0,50,0.00,,---,0.00,VWS V14.00,2013-03-20 18:47:00,
2013-03-20 13:48:00,77.2,57.1,30.07,NE,36,21.0,24.0,50,0.00,,---,0.00,VWS V14.00,2013-03-20 18:48:00,
2013-03-20 13:49:00,77.1,57.6,30.07,NNE,31,14.0,23.0,51,0.00,,---,0.00,VWS V14.00,2013-03-20 18:49:00,
2013-03-20 13:50:00,77.5,56.9,30.07,NNE,33,19.0,21.0,49,0.00,,---,0.00,VWS V14.00,2013-03-20 18:50:00,
2013-03-20 13:51:00,77.4,57.9,30.07,NNE,24,13.0,24.0,51,0.00,,---,0.00,VWS V14.00,2013-03-20 18:51:00,
2013-03-20 13:52:00,77.5,57.4,30.06,NE,41,20.0,20.0,50,0.00,,---,0.00,VWS V14.00,2013-03-20 18:52:00,
2013-03-20 13:53:00,77.5,56.9,30.07,North,360,8.0,21.0,49,0.00,,---,0.00,VWS V14.00,2013-03-20 18:53:00,
2013-03-20 13:54:00,77.2,57.1,30.06,NNE,31,7.0,12.0,50,0.00,,---,0.00,VWS V14.00,2013-03-20 18:54:00,
2013-03-20 13:55:00,76.9,56.9,30.06,NE,50,14.0,14.0,50,0.00,,---,0.00,VWS V14.00,2013-03-20 18:55:00,
2013-03-20 13:56:00,77.0,57.0,30.06,NE,53,18.0,22.0,50,0.00,,---,0.00,VWS V14.00,2013-03-20 18:56:00,
2013-03-20 13:58:00,76.9,56.9,30.06,NE,41,13.0,15.0,50,0.00,,---,0.00,VWS V14.00,2013-03-20 18:58:00,
2013-03-20 14:00:00,77.8,58.2,30.06,NE,53,21.0,21.0,51,0.00,,---,0.00,VWS V14.00,2013-03-20 19:00:00,
2013-03-20 14:01:00,77.6,58.1,30.06,NE,34,17.0,24.0,51,0.00,,---,0.00,VWS V14.00,2013-03-20 19:01:00,
2013-03-20 14:02:00,77.8,58.2,30.06,NE,43,16.0,20.0,51,0.00,,---,0.00,VWS V14.00,2013-03-20 19:02:00,
2013-03-20 14:03:00,77.8,58.2,30.06,NE,53,13.0,21.0,51,0.00,,---,0.00,VWS V14.00,2013-03-20 19:03:00,
2013-03-20 14:04:00,77.6,57.5,30.05,ENE,61,12.0,14.0,50,0.00,,---,0.00,VWS V14.00,2013-03-20 19:04:00,
2013-03-20 14:05:00,77.8,58.2,30.05,NE,34,13.0,19.0,51,0.00,,---,0.00,VWS V14.00,2013-03-20 19:05:00,
2013-03-20 14:06:00,77.5,57.4,30.06,ENE,57,20.0,20.0,50,0.00,,---,0.00,VWS V14.00,2013-03-20 19:06:00,
2013-03-20 14:07:00,77.7,58.2,30.06,NE,34,19.0,21.0,51,0.00,,---,0.00,VWS V14.00,2013-03-20 19:07:00,
2013-03-20 14:08:00,78.0,58.4,30.05,North,5,4.0,19.0,51,0.00,,---,0.00,VWS V14.00,2013-03-20 19:08:00,
2013-03-20 14:09:00,78.2,58.6,30.06,NNE,33,19.0,23.0,51,0.00,,---,0.00,VWS V14.00,2013-03-20 19:09:00,
2013-03-20 14:10:00,77.8,57.1,30.05,NE,44,20.0,24.0,49,0.00,,---,0.00,VWS V14.00,2013-03-20 19:10:00,
2013-03-20 14:11:00,78.1,56.8,30.05,NE,51,16.0,19.0,48,0.00,,---,0.00,VWS V14.00,2013-03-20 19:11:00,
2013-03-20 14:12:00,77.8,57.1,30.05,NE,36,24.0,24.0,49,0.00,,---,0.00,VWS V14.00,2013-03-20 19:12:00,
2013-03-20 14:13:00,77.7,57.6,30.05,NE,41,13.0,24.0,50,0.00,,---,0.00,VWS V14.00,2013-03-20 19:13:00,
2013-03-20 14:14:00,77.6,57.5,30.06,NE,43,13.0,18.0,50,0.00,,---,0.00,VWS V14.00,2013-03-20 19:14:00,
2013-03-20 14:15:00,77.4,57.9,30.05,NNE,17,9.0,12.0,51,0.00,,---,0.00,VWS V14.00,2013-03-20 19:15:00,
2013-03-20 14:16:00,77.3,57.8,30.06,NE,42,21.0,21.0,51,0.00,,---,0.00,VWS V14.00,2013-03-20 19:16:00,
2013-03-20 14:17:00,77.3,57.8,30.05,NNE,12,12.0,23.0,51,0.00,,---,0.00,VWS V14.00,2013-03-20 19:17:00,
2013-03-20 14:18:00,77.3,57.8,30.05,NNE,24,10.0,19.0,51,0.00,,---,0.00,VWS V14.00,2013-03-20 19:18:00,
2013-03-20 14:19:00,77.2,57.7,30.05,NNE,17,9.0,14.0,51,0.00,,---,0.00,VWS V14.00,2013-03-20 19:19:00,
2013-03-20 14:20:00,76.6,58.2,30.05,NNE,27,11.0,11.0,53,0.00,,---,0.00,VWS V14.00,2013-03-20 19:20:00,
2013-03-20 14:21:00,76.8,57.3,30.05,NNE,26,22.0,28.0,51,0.00,,---,0.00,VWS V14.00,2013-03-20 19:21:00,
2013-03-20 14:22:00,76.6,57.7,30.05,NNE,28,10.0,22.0,52,0.00,,---,0.00,VWS V14.00,2013-03-20 19:22:00,
2013-03-20 14:23:00,76.5,58.1,30.05,North,355,0.0,11.0,53,0.00,,---,0.00,VWS V14.00,2013-03-20 19:23:00,
2013-03-20 14:24:00,76.6,58.7,30.05,NNE,17,13.0,13.0,54,0.00,,---,0.00,VWS V14.00,2013-03-20 19:24:00,
2013-03-20 14:25:00,76.9,58.0,30.05,NE,41,14.0,18.0,52,0.00,,---,0.00,VWS V14.00,2013-03-20 19:25:00,
2013-03-20 14:26:00,76.7,58.8,30.05,ENE,61,24.0,25.0,54,0.00,,---,0.00,VWS V14.00,2013-03-20 19:26:00,
2013-03-20 14:27:00,77.0,58.6,30.05,NE,56,14.0,24.0,53,0.00,,---,0.00,VWS V14.00,2013-03-20 19:27:00,
2013-03-20 14:28:00,76.9,58.0,30.05,NE,55,18.0,21.0,52,0.00,,---,0.00,VWS V14.00,2013-03-20 19:28:00,
2013-03-20 14:29:00,76.7,57.8,30.05,ENE,65,18.0,19.0,52,0.00,,---,0.00,VWS V14.00,2013-03-20 19:29:00,
2013-03-20 14:30:00,77.1,58.1,30.04,NE,41,14.0,17.0,52,0.00,,---,0.00,VWS V14.00,2013-03-20 19:30:00,
2013-03-20 14:31:00,76.6,58.7,30.04,NNE,28,15.0,22.0,54,0.00,,---,0.00,VWS V14.00,2013-03-20 19:31:00,
2013-03-20 14:32:00,77.0,58.6,30.04,NNE,30,17.0,22.0,53,0.00,,---,0.00,VWS V14.00,2013-03-20 19:32:00,
2013-03-20 14:33:00,77.2,58.2,30.04,NE,36,13.0,17.0,52,0.00,,---,0.00,VWS V14.00,2013-03-20 19:33:00,
2013-03-20 14:34:00,77.3,58.3,30.04,NNE,30,18.0,24.0,52,0.00,,---,0.00,VWS V14.00,2013-03-20 19:34:00,
2013-03-20 14:35:00,77.4,57.9,30.04,NNE,22,7.0,10.0,51,0.00,,---,0.00,VWS V14.00,2013-03-20 19:35:00,
2013-03-20 14:36:00,77.5,58.0,30.04,NE,38,19.0,22.0,51,0.00,,---,0.00,VWS V14.00,2013-03-20 19:36:00,
2013-03-20 14:37:00,77.5,58.0,30.04,NNE,31,10.0,19.0,51,0.00,,---,0.00,VWS V14.00,2013-03-20 19:37:00,
2013-03-20 14:38:00,77.4,57.9,30.04,NNE,32,11.0,20.0,51,0.00,,---,0.00,VWS V14.00,2013-03-20 19:38:00,
2013-03-20 14:39:00,77.2,57.7,30.04,NE,46,11.0,14.0,51,0.00,,---,0.00,VWS V14.00,2013-03-20 19:39:00,
2013-03-20 14:40:00,77.1,58.1,30.04,NNE,31,20.0,20.0,52,0.00,,---,0.00,VWS V14.00,2013-03-20 19:40:00,
2013-03-20 14:41:00,77.0,58.0,30.04,NNE,26,19.0,20.0,52,0.00,,---,0.00,VWS V14.00,2013-03-20 19:41:00,
2013-03-20 14:42:00,77.1,58.1,30.04,NNE,28,18.0,22.0,52,0.00,,---,0.00,VWS V14.00,2013-03-20 19:42:00,
2013-03-20 14:43:00,77.2,57.7,30.04,NNE,29,15.0,23.0,51,0.00,,---,0.00,VWS V14.00,2013-03-20 19:43:00,
2013-03-20 14:44:00,77.2,57.7,30.04,NNE,31,11.0,16.0,51,0.00,,---,0.00,VWS V14.00,2013-03-20 19:44:00,
2013-03-20 14:45:00,77.5,57.4,30.04,NNE,30,12.0,18.0,50,0.00,,---,0.00,VWS V14.00,2013-03-20 19:45:00,
2013-03-20 14:46:00,77.7,58.2,30.04,NNE,15,19.0,25.0,51,0.00,,---,0.00,VWS V14.00,2013-03-20 19:46:00,
2013-03-20 14:47:00,77.6,57.5,30.04,NNE,32,18.0,21.0,50,0.00,,---,0.00,VWS V14.00,2013-03-20 19:47:00,
2013-03-20 14:48:00,77.4,57.9,30.04,NE,38,9.0,18.0,51,0.00,,---,0.00,VWS V14.00,2013-03-20 19:48:00,
2013-03-20 14:49:00,77.1,57.6,30.04,NE,37,12.0,12.0,51,0.00,,---,0.00,VWS V14.00,2013-03-20 19:49:00,
2013-03-20 14:50:00,77.2,57.7,30.04,NNE,24,15.0,15.0,51,0.00,,---,0.00,VWS V14.00,2013-03-20 19:50:00,
2013-03-20 14:51:00,77.1,58.7,30.04,NNE,23,14.0,16.0,53,0.00,,---,0.00,VWS V14.00,2013-03-20 19:51:00,
2013-03-20 14:52:00,77.2,57.7,30.04,NE,38,12.0,14.0,51,0.00,,---,0.00,VWS V14.00,2013-03-20 19:52:00,
2013-03-20 14:53:00,77.3,58.3,30.04,NE,46,17.0,17.0,52,0.00,,---,0.00,VWS V14.00,2013-03-20 19:53:00,
2013-03-20 14:54:00,77.1,57.6,30.04,NNE,22,12.0,12.0,51,0.00,,---,0.00,VWS V14.00,2013-03-20 19:54:00,
2013-03-20 14:55:00,77.3,57.2,30.04,NE,56,11.0,19.0,50,0.00,,---,0.00,VWS V14.00,2013-03-20 19:55:00,
2013-03-20 14:56:00,77.1,57.6,30.04,North,10,7.0,20.0,51,0.00,,---,0.00,VWS V14.00,2013-03-20 19:56:00,
2013-03-20 14:57:00,77.1,57.6,30.04,NNE,26,5.0,16.0,51,0.00,,---,0.00,VWS V14.00,2013-03-20 19:57:00,
2013-03-20 14:58:00,77.2,58.2,30.04,NNE,28,19.0,22.0,52,0.00,,---,0.00,VWS V14.00,2013-03-20 19:58:00,
2013-03-20 14:59:00,77.5,57.4,30.03,NE,45,18.0,20.0,50,0.00,,---,0.00,VWS V14.00,2013-03-20 19:59:00,
2013-03-20 15:00:00,77.6,58.1,30.04,NNE,12,16.0,16.0,51,0.00,,---,0.00,VWS V14.00,2013-03-20 20:00:00,
2013-03-20 15:01:00,77.8,58.2,30.03,NNE,26,12.0,19.0,51,0.00,,---,0.00,VWS V14.00,2013-03-20 20:01:00,
2013-03-20 15:02:00,77.6,57.5,30.03,NE,56,13.0,13.0,50,0.00,,---,0.00,VWS V14.00,2013-03-20 20:02:00,
2013-03-20 15:03:00,77.6,57.5,30.03,NNE,31,19.0,22.0,50,0.00,,---,0.00,VWS V14.00,2013-03-20 20:03:00,
2013-03-20 15:04:00,77.7,58.2,30.03,NNE,22,15.0,15.0,51,0.00,,---,0.00,VWS V14.00,2013-03-20 20:04:00,
2013-03-20 15:05:00,77.7,57.6,30.03,NNE,33,8.0,19.0,50,0.00,,---,0.00,VWS V14.00,2013-03-20 20:05:00,
2013-03-20 15:06:00,77.7,57.6,30.03,NE,44,8.0,14.0,50,0.00,,---,0.00,VWS V14.00,2013-03-20 20:06:00,
2013-03-20 15:07:00,77.7,58.2,30.03,NE,38,3.0,13.0,51,0.00,,---,0.00,VWS V14.00,2013-03-20 20:07:00,
2013-03-20 15:08:00,77.8,58.2,30.03,NNE,24,10.0,16.0,51,0.00,,---,0.00,VWS V14.00,2013-03-20 20:08:00,
2013-03-20 15:09:00,77.0,57.5,30.03,ENE,58,14.0,14.0,51,0.00,,---,0.00,VWS V14.00,2013-03-20 20:09:00,
2013-03-20 15:10:00,77.5,58.0,30.03,NNE,30,8.0,9.0,51,0.00,,---,0.00,VWS V14.00,2013-03-20 20:10:00,
2013-03-20 15:11:00,77.3,57.8,30.03,NE,51,17.0,17.0,51,0.00,,---,0.00,VWS V14.00,2013-03-20 20:11:00,
2013-03-20 15:12:00,77.1,57.6,30.03,ENE,65,11.0,17.0,51,0.00,,---,0.00,VWS V14.00,2013-03-20 20:12:00,
2013-03-20 15:14:00,77.1,57.6,30.03,NNE,22,16.0,16.0,51,0.00,,---,0.00,VWS V14.00,2013-03-20 20:14:00,
2013-03-20 15:15:00,77.0,57.5,30.03,NNE,30,16.0,21.0,51,0.00,,---,0.00,VWS V14.00,2013-03-20 20:15:00,
2013-03-20 15:16:00,77.1,57.6,30.03,NE,51,8.0,16.0,51,0.00,,---,0.00,VWS V14.00,2013-03-20 20:16:00,
2013-03-20 15:17:00,77.1,57.6,30.03,NNE,31,5.0,15.0,51,0.00,,---,0.00,VWS V14.00,2013-03-20 20:17:00,
2013-03-20 15:18:00,77.1,57.6,30.03,NE,38,17.0,17.0,51,0.00,,---,0.00,VWS V14.00,2013-03-20 20:18:00,
2013-03-20 15:19:00,77.4,57.9,30.02,NE,49,22.0,23.0,51,0.00,,---,0.00,VWS V14.00,2013-03-20 20:19:00,
2013-03-20 15:20:00,76.8,57.3,30.03,NNE,28,0.0,11.0,51,0.00,,---,0.00,VWS V14.00,2013-03-20 20:20:00,
2013-03-20 15:21:00,76.9,58.0,30.03,NE,38,18.0,18.0,52,0.00,,---,0.00,VWS V14.00,2013-03-20 20:21:00,
2013-03-20 15:22:00,77.3,57.8,30.03,NNE,26,19.0,24.0,51,0.00,,---,0.00,VWS V14.00,2013-03-20 20:22:00,
2013-03-20 15:23:00,77.6,57.5,30.02,NE,56,19.0,25.0,50,0.00,,---,0.00,VWS V14.00,2013-03-20 20:23:00,
2013-03-20 15:24:00,77.3,57.8,30.03,NE,45,10.0,14.0,51,0.00,,---,0.00,VWS V14.00,2013-03-20 20:24:00,
2013-03-20 15:25:00,77.3,57.2,30.03,NE,46,15.0,18.0,50,0.00,,---,0.00,VWS V14.00,2013-03-20 20:25:00,
2013-03-20 15:26:00,77.2,57.1,30.03,NNE,26,13.0,18.0,50,0.00,,---,0.00,VWS V14.00,2013-03-20 20:26:00,
2013-03-20 15:27:00,77.3,57.8,30.03,NE,41,14.0,16.0,51,0.00,,---,0.00,VWS V14.00,2013-03-20 20:27:00,
2013-03-20 15:28:00,77.3,57.2,30.03,NE,38,7.0,14.0,50,0.00,,---,0.00,VWS V14.00,2013-03-20 20:28:00,
2013-03-20 15:29:00,77.0,58.0,30.03,NE,47,13.0,15.0,52,0.00,,---,0.00,VWS V14.00,2013-03-20 20:29:00,
2013-03-20 15:30:00,76.9,57.4,30.03,NNE,26,7.0,10.0,51,0.00,,---,0.00,VWS V14.00,2013-03-20 20:30:00,
2013-03-20 15:31:00,76.8,57.3,30.03,NE,40,11.0,11.0,51,0.00,,---,0.00,VWS V14.00,2013-03-20 20:31:00,
2013-03-20 15:32:00,77.0,58.0,30.03,NNE,32,14.0,14.0,52,0.00,,---,0.00,VWS V14.00,2013-03-20 20:32:00,
2013-03-20 15:33:00,77.1,57.6,30.03,NE,44,12.0,17.0,51,0.00,,---,0.00,VWS V14.00,2013-03-20 20:33:00,
2013-03-20 15:34:00,76.6,57.7,30.02,NNE,28,13.0,13.0,52,0.00,,---,0.00,VWS V14.00,2013-03-20 20:34:00,
2013-03-20 15:35:00,77.2,57.7,30.03,NNE,28,15.0,19.0,51,0.00,,---,0.00,VWS V14.00,2013-03-20 20:35:00,
2013-03-20 15:36:00,77.2,57.1,30.03,ENE,76,11.0,16.0,50,0.00,,---,0.00,VWS V14.00,2013-03-20 20:36:00,
2013-03-20 15:37:00,76.7,56.7,30.02,ENE,74,11.0,11.0,50,0.00,,---,0.00,VWS V14.00,2013-03-20 20:37:00,
2013-03-20 15:38:00,76.6,57.7,30.02,NE,46,21.0,22.0,52,0.00,,---,0.00,VWS V14.00,2013-03-20 20:38:00,
2013-03-20 15:39:00,76.8,57.3,30.02,NNE,33,7.0,8.0,51,0.00,,---,0.00,VWS V14.00,2013-03-20 20:39:00,
2013-03-20 15:40:00,77.1,57.6,30.02,NE,52,10.0,15.0,51,0.00,,---,0.00,VWS V14.00,2013-03-20 20:40:00,
2013-03-20 15:41:00,77.0,57.5,30.02,NE,41,8.0,13.0,51,0.00,,---,0.00,VWS V14.00,2013-03-20 20:41:00,
2013-03-20 15:42:00,76.9,57.4,30.02,NE,40,6.0,10.0,51,0.00,,---,0.00,VWS V14.00,2013-03-20 20:42:00,
2013-03-20 15:43:00,76.8,57.9,30.02,NE,41,6.0,9.0,52,0.00,,---,0.00,VWS V14.00,2013-03-20 20:43:00,
2013-03-20 15:44:00,77.2,57.1,30.02,NNE,26,6.0,7.0,50,0.00,,---,0.00,VWS V14.00,2013-03-20 20:44:00,
2013-03-20 15:45:00,77.2,58.2,30.02,NNE,30,14.0,22.0,52,0.00,,---,0.00,VWS V14.00,2013-03-20 20:45:00,
2013-03-20 15:46:00,77.6,57.5,30.02,NE,53,7.0,15.0,50,0.00,,---,0.00,VWS V14.00,2013-03-20 20:46:00,
2013-03-20 15:47:00,77.3,57.2,30.02,East,81,6.0,10.0,50,0.00,,---,0.00,VWS V14.00,2013-03-20 20:47:00,
2013-03-20 15:48:00,77.1,57.0,30.02,NNE,30,5.0,7.0,50,0.00,,---,0.00,VWS V14.00,2013-03-20 20:48:00,
2013-03-20 15:49:00,76.7,57.2,30.02,NE,56,14.0,14.0,51,0.00,,---,0.00,VWS V14.00,2013-03-20 20:49:00,
2013-03-20 15:51:00,76.7,57.2,30.02,NE,50,10.0,16.0,51,0.00,,---,0.00,VWS V14.00,2013-03-20 20:51:00,
2013-03-20 15:53:00,76.7,57.8,30.02,East,82,6.0,17.0,52,0.00,,---,0.00,VWS V14.00,2013-03-20 20:53:00,
2013-03-20 15:54:00,76.5,57.0,30.01,NNE,19,9.0,9.0,51,0.00,,---,0.00,VWS V14.00,2013-03-20 20:54:00,
2013-03-20 15:55:00,76.8,57.9,30.02,NNE,20,16.0,16.0,52,0.00,,---,0.00,VWS V14.00,2013-03-20 20:55:00,
2013-03-20 15:57:00,76.5,57.0,30.01,NNE,14,0.0,9.0,51,0.00,,---,0.00,VWS V14.00,2013-03-20 20:57:00,
2013-03-20 15:58:00,76.4,57.5,30.01,NNE,24,8.0,13.0,52,0.00,,---,0.00,VWS V14.00,2013-03-20 20:58:00,
2013-03-20 15:59:00,76.5,58.1,30.02,NNE,32,11.0,11.0,53,0.00,,---,0.00,VWS V14.00,2013-03-20 20:59:00,
2013-03-20 16:00:00,76.5,57.0,30.02,NE,55,13.0,14.0,51,0.00,,---,0.00,VWS V14.00,2013-03-20 21:00:00,
2013-03-20 16:02:00,76.4,58.0,30.02,NNE,15,6.0,12.0,53,0.00,,---,0.00,VWS V14.00,2013-03-20 21:02:00,
2013-03-20 16:03:00,76.6,57.7,30.02,ENE,59,11.0,12.0,52,0.00,,---,0.00,VWS V14.00,2013-03-20 21:03:00,
2013-03-20 16:04:00,77.7,58.2,30.01,NE,49,11.0,11.0,51,0.00,,---,0.00,VWS V14.00,2013-03-20 21:04:00,
2013-03-20 16:05:00,77.2,57.7,30.02,NNE,22,9.0,17.0,51,0.00,,---,0.00,VWS V14.00,2013-03-20 21:05:00,
2013-03-20 16:06:00,77.5,58.0,30.02,NE,40,9.0,12.0,51,0.00,,---,0.00,VWS V14.00,2013-03-20 21:06:00,
2013-03-20 16:07:00,77.6,57.5,30.01,NNE,24,9.0,11.0,50,0.00,,---,0.00,VWS V14.00,2013-03-20 21:07:00,
2013-03-20 16:08:00,77.7,57.6,30.01,NNE,28,8.0,14.0,50,0.00,,---,0.00,VWS V14.00,2013-03-20 21:08:00,
2013-03-20 16:09:00,78.1,58.5,30.01,North,9,4.0,15.0,51,0.00,,---,0.00,VWS V14.00,2013-03-20 21:09:00,
2013-03-20 16:10:00,77.8,58.2,30.01,NNE,33,12.0,14.0,51,0.00,,---,0.00,VWS V14.00,2013-03-20 21:10:00,
2013-03-20 16:11:00,77.9,58.3,30.01,NE,36,7.0,12.0,51,0.00,,---,0.00,VWS V14.00,2013-03-20 21:11:00,
2013-03-20 16:12:00,78.0,57.9,30.01,NNE,18,10.0,14.0,50,0.00,,---,0.00,VWS V14.00,2013-03-20 21:12:00,
2013-03-20 16:13:00,78.2,58.6,30.01,NE,37,16.0,19.0,51,0.00,,---,0.00,VWS V14.00,2013-03-20 21:13:00,
2013-03-20 16:14:00,78.7,58.0,30.01,NE,55,12.0,12.0,49,0.00,,---,0.00,VWS V14.00,2013-03-20 21:14:00,
2013-03-20 16:15:00,78.5,57.8,30.01,NE,46,12.0,19.0,49,0.00,,---,0.00,VWS V14.00,2013-03-20 21:15:00,
2013-03-20 16:16:00,78.6,57.9,30.01,NE,34,12.0,15.0,49,0.00,,---,0.00,VWS V14.00,2013-03-20 21:16:00,
2013-03-20 16:17:00,78.7,58.0,30.01,NNE,28,11.0,17.0,49,0.00,,---,0.00,VWS V14.00,2013-03-20 21:17:00,
2013-03-20 16:18:00,78.7,58.0,30.01,NE,36,13.0,14.0,49,0.00,,---,0.00,VWS V14.00,2013-03-20 21:18:00,
2013-03-20 16:19:00,77.2,57.1,30.01,NE,53,16.0,20.0,50,0.00,,---,0.00,VWS V14.00,2013-03-20 21:19:00,
2013-03-20 16:20:00,78.2,57.5,30.01,ENE,65,13.0,22.0,49,0.00,,---,0.00,VWS V14.00,2013-03-20 21:20:00,
2013-03-20 16:21:00,77.6,57.0,30.01,NE,54,12.0,18.0,49,0.00,,---,0.00,VWS V14.00,2013-03-20 21:21:00,
2013-03-20 16:22:00,77.2,57.1,30.01,ENE,62,14.0,17.0,50,0.00,,---,0.00,VWS V14.00,2013-03-20 21:22:00,
2013-03-20 16:23:00,77.1,57.0,30.01,NE,53,15.0,20.0,50,0.00,,---,0.00,VWS V14.00,2013-03-20 21:23:00,
2013-03-20 16:24:00,76.7,57.2,30.01,NNE,26,10.0,14.0,51,0.00,,---,0.00,VWS V14.00,2013-03-20 21:24:00,
2013-03-20 16:25:00,76.9,57.4,30.01,NE,47,12.0,18.0,51,0.00,,---,0.00,VWS V14.00,2013-03-20 21:25:00,
2013-03-20 16:26:00,76.8,57.3,30.01,NE,55,12.0,14.0,51,0.00,,---,0.00,VWS V14.00,2013-03-20 21:26:00,
2013-03-20 16:27:00,76.6,57.1,30.01,North,5,12.0,16.0,51,0.00,,---,0.00,VWS V14.00,2013-03-20 21:27:00,
2013-03-20 16:28:00,76.7,57.2,30.01,North,5,6.0,14.0,51,0.00,,---,0.00,VWS V14.00,2013-03-20 21:28:00,
2013-03-20 16:29:00,76.8,57.3,30.01,ENE,78,12.0,12.0,51,0.00,,---,0.00,VWS V14.00,2013-03-20 21:29:00,
2013-03-20 16:30:00,76.6,57.1,30.01,NNE,19,9.0,10.0,51,0.00,,---,0.00,VWS V14.00,2013-03-20 21:30:00,
2013-03-20 16:31:00,76.7,57.2,30.01,ENE,71,12.0,13.0,51,0.00,,---,0.00,VWS V14.00,2013-03-20 21:31:00,
2013-03-20 16:32:00,76.8,57.3,30.01,ENE,71,8.0,13.0,51,0.00,,---,0.00,VWS V14.00,2013-03-20 21:32:00,
2013-03-20 16:33:00,76.7,57.2,30.01,East,86,14.0,14.0,51,0.00,,---,0.00,VWS V14.00,2013-03-20 21:33:00,
2013-03-20 16:34:00,76.4,57.0,30.01,NE,40,7.0,9.0,51,0.00,,---,0.00,VWS V14.00,2013-03-20 21:34:00,
2013-03-20 16:35:00,76.4,57.0,30.01,ENE,63,7.0,10.0,51,0.00,,---,0.00,VWS V14.00,2013-03-20 21:35:00,
2013-03-20 16:36:00,76.4,57.0,30.01,NE,47,14.0,15.0,51,0.00,,---,0.00,VWS V14.00,2013-03-20 21:36:00,
2013-03-20 16:37:00,76.4,57.0,30.01,NE,40,8.0,16.0,51,0.00,,---,0.00,VWS V14.00,2013-03-20 21:37:00,
2013-03-20 16:38:00,76.4,57.0,30.01,NE,40,8.0,9.0,51,0.00,,---,0.00,VWS V14.00,2013-03-20 21:38:00,
2013-03-20 16:39:00,76.4,57.0,30.00,NE,35,9.0,10.0,51,0.00,,---,0.00,VWS V14.00,2013-03-20 21:39:00,
2013-03-20 16:40:00,76.3,56.9,30.00,NE,42,8.0,14.0,51,0.00,,---,0.00,VWS V14.00,2013-03-20 21:40:00,
2013-03-20 16:41:00,76.3,56.9,30.00,NE,38,12.0,12.0,51,0.00,,---,0.00,VWS V14.00,2013-03-20 21:41:00,
2013-03-20 16:42:00,76.3,56.9,30.00,NE,35,9.0,13.0,51,0.00,,---,0.00,VWS V14.00,2013-03-20 21:42:00,
2013-03-20 16:43:00,76.4,57.0,30.00,NE,47,15.0,15.0,51,0.00,,---,0.00,VWS V14.00,2013-03-20 21:43:00,
2013-03-20 16:44:00,76.7,56.1,30.00,NE,43,12.0,13.0,49,0.00,,---,0.00,VWS V14.00,2013-03-20 21:44:00,
2013-03-20 16:45:00,76.8,56.8,30.00,NE,43,13.0,18.0,50,0.00,,---,0.00,VWS V14.00,2013-03-20 21:45:00,
2013-03-20 16:46:00,76.8,56.8,30.00,NE,42,13.0,17.0,50,0.00,,---,0.00,VWS V14.00,2013-03-20 21:46:00,
2013-03-20 16:47:00,76.7,56.1,30.00,NE,46,13.0,16.0,49,0.00,,---,0.00,VWS V14.00,2013-03-20 21:47:00,
2013-03-20 16:48:00,76.7,56.1,30.00,NE,40,14.0,16.0,49,0.00,,---,0.00,VWS V14.00,2013-03-20 21:48:00,
2013-03-20 16:49:00,76.4,56.4,30.00,NE,41,9.0,9.0,50,0.00,,---,0.00,VWS V14.00,2013-03-20 21:49:00,
2013-03-20 16:50:00,76.6,56.6,30.00,NNE,30,10.0,12.0,50,0.00,,---,0.00,VWS V14.00,2013-03-20 21:50:00,
2013-03-20 16:51:00,76.5,56.5,30.00,NNE,31,10.0,11.0,50,0.00,,---,0.00,VWS V14.00,2013-03-20 21:51:00,
2013-03-20 16:52:00,76.4,56.4,30.00,NE,41,7.0,13.0,50,0.00,,---,0.00,VWS V14.00,2013-03-20 21:52:00,
2013-03-20 16:53:00,76.4,56.4,30.00,NE,50,8.0,17.0,50,0.00,,---,0.00,VWS V14.00,2013-03-20 21:53:00,
2013-03-20 16:54:00,76.5,56.5,30.00,NE,53,10.0,11.0,50,0.00,,---,0.00,VWS V14.00,2013-03-20 21:54:00,
2013-03-20 16:55:00,76.4,56.4,30.00,NE,50,10.0,12.0,50,0.00,,---,0.00,VWS V14.00,2013-03-20 21:55:00,
2013-03-20 16:56:00,76.4,56.4,30.00,NE,55,13.0,17.0,50,0.00,,---,0.00,VWS V14.00,2013-03-20 21:56:00,
2013-03-20 16:57:00,76.5,56.5,30.00,NE,53,11.0,14.0,50,0.00,,---,0.00,VWS V14.00,2013-03-20 21:57:00,
2013-03-20 16:58:00,76.4,56.4,30.00,NE,53,8.0,11.0,50,0.00,,---,0.00,VWS V14.00,2013-03-20 21:58:00,
2013-03-20 16:59:00,76.3,56.3,30.00,NE,34,9.0,11.0,50,0.00,,---,0.00,VWS V14.00,2013-03-20 21:59:00,
2013-03-20 17:00:00,76.2,56.2,30.00,NE,42,16.0,16.0,50,0.00,,---,0.00,VWS V14.00,2013-03-20 22:00:00,
2013-03-20 17:01:00,76.3,56.3,30.00,NE,34,17.0,18.0,50,0.00,,---,0.00,VWS V14.00,2013-03-20 22:01:00,
2013-03-20 17:02:00,76.3,56.3,30.00,NE,34,10.0,17.0,50,0.00,,---,0.00,VWS V14.00,2013-03-20 22:02:00,
2013-03-20 17:03:00,76.3,56.3,30.00,NE,34,9.0,11.0,50,0.00,,---,0.00,VWS V14.00,2013-03-20 22:03:00,
2013-03-20 17:04:00,76.3,56.3,30.00,NNE,33,0.0,11.0,50,0.00,,---,0.00,VWS V14.00,2013-03-20 22:04:00,
2013-03-20 17:05:00,76.2,56.2,29.99,NE,34,8.0,9.0,50,0.00,,---,0.00,VWS V14.00,2013-03-20 22:05:00,
2013-03-20 17:06:00,76.3,56.3,30.00,NNE,33,6.0,8.0,50,0.00,,---,0.00,VWS V14.00,2013-03-20 22:06:00,
2013-03-20 17:07:00,76.3,56.3,29.99,NE,34,9.0,9.0,50,0.00,,---,0.00,VWS V14.00,2013-03-20 22:07:00,
2013-03-20 17:08:00,76.2,56.2,29.99,ENE,57,14.0,14.0,50,0.00,,---,0.00,VWS V14.00,2013-03-20 22:08:00,
2013-03-20 17:09:00,76.3,56.3,30.00,ENE,58,10.0,18.0,50,0.00,,---,0.00,VWS V14.00,2013-03-20 22:09:00,
2013-03-20 17:10:00,76.4,56.4,30.00,NE,36,13.0,16.0,50,0.00,,---,0.00,VWS V14.00,2013-03-20 22:10:00,
2013-03-20 17:11:00,76.4,56.4,30.00,NE,55,11.0,14.0,50,0.00,,---,0.00,VWS V14.00,2013-03-20 22:11:00,
2013-03-20 17:12:00,76.4,56.4,30.00,NE,39,16.0,16.0,50,0.00,,---,0.00,VWS V14.00,2013-03-20 22:12:00,
2013-03-20 17:13:00,76.5,56.5,30.00,NNE,32,14.0,16.0,50,0.00,,---,0.00,VWS V14.00,2013-03-20 22:13:00,
2013-03-20 17:14:00,76.5,55.9,30.00,NNE,32,12.0,14.0,49,0.00,,---,0.00,VWS V14.00,2013-03-20 22:14:00,
2013-03-20 17:15:00,76.5,55.9,29.99,NNE,32,13.0,13.0,49,0.00,,---,0.00,VWS V14.00,2013-03-20 22:15:00,
2013-03-20 17:16:00,76.5,55.9,29.99,NNE,32,12.0,12.0,49,0.00,,---,0.00,VWS V14.00,2013-03-20 22:16:00,
2013-03-20 17:17:00,76.4,55.8,29.99,NE,36,11.0,13.0,49,0.00,,---,0.00,VWS V14.00,2013-03-20 22:17:00,
2013-03-20 17:18:00,76.5,55.9,29.99,NNE,33,13.0,14.0,49,0.00,,---,0.00,VWS V14.00,2013-03-20 22:18:00,
2013-03-20 17:19:00,76.5,55.9,29.99,NE,36,10.0,13.0,49,0.00,,---,0.00,VWS V14.00,2013-03-20 22:19:00,
2013-03-20 17:20:00,76.3,55.8,29.99,NE,36,9.0,10.0,49,0.00,,---,0.00,VWS V14.00,2013-03-20 22:20:00,
2013-03-20 17:21:00,76.4,55.8,29.99,NE,36,4.0,10.0,49,0.00,,---,0.00,VWS V14.00,2013-03-20 22:21:00,
2013-03-20 17:22:00,76.4,55.8,29.99,NE,36,7.0,7.0,49,0.00,,---,0.00,VWS V14.00,2013-03-20 22:22:00,
2013-03-20 17:23:00,76.3,55.8,29.99,NE,36,8.0,10.0,49,0.00,,---,0.00,VWS V14.00,2013-03-20 22:23:00,
2013-03-20 17:24:00,76.2,56.2,29.99,NE,36,9.0,13.0,50,0.00,,---,0.00,VWS V14.00,2013-03-20 22:24:00,
2013-03-20 17:25:00,76.4,56.4,29.99,NE,38,11.0,12.0,50,0.00,,---,0.00,VWS V14.00,2013-03-20 22:25:00,
2013-03-20 17:26:00,76.2,56.2,29.99,NE,36,9.0,9.0,50,0.00,,---,0.00,VWS V14.00,2013-03-20 22:26:00,
2013-03-20 17:27:00,76.3,56.3,29.99,NE,36,7.0,10.0,50,0.00,,---,0.00,VWS V14.00,2013-03-20 22:27:00,
2013-03-20 17:28:00,76.5,56.5,29.99,NE,38,12.0,12.0,50,0.00,,---,0.00,VWS V14.00,2013-03-20 22:28:00,
2013-03-20 17:29:00,76.7,56.7,29.99,ENE,57,15.0,23.0,50,0.00,,---,0.00,VWS V14.00,2013-03-20 22:29:00,
2013-03-20 17:30:00,77.4,56.8,29.99,NE,55,17.0,17.0,49,0.00,,---,0.00,VWS V14.00,2013-03-20 22:30:00,
2013-03-20 17:31:00,77.3,56.7,29.99,NE,42,12.0,16.0,49,0.00,,---,0.00,VWS V14.00,2013-03-20 22:31:00,
2013-03-20 17:32:00,77.3,56.7,29.99,NE,42,11.0,12.0,49,0.00,,---,0.00,VWS V14.00,2013-03-20 22:32:00,
2013-03-20 17:33:00,77.5,56.9,29.99,ENE,59,12.0,17.0,49,0.00,,---,0.00,VWS V14.00,2013-03-20 22:33:00,
2013-03-20 17:34:00,77.4,56.2,29.99,ENE,58,13.0,17.0,48,0.00,,---,0.00,VWS V14.00,2013-03-20 22:34:00,
2013-03-20 17:35:00,77.2,56.6,29.99,ENE,69,14.0,17.0,49,0.00,,---,0.00,VWS V14.00,2013-03-20 22:35:00,
2013-03-20 17:36:00,77.2,56.6,29.99,ENE,71,17.0,19.0,49,0.00,,---,0.00,VWS V14.00,2013-03-20 22:36:00,
2013-03-20 17:37:00,77.3,56.7,29.99,ENE,69,15.0,17.0,49,0.00,,---,0.00,VWS V14.00,2013-03-20 22:37:00,
2013-03-20 17:38:00,77.2,56.6,29.99,ENE,71,13.0,17.0,49,0.00,,---,0.00,VWS V14.00,2013-03-20 22:38:00,
2013-03-20 17:39:00,77.1,56.5,29.99,ENE,73,10.0,13.0,49,0.00,,---,0.00,VWS V14.00,2013-03-20 22:39:00,
2013-03-20 17:40:00,76.9,56.3,29.99,ENE,65,17.0,17.0,49,0.00,,---,0.00,VWS V14.00,2013-03-20 22:40:00,
2013-03-20 17:41:00,76.9,56.3,29.99,ENE,57,16.0,18.0,49,0.00,,---,0.00,VWS V14.00,2013-03-20 22:41:00,
2013-03-20 17:42:00,76.9,56.3,29.99,ENE,67,12.0,19.0,49,0.00,,---,0.00,VWS V14.00,2013-03-20 22:42:00,
2013-03-20 17:43:00,77.0,56.4,29.99,NE,51,20.0,20.0,49,0.00,,---,0.00,VWS V14.00,2013-03-20 22:43:00,
2013-03-20 17:44:00,77.0,55.8,29.99,NE,51,15.0,20.0,48,0.00,,---,0.00,VWS V14.00,2013-03-20 22:44:00,
2013-03-20 17:45:00,76.7,56.1,29.99,NE,44,10.0,10.0,49,0.00,,---,0.00,VWS V14.00,2013-03-20 22:45:00,
2013-03-20 17:46:00,76.8,56.2,29.99,NE,44,13.0,16.0,49,0.00,,---,0.00,VWS V14.00,2013-03-20 22:46:00,
2013-03-20 17:47:00,76.7,56.1,29.99,NE,44,8.0,14.0,49,0.00,,---,0.00,VWS V14.00,2013-03-20 22:47:00,
2013-03-20 17:48:00,76.6,56.0,29.99,NE,49,12.0,15.0,49,0.00,,---,0.00,VWS V14.00,2013-03-20 22:48:00,
2013-03-20 17:49:00,76.5,55.9,29.99,NE,42,17.0,17.0,49,0.00,,---,0.00,VWS V14.00,2013-03-20 22:49:00,
2013-03-20 17:50:00,76.2,56.2,29.99,NE,40,9.0,14.0,50,0.00,,---,0.00,VWS V14.00,2013-03-20 22:50:00,
2013-03-20 17:51:00,76.2,55.7,29.99,NE,55,15.0,17.0,49,0.00,,---,0.00,VWS V14.00,2013-03-20 22:51:00,
2013-03-20 17:52:00,76.2,55.7,29.99,NE,42,14.0,16.0,49,0.00,,---,0.00,VWS V14.00,2013-03-20 22:52:00,
2013-03-20 17:53:00,76.2,56.2,29.99,NE,41,13.0,16.0,50,0.00,,---,0.00,VWS V14.00,2013-03-20 22:53:00,
2013-03-20 17:54:00,76.1,56.1,29.99,NE,42,11.0,14.0,50,0.00,,---,0.00,VWS V14.00,2013-03-20 22:54:00,
2013-03-20 17:55:00,76.0,56.0,29.99,NE,40,17.0,17.0,50,0.00,,---,0.00,VWS V14.00,2013-03-20 22:55:00,
2013-03-20 17:56:00,76.0,56.0,29.99,NE,38,13.0,14.0,50,0.00,,---,0.00,VWS V14.00,2013-03-20 22:56:00,
2013-03-20 17:57:00,76.0,56.0,29.99,NE,38,11.0,13.0,50,0.00,,---,0.00,VWS V14.00,2013-03-20 22:57:00,
2013-03-20 17:58:00,76.0,56.0,29.99,NE,41,9.0,17.0,50,0.00,,---,0.00,VWS V14.00,2013-03-20 22:58:00,
2013-03-20 17:59:00,75.9,56.0,29.99,NE,42,10.0,14.0,50,0.00,,---,0.00,VWS V14.00,2013-03-20 22:59:00,
2013-03-20 18:00:00,75.9,56.0,29.99,NE,36,13.0,13.0,50,0.00,,---,0.00,VWS V14.00,2013-03-20 23:00:00,
2013-03-20 18:01:00,75.9,56.0,29.99,NE,43,10.0,12.0,50,0.00,,---,0.00,VWS V14.00,2013-03-20 23:01:00,
2013-03-20 18:02:00,75.9,56.0,29.99,NE,40,9.0,12.0,50,0.00,,---,0.00,VWS V14.00,2013-03-20 23:02:00,
2013-03-20 18:03:00,76.0,56.0,29.99,NE,55,13.0,20.0,50,0.00,,---,0.00,VWS V14.00,2013-03-20 23:03:00,
2013-03-20 18:04:00,76.1,56.1,29.99,NE,53,10.0,14.0,50,0.00,,---,0.00,VWS V14.00,2013-03-20 23:04:00,
2013-03-20 18:05:00,76.2,55.7,29.99,NE,53,11.0,13.0,49,0.00,,---,0.00,VWS V14.00,2013-03-20 23:05:00,
2013-03-20 18:06:00,76.2,55.7,29.99,NE,52,13.0,14.0,49,0.00,,---,0.00,VWS V14.00,2013-03-20 23:06:00,
2013-03-20 18:07:00,76.2,55.7,29.99,NE,52,13.0,16.0,49,0.00,,---,0.00,VWS V14.00,2013-03-20 23:07:00,
2013-03-20 18:08:00,76.2,55.7,29.99,NE,53,7.0,13.0,49,0.00,,---,0.00,VWS V14.00,2013-03-20 23:08:00,
2013-03-20 18:09:00,76.0,55.5,29.98,NE,55,11.0,11.0,49,0.00,,---,0.00,VWS V14.00,2013-03-20 23:09:00,
2013-03-20 18:10:00,76.0,56.0,29.98,NE,55,10.0,12.0,50,0.00,,---,0.00,VWS V14.00,2013-03-20 23:10:00,
2013-03-20 18:11:00,75.9,56.0,29.98,NE,55,10.0,13.0,50,0.00,,---,0.00,VWS V14.00,2013-03-20 23:11:00,
2013-03-20 18:12:00,75.9,56.0,29.98,NE,55,11.0,11.0,50,0.00,,---,0.00,VWS V14.00,2013-03-20 23:12:00,
2013-03-20 18:13:00,76.1,56.1,29.98,ENE,68,17.0,17.0,50,0.00,,---,0.00,VWS V14.00,2013-03-20 23:13:00,
2013-03-20 18:14:00,76.3,55.8,29.98,NE,49,20.0,20.0,49,0.00,,---,0.00,VWS V14.00,2013-03-20 23:14:00,
2013-03-20 18:15:00,76.5,55.9,29.98,ENE,63,11.0,13.0,49,0.00,,---,0.00,VWS V14.00,2013-03-20 23:15:00,
2013-03-20 18:16:00,76.6,56.0,29.98,ENE,63,12.0,14.0,49,0.00,,---,0.00,VWS V14.00,2013-03-20 23:16:00,
2013-03-20 18:17:00,76.5,55.9,29.98,ENE,63,12.0,17.0,49,0.00,,---,0.00,VWS V14.00,2013-03-20 23:17:00,
2013-03-20 18:18:00,76.4,55.8,29.98,ENE,63,6.0,13.0,49,0.00,,---,0.00,VWS V14.00,2013-03-20 23:18:00,
2013-03-20 18:19:00,76.3,55.8,29.98,ENE,59,14.0,17.0,49,0.00,,---,0.00,VWS V14.00,2013-03-20 23:19:00,
2013-03-20 18:20:00,76.0,56.0,29.98,East,82,14.0,17.0,50,0.00,,---,0.00,VWS V14.00,2013-03-20 23:20:00,
2013-03-20 18:21:00,76.1,55.6,29.98,ENE,61,12.0,15.0,49,0.00,,---,0.00,VWS V14.00,2013-03-20 23:21:00,
2013-03-20 18:22:00,76.1,56.1,29.98,ENE,73,13.0,15.0,50,0.00,,---,0.00,VWS V14.00,2013-03-20 23:22:00,
2013-03-20 18:23:00,75.9,56.0,29.98,East,82,11.0,17.0,50,0.00,,---,0.00,VWS V14.00,2013-03-20 23:23:00,
2013-03-20 18:24:00,75.6,55.7,29.98,East,82,11.0,13.0,50,0.00,,---,0.00,VWS V14.00,2013-03-20 23:24:00,
2013-03-20 18:25:00,75.3,55.4,29.98,ENE,78,12.0,15.0,50,0.00,,---,0.00,VWS V14.00,2013-03-20 23:25:00,
2013-03-20 18:26:00,75.5,55.6,29.99,ENE,78,13.0,17.0,50,0.00,,---,0.00,VWS V14.00,2013-03-20 23:26:00,
2013-03-20 18:27:00,75.4,55.5,29.99,ENE,78,14.0,14.0,50,0.00,,---,0.00,VWS V14.00,2013-03-20 23:27:00,
2013-03-20 18:28:00,75.2,55.3,29.98,ENE,78,11.0,15.0,50,0.00,,---,0.00,VWS V14.00,2013-03-20 23:28:00,
2013-03-20 18:29:00,75.2,55.8,29.98,East,80,11.0,14.0,51,0.00,,---,0.00,VWS V14.00,2013-03-20 23:29:00,
2013-03-20 18:30:00,75.1,56.8,29.98,East,97,12.0,19.0,53,0.00,,---,0.00,VWS V14.00,2013-03-20 23:30:00,
2013-03-20 18:31:00,75.1,55.2,29.98,East,80,13.0,14.0,50,0.00,,---,0.00,VWS V14.00,2013-03-20 23:31:00,
2013-03-20 18:32:00,75.2,55.3,29.98,East,93,18.0,20.0,50,0.00,,---,0.00,VWS V14.00,2013-03-20 23:32:00,
2013-03-20 18:33:00,75.0,56.7,29.98,East,94,16.0,19.0,53,0.00,,---,0.00,VWS V14.00,2013-03-20 23:33:00,
2013-03-20 18:34:00,74.5,56.8,29.98,East,98,16.0,21.0,54,0.00,,---,0.00,VWS V14.00,2013-03-20 23:34:00,
2013-03-20 18:35:00,73.5,57.3,29.99,East,95,19.0,21.0,57,0.00,,---,0.00,VWS V14.00,2013-03-20 23:35:00,
2013-03-20 18:36:00,74.0,56.8,29.98,East,93,18.0,22.0,55,0.00,,---,0.00,VWS V14.00,2013-03-20 23:36:00,
2013-03-20 18:37:00,73.7,57.0,29.99,East,91,21.0,23.0,56,0.00,,---,0.00,VWS V14.00,2013-03-20 23:37:00,
2013-03-20 18:38:00,73.4,57.3,29.99,East,97,16.0,22.0,57,0.00,,---,0.00,VWS V14.00,2013-03-20 23:38:00,
2013-03-20 18:39:00,73.2,57.5,29.99,East,96,22.0,22.0,58,0.00,,---,0.00,VWS V14.00,2013-03-20 23:39:00,
2013-03-20 18:40:00,72.9,57.3,29.99,East,95,16.0,19.0,58,0.00,,---,0.00,VWS V14.00,2013-03-20 23:40:00,
2013-03-20 18:41:00,73.0,57.4,29.99,East,101,14.0,19.0,58,0.00,,---,0.00,VWS V14.00,2013-03-20 23:41:00,
2013-03-20 18:42:00,72.9,57.3,29.99,East,96,15.0,21.0,58,0.00,,---,0.00,VWS V14.00,2013-03-20 23:42:00,
2013-03-20 18:43:00,72.8,57.2,29.99,East,94,18.0,19.0,58,0.00,,---,0.00,VWS V14.00,2013-03-20 23:43:00,
2013-03-20 18:44:00,72.8,57.7,29.99,East,96,20.0,22.0,59,0.00,,---,0.00,VWS V14.00,2013-03-20 23:44:00,
2013-03-20 18:45:00,72.4,58.2,29.99,East,98,14.0,21.0,61,0.00,,---,0.00,VWS V14.00,2013-03-20 23:45:00,
2013-03-20 18:46:00,72.7,58.5,29.99,ESE,110,16.0,20.0,61,0.00,,---,0.00,VWS V14.00,2013-03-20 23:46:00,
2013-03-20 18:47:00,72.5,58.3,29.99,East,99,19.0,22.0,61,0.00,,---,0.00,VWS V14.00,2013-03-20 23:47:00,
2013-03-20 18:48:00,72.3,58.1,29.99,East,98,15.0,21.0,61,0.00,,---,0.00,VWS V14.00,2013-03-20 23:48:00,
2013-03-20 18:49:00,72.2,58.0,29.99,East,97,16.0,21.0,61,0.00,,---,0.00,VWS V14.00,2013-03-20 23:49:00,
2013-03-20 18:50:00,71.8,57.6,29.99,East,94,18.0,18.0,61,0.00,,---,0.00,VWS V14.00,2013-03-20 23:50:00,
2013-03-20 18:51:00,72.0,57.8,29.99,East,94,16.0,22.0,61,0.00,,---,0.00,VWS V14.00,2013-03-20 23:51:00,
2013-03-20 18:52:00,71.9,57.7,29.99,East,96,13.0,18.0,61,0.00,,---,0.00,VWS V14.00,2013-03-20 23:52:00,
2013-03-20 18:53:00,71.8,57.2,29.99,East,93,14.0,20.0,60,0.00,,---,0.00,VWS V14.00,2013-03-20 23:53:00,
2013-03-20 18:54:00,71.8,57.2,29.99,East,86,13.0,21.0,60,0.00,,---,0.00,VWS V14.00,2013-03-20 23:54:00,
2013-03-20 18:55:00,71.4,56.3,29.99,East,84,21.0,21.0,59,0.00,,---,0.00,VWS V14.00,2013-03-20 23:55:00,
2013-03-20 18:56:00,71.5,56.9,29.99,East,90,20.0,22.0,60,0.00,,---,0.00,VWS V14.00,2013-03-20 23:56:00,
2013-03-20 18:57:00,71.4,56.8,29.99,East,88,15.0,23.0,60,0.00,,---,0.00,VWS V14.00,2013-03-20 23:57:00,
2013-03-20 18:58:00,71.4,56.3,29.99,East,91,21.0,22.0,59,0.00,,---,0.00,VWS V14.00,2013-03-20 23:58:00,
2013-03-20 18:59:00,71.3,56.2,29.99,East,96,19.0,23.0,59,0.00,,---,0.00,VWS V14.00,2013-03-20 23:59:00,
2013-03-20 19:00:00,71.1,56.5,29.99,East,94,19.0,19.0,60,0.00,,---,0.00,VWS V14.00,2013-03-21 00:00:00,
2013-03-20 19:01:00,71.1,56.1,29.99,East,98,15.0,21.0,59,0.00,,---,0.00,VWS V14.00,2013-03-21 00:01:00,
2013-03-20 19:02:00,71.1,56.5,29.99,East,94,19.0,19.0,60,0.00,,---,0.00,VWS V14.00,2013-03-21 00:02:00,
2013-03-20 19:03:00,71.0,56.4,29.99,East,94,15.0,19.0,60,0.00,,---,0.00,VWS V14.00,2013-03-21 00:03:00,
2013-03-20 19:04:00,71.0,56.4,29.99,East,94,18.0,21.0,60,0.00,,---,0.00,VWS V14.00,2013-03-21 00:04:00,
2013-03-20 19:05:00,70.6,57.0,29.99,ESE,105,22.0,22.0,62,0.00,,---,0.00,VWS V14.00,2013-03-21 00:05:00,
2013-03-20 19:06:00,70.7,57.1,29.99,East,92,16.0,20.0,62,0.00,,---,0.00,VWS V14.00,2013-03-21 00:06:00,
2013-03-20 19:07:00,70.6,57.0,29.99,East,94,19.0,20.0,62,0.00,,---,0.00,VWS V14.00,2013-03-21 00:07:00,
2013-03-20 19:08:00,70.5,56.9,29.99,East,101,20.0,22.0,62,0.00,,---,0.00,VWS V14.00,2013-03-21 00:08:00,
2013-03-20 19:09:00,70.4,56.8,29.99,East,98,18.0,21.0,62,0.00,,---,0.00,VWS V14.00,2013-03-21 00:09:00,
2013-03-20 19:10:00,70.2,57.0,29.99,East,98,19.0,21.0,63,0.00,,---,0.00,VWS V14.00,2013-03-21 00:10:00,
2013-03-20 19:11:00,70.2,57.0,29.99,East,95,15.0,23.0,63,0.00,,---,0.00,VWS V14.00,2013-03-21 00:11:00,
2013-03-20 19:12:00,70.2,57.0,29.99,East,101,19.0,22.0,63,0.00,,---,0.00,VWS V14.00,2013-03-21 00:12:00,
2013-03-20 19:13:00,70.1,56.9,29.99,East,94,22.0,23.0,63,0.00,,---,0.00,VWS V14.00,2013-03-21 00:13:00,
2013-03-20 19:14:00,70.0,56.8,29.99,East,94,16.0,22.0,63,0.00,,---,0.00,VWS V14.00,2013-03-21 00:14:00,
2013-03-20 19:15:00,69.7,56.6,29.99,East,101,20.0,21.0,63,0.00,,---,0.00,VWS V14.00,2013-03-21 00:15:00,
2013-03-20 19:16:00,69.8,56.7,29.99,East,100,19.0,19.0,63,0.00,,---,0.00,VWS V14.00,2013-03-21 00:16:00,
2013-03-20 19:17:00,69.8,56.7,29.99,East,101,19.0,21.0,63,0.00,,---,0.00,VWS V14.00,2013-03-21 00:17:00,
2013-03-20 19:18:00,69.7,56.6,29.99,East,96,20.0,21.0,63,0.00,,---,0.00,VWS V14.00,2013-03-21 00:18:00,
2013-03-20 19:19:00,69.6,56.5,29.99,East,101,20.0,20.0,63,0.00,,---,0.00,VWS V14.00,2013-03-21 00:19:00,
2013-03-20 19:20:00,69.4,55.8,29.99,East,92,18.0,21.0,62,0.00,,---,0.00,VWS V14.00,2013-03-21 00:20:00,
2013-03-20 19:21:00,69.5,55.9,29.99,East,101,15.0,24.0,62,0.00,,---,0.00,VWS V14.00,2013-03-21 00:21:00,
2013-03-20 19:22:00,69.5,55.9,29.99,East,91,21.0,22.0,62,0.00,,---,0.00,VWS V14.00,2013-03-21 00:22:00,
2013-03-20 19:23:00,69.4,55.8,29.99,East,94,19.0,21.0,62,0.00,,---,0.00,VWS V14.00,2013-03-21 00:23:00,
2013-03-20 19:24:00,69.4,55.8,29.99,East,98,19.0,20.0,62,0.00,,---,0.00,VWS V14.00,2013-03-21 00:24:00,
2013-03-20 19:25:00,69.3,54.8,29.99,East,98,19.0,19.0,60,0.00,,---,0.00,VWS V14.00,2013-03-21 00:25:00,
2013-03-20 19:26:00,69.3,55.3,29.99,East,98,14.0,18.0,61,0.00,,---,0.00,VWS V14.00,2013-03-21 00:26:00,
2013-03-20 19:27:00,69.3,54.8,29.99,East,101,15.0,16.0,60,0.00,,---,0.00,VWS V14.00,2013-03-21 00:27:00,
2013-03-20 19:28:00,69.3,54.4,29.99,East,98,16.0,19.0,59,0.00,,---,0.00,VWS V14.00,2013-03-21 00:28:00,
2013-03-20 19:29:00,69.3,54.4,29.99,East,101,14.0,19.0,59,0.00,,---,0.00,VWS V14.00,2013-03-21 00:29:00,
2013-03-20 19:30:00,69.2,52.8,29.99,East,97,18.0,19.0,56,0.00,,---,0.00,VWS V14.00,2013-03-21 00:30:00,
2013-03-20 19:31:00,69.2,53.8,29.99,East,96,15.0,22.0,58,0.00,,---,0.00,VWS V14.00,2013-03-21 00:31:00,
2013-03-20 19:32:00,69.2,52.8,29.99,East,98,18.0,21.0,56,0.00,,---,0.00,VWS V14.00,2013-03-21 00:32:00,
2013-03-20 19:33:00,69.2,52.4,29.99,East,96,14.0,20.0,55,0.00,,---,0.00,VWS V14.00,2013-03-21 00:33:00,
2013-03-20 19:34:00,69.2,51.9,29.99,East,98,19.0,19.0,54,0.00,,---,0.00,VWS V14.00,2013-03-21 00:34:00,
2013-03-20 19:35:00,69.0,51.2,29.99,East,100,14.0,14.0,53,0.00,,---,0.00,VWS V14.00,2013-03-21 00:35:00,
2013-03-20 19:36:00,69.1,51.8,29.99,East,99,11.0,16.0,54,0.00,,---,0.00,VWS V14.00,2013-03-21 00:36:00,
2013-03-20 19:37:00,69.0,51.7,29.99,East,99,14.0,18.0,54,0.00,,---,0.00,VWS V14.00,2013-03-21 00:37:00,
2013-03-20 19:38:00,69.0,51.2,29.99,East,100,11.0,16.0,53,0.00,,---,0.00,VWS V14.00,2013-03-21 00:38:00,
2013-03-20 19:39:00,68.9,50.6,29.99,East,101,15.0,16.0,52,0.00,,---,0.00,VWS V14.00,2013-03-21 00:39:00,
2013-03-20 19:40:00,68.8,48.9,29.99,ESE,108,14.0,18.0,49,0.00,,---,0.00,VWS V14.00,2013-03-21 00:40:00,
2013-03-20 19:41:00,68.9,49.5,29.99,ESE,107,14.0,16.0,50,0.00,,---,0.00,VWS V14.00,2013-03-21 00:41:00,
2013-03-20 19:42:00,68.8,49.4,29.99,ESE,108,18.0,18.0,50,0.00,,---,0.00,VWS V14.00,2013-03-21 00:42:00,
2013-03-20 19:43:00,68.8,48.9,29.99,ESE,108,11.0,18.0,49,0.00,,---,0.00,VWS V14.00,2013-03-21 00:43:00,
2013-03-20 19:44:00,68.8,48.9,29.99,ESE,107,14.0,15.0,49,0.00,,---,0.00,VWS V14.00,2013-03-21 00:44:00,
2013-03-20 19:45:00,68.6,47.0,29.99,ESE,105,15.0,16.0,46,0.00,,---,0.00,VWS V14.00,2013-03-21 00:45:00,
2013-03-20 19:46:00,68.7,48.2,29.99,ESE,105,14.0,15.0,48,0.00,,---,0.00,VWS V14.00,2013-03-21 00:46:00,
2013-03-20 19:47:00,68.6,47.0,29.99,ESE,104,15.0,15.0,46,0.00,,---,0.00,VWS V14.00,2013-03-21 00:47:00,
2013-03-20 19:48:00,68.6,47.0,29.99,ESE,113,19.0,19.0,46,0.00,,---,0.00,VWS V14.00,2013-03-21 00:48:00,
2013-03-20 19:49:00,68.5,46.3,29.99,ESE,110,11.0,19.0,45,0.00,,---,0.00,VWS V14.00,2013-03-21 00:49:00,
2013-03-20 19:50:00,68.3,46.7,29.99,ESE,109,9.0,12.0,46,0.00,,---,0.00,VWS V14.00,2013-03-21 00:50:00,
2013-03-20 19:51:00,68.4,46.2,29.99,ESE,109,9.0,15.0,45,0.00,,---,0.00,VWS V14.00,2013-03-21 00:51:00,
2013-03-20 19:52:00,68.3,46.7,29.99,ESE,109,12.0,13.0,46,0.00,,---,0.00,VWS V14.00,2013-03-21 00:52:00,
2013-03-20 19:53:00,68.3,46.7,29.99,ESE,109,14.0,14.0,46,0.00,,---,0.00,VWS V14.00,2013-03-21 00:53:00,
2013-03-20 19:54:00,68.2,46.7,29.99,ESE,109,9.0,14.0,46,0.00,,---,0.00,VWS V14.00,2013-03-21 00:54:00,
2013-03-20 19:55:00,68.0,45.9,29.99,ESE,109,13.0,14.0,45,0.00,,---,0.00,VWS V14.00,2013-03-21 00:55:00,
2013-03-20 19:56:00,68.1,46.0,29.99,ESE,109,9.0,14.0,45,0.00,,---,0.00,VWS V14.00,2013-03-21 00:56:00,
2013-03-20 19:57:00,68.0,45.9,29.99,ESE,109,11.0,13.0,45,0.00,,---,0.00,VWS V14.00,2013-03-21 00:57:00,
2013-03-20 19:58:00,68.0,45.9,29.99,ESE,109,11.0,14.0,45,0.00,,---,0.00,VWS V14.00,2013-03-21 00:58:00,
2013-03-20 19:59:00,67.9,45.8,29.99,ESE,109,14.0,14.0,45,0.00,,---,0.00,VWS V14.00,2013-03-21 00:59:00,
2013-03-20 20:00:00,67.6,46.1,30.00,ESE,109,12.0,13.0,46,0.00,,---,0.00,VWS V14.00,2013-03-21 01:00:00,
2013-03-20 20:01:00,67.7,45.6,30.00,ESE,109,13.0,14.0,45,0.00,,---,0.00,VWS V14.00,2013-03-21 01:01:00,
2013-03-20 20:02:00,67.6,46.1,30.00,ESE,109,12.0,14.0,46,0.00,,---,0.00,VWS V14.00,2013-03-21 01:02:00,
2013-03-20 20:03:00,67.6,46.1,30.00,ESE,108,14.0,14.0,46,0.00,,---,0.00,VWS V14.00,2013-03-21 01:03:00,
2013-03-20 20:04:00,67.5,46.0,30.00,ESE,108,12.0,15.0,46,0.00,,---,0.00,VWS V14.00,2013-03-21 01:04:00,
2013-03-20 20:05:00,67.3,45.8,30.00,ESE,107,9.0,13.0,46,0.00,,---,0.00,VWS V14.00,2013-03-21 01:05:00,
2013-03-20 20:06:00,67.4,45.9,30.00,ESE,107,12.0,14.0,46,0.00,,---,0.00,VWS V14.00,2013-03-21 01:06:00,
2013-03-20 20:07:00,67.3,45.8,30.00,ESE,107,13.0,14.0,46,0.00,,---,0.00,VWS V14.00,2013-03-21 01:07:00,
2013-03-20 20:08:00,67.3,45.8,30.00,ESE,105,16.0,16.0,46,0.00,,---,0.00,VWS V14.00,2013-03-21 01:08:00,
2013-03-20 20:09:00,67.2,46.3,30.00,East,100,16.0,18.0,47,0.00,,---,0.00,VWS V14.00,2013-03-21 01:09:00,
2013-03-20 20:10:00,67.1,46.2,30.00,ESE,102,15.0,18.0,47,0.00,,---,0.00,VWS V14.00,2013-03-21 01:10:00,
2013-03-20 20:11:00,67.2,46.3,30.00,ESE,102,13.0,16.0,47,0.00,,---,0.00,VWS V14.00,2013-03-21 01:11:00,
2013-03-20 20:12:00,67.1,46.2,30.00,East,100,15.0,15.0,47,0.00,,---,0.00,VWS V14.00,2013-03-21 01:12:00,
2013-03-20 20:13:00,67.1,46.2,30.00,ESE,103,14.0,18.0,47,0.00,,---,0.00,VWS V14.00,2013-03-21 01:13:00,
2013-03-20 20:14:00,67.1,46.2,30.00,ESE,102,9.0,14.0,47,0.00,,---,0.00,VWS V14.00,2013-03-21 01:14:00,
2013-03-20 20:15:00,66.9,46.6,30.00,East,101,13.0,13.0,48,0.00,,---,0.00,VWS V14.00,2013-03-21 01:15:00,
2013-03-20 20:16:00,66.9,46.6,30.00,ESE,102,15.0,18.0,48,0.00,,---,0.00,VWS V14.00,2013-03-21 01:16:00,
2013-03-20 20:17:00,66.9,46.6,30.00,East,101,13.0,15.0,48,0.00,,---,0.00,VWS V14.00,2013-03-21 01:17:00,
2013-03-20 20:18:00,66.9,46.6,30.00,East,101,13.0,13.0,48,0.00,,---,0.00,VWS V14.00,2013-03-21 01:18:00,
2013-03-20 20:19:00,66.8,46.5,30.01,East,101,14.0,15.0,48,0.00,,---,0.00,VWS V14.00,2013-03-21 01:19:00,
2013-03-20 20:20:00,66.7,46.4,30.01,East,101,11.0,12.0,48,0.00,,---,0.00,VWS V14.00,2013-03-21 01:20:00,
2013-03-20 20:21:00,66.8,46.5,30.01,East,101,13.0,14.0,48,0.00,,---,0.00,VWS V14.00,2013-03-21 01:21:00,
2013-03-20 20:22:00,66.7,46.4,30.01,East,101,12.0,13.0,48,0.00,,---,0.00,VWS V14.00,2013-03-21 01:22:00,
2013-03-20 20:23:00,66.7,46.4,30.01,East,101,12.0,12.0,48,0.00,,---,0.00,VWS V14.00,2013-03-21 01:23:00,
2013-03-20 20:24:00,66.6,46.3,30.01,East,101,13.0,13.0,48,0.00,,---,0.00,VWS V14.00,2013-03-21 01:24:00,
2013-03-20 20:25:00,66.4,46.1,30.00,East,100,14.0,14.0,48,0.00,,---,0.00,VWS V14.00,2013-03-21 01:25:00,
2013-03-20 20:26:00,66.5,46.2,30.01,ESE,103,11.0,14.0,48,0.00,,---,0.00,VWS V14.00,2013-03-21 01:26:00,
2013-03-20 20:27:00,66.5,46.2,30.00,East,100,11.0,14.0,48,0.00,,---,0.00,VWS V14.00,2013-03-21 01:27:00,
2013-03-20 20:28:00,66.4,46.1,30.00,East,101,12.0,14.0,48,0.00,,---,0.00,VWS V14.00,2013-03-21 01:28:00,
2013-03-20 20:29:00,66.4,45.6,30.00,East,101,14.0,18.0,47,0.00,,---,0.00,VWS V14.00,2013-03-21 01:29:00,
2013-03-20 20:30:00,66.3,45.5,30.00,East,101,11.0,14.0,47,0.00,,---,0.00,VWS V14.00,2013-03-21 01:30:00,
2013-03-20 20:31:00,66.4,45.6,30.00,East,101,11.0,14.0,47,0.00,,---,0.00,VWS V14.00,2013-03-21 01:31:00,
2013-03-20 20:32:00,66.4,45.6,30.00,East,101,14.0,14.0,47,0.00,,---,0.00,VWS V14.00,2013-03-21 01:32:00,
2013-03-20 20:33:00,66.3,45.5,30.00,ESE,102,9.0,14.0,47,0.00,,---,0.00,VWS V14.00,2013-03-21 01:33:00,
2013-03-20 20:34:00,66.2,45.4,30.00,ESE,104,13.0,16.0,47,0.00,,---,0.00,VWS V14.00,2013-03-21 01:34:00,
2013-03-20 20:35:00,66.0,45.8,30.00,ESE,103,11.0,15.0,48,0.00,,---,0.00,VWS V14.00,2013-03-21 01:35:00,
2013-03-20 20:36:00,66.1,45.9,30.00,ESE,103,11.0,13.0,48,0.00,,---,0.00,VWS V14.00,2013-03-21 01:36:00,
2013-03-20 20:37:00,66.0,45.8,30.00,ESE,104,15.0,18.0,48,0.00,,---,0.00,VWS V14.00,2013-03-21 01:37:00,
2013-03-20 20:38:00,66.0,45.8,30.00,ESE,103,9.0,15.0,48,0.00,,---,0.00,VWS V14.00,2013-03-21 01:38:00,
2013-03-20 20:39:00,66.0,45.8,30.00,ESE,104,14.0,14.0,48,0.00,,---,0.00,VWS V14.00,2013-03-21 01:39:00,
2013-03-20 20:40:00,65.8,46.1,30.00,ESE,104,12.0,12.0,49,0.00,,---,0.00,VWS V14.00,2013-03-21 01:40:00,
2013-03-20 20:41:00,65.9,46.2,30.00,ESE,104,13.0,13.0,49,0.00,,---,0.00,VWS V14.00,2013-03-21 01:41:00,
2013-03-20 20:42:00,65.8,46.1,30.00,ESE,104,9.0,13.0,49,0.00,,---,0.00,VWS V14.00,2013-03-21 01:42:00,
2013-03-20 20:43:00,65.8,46.1,30.00,ESE,104,11.0,12.0,49,0.00,,---,0.00,VWS V14.00,2013-03-21 01:43:00,
2013-03-20 20:44:00,65.7,46.0,30.00,ESE,103,9.0,14.0,49,0.00,,---,0.00,VWS V14.00,2013-03-21 01:44:00,
2013-03-20 20:45:00,65.5,45.8,30.00,ESE,103,8.0,11.0,49,0.00,,---,0.00,VWS V14.00,2013-03-21 01:45:00,
2013-03-20 20:46:00,65.6,46.0,30.00,ESE,104,11.0,12.0,49,0.00,,---,0.00,VWS V14.00,2013-03-21 01:46:00,
2013-03-20 20:47:00,65.6,46.0,30.00,ESE,103,8.0,13.0,49,0.00,,---,0.00,VWS V14.00,2013-03-21 01:47:00,
2013-03-20 20:48:00,65.5,45.8,30.00,ESE,103,9.0,11.0,49,0.00,,---,0.00,VWS V14.00,2013-03-21 01:48:00,
2013-03-20 20:49:00,65.5,45.8,30.00,ESE,103,9.0,13.0,49,0.00,,---,0.00,VWS V14.00,2013-03-21 01:49:00,
2013-03-20 20:50:00,65.4,46.3,30.00,East,101,11.0,12.0,50,0.00,,---,0.00,VWS V14.00,2013-03-21 01:50:00,
2013-03-20 20:51:00,65.4,46.3,30.00,ESE,103,9.0,12.0,50,0.00,,---,0.00,VWS V14.00,2013-03-21 01:51:00,
2013-03-20 20:52:00,65.4,46.3,30.00,East,101,12.0,15.0,50,0.00,,---,0.00,VWS V14.00,2013-03-21 01:52:00,
2013-03-20 20:53:00,65.4,46.3,30.00,East,101,11.0,12.0,50,0.00,,---,0.00,VWS V14.00,2013-03-21 01:53:00,
2013-03-20 20:54:00,65.5,46.4,30.00,East,101,12.0,12.0,50,0.00,,---,0.00,VWS V14.00,2013-03-21 01:54:00,
2013-03-20 20:55:00,65.4,46.8,30.01,East,101,11.0,12.0,51,0.00,,---,0.00,VWS V14.00,2013-03-21 01:55:00,
2013-03-20 20:56:00,65.5,46.4,30.00,East,101,12.0,14.0,50,0.00,,---,0.00,VWS V14.00,2013-03-21 01:56:00,
2013-03-20 20:57:00,65.4,46.3,30.00,East,101,9.0,12.0,50,0.00,,---,0.00,VWS V14.00,2013-03-21 01:57:00,
2013-03-20 20:58:00,65.4,46.8,30.01,East,100,13.0,13.0,51,0.00,,---,0.00,VWS V14.00,2013-03-21 01:58:00,
2013-03-20 20:59:00,65.5,46.9,30.01,East,98,12.0,18.0,51,0.00,,---,0.00,VWS V14.00,2013-03-21 01:59:00,
2013-03-20 21:00:00,65.4,46.8,30.01,East,101,15.0,15.0,51,0.00,,---,0.00,VWS V14.00,2013-03-21 02:00:00,
2013-03-20 21:01:00,65.5,46.9,30.01,East,101,11.0,15.0,51,0.00,,---,0.00,VWS V14.00,2013-03-21 02:01:00,
2013-03-20 21:02:00,65.5,46.9,30.00,East,101,9.0,12.0,51,0.00,,---,0.00,VWS V14.00,2013-03-21 02:02:00,
2013-03-20 21:03:00,65.4,46.8,30.01,East,101,9.0,15.0,51,0.00,,---,0.00,VWS V14.00,2013-03-21 02:03:00,
2013-03-20 21:04:00,65.4,46.8,30.01,East,100,9.0,13.0,51,0.00,,---,0.00,VWS V14.00,2013-03-21 02:04:00,
2013-03-20 21:05:00,65.2,47.2,30.01,East,100,8.0,11.0,52,0.00,,---,0.00,VWS V14.00,2013-03-21 02:05:00,
2013-03-20 21:06:00,65.4,47.3,30.01,East,100,9.0,13.0,52,0.00,,---,0.00,VWS V14.00,2013-03-21 02:06:00,
2013-03-20 21:07:00,65.3,47.2,30.01,East,100,11.0,11.0,52,0.00,,---,0.00,VWS V14.00,2013-03-21 02:07:00,
2013-03-20 21:08:00,65.2,47.2,30.01,East,100,9.0,15.0,52,0.00,,---,0.00,VWS V14.00,2013-03-21 02:08:00,
2013-03-20 21:09:00,65.2,47.2,30.01,East,101,11.0,13.0,52,0.00,,---,0.00,VWS V14.00,2013-03-21 02:09:00,
2013-03-20 21:10:00,64.9,46.9,30.01,East,101,8.0,9.0,52,0.00,,---,0.00,VWS V14.00,2013-03-21 02:10:00,
2013-03-20 21:11:00,65.1,47.1,30.01,East,101,11.0,11.0,52,0.00,,---,0.00,VWS V14.00,2013-03-21 02:11:00,
2013-03-20 21:12:00,65.0,47.0,30.01,East,100,8.0,11.0,52,0.00,,---,0.00,VWS V14.00,2013-03-21 02:12:00,
2013-03-20 21:13:00,64.9,46.9,30.01,East,101,7.0,9.0,52,0.00,,---,0.00,VWS V14.00,2013-03-21 02:13:00,
2013-03-20 21:14:00,64.8,46.8,30.01,East,101,9.0,9.0,52,0.00,,---,0.00,VWS V14.00,2013-03-21 02:14:00,
2013-03-20 21:15:00,64.6,46.6,30.01,East,100,8.0,9.0,52,0.00,,---,0.00,VWS V14.00,2013-03-21 02:15:00,
2013-03-20 21:16:00,64.7,46.7,30.01,East,101,9.0,9.0,52,0.00,,---,0.00,VWS V14.00,2013-03-21 02:16:00,
2013-03-20 21:17:00,64.6,46.6,30.01,East,101,7.0,9.0,52,0.00,,---,0.00,VWS V14.00,2013-03-21 02:17:00,
2013-03-20 21:18:00,64.6,46.6,30.01,East,101,8.0,9.0,52,0.00,,---,0.00,VWS V14.00,2013-03-21 02:18:00,
2013-03-20 21:19:00,64.5,46.5,30.01,East,100,7.0,8.0,52,0.00,,---,0.00,VWS V14.00,2013-03-21 02:19:00,
2013-03-20 21:20:00,64.2,46.7,30.01,East,100,8.0,9.0,53,0.00,,---,0.00,VWS V14.00,2013-03-21 02:20:00,
2013-03-20 21:21:00,64.4,46.9,30.01,East,101,7.0,8.0,53,0.00,,---,0.00,VWS V14.00,2013-03-21 02:21:00,
2013-03-20 21:22:00,64.3,46.8,30.01,East,101,7.0,8.0,53,0.00,,---,0.00,VWS V14.00,2013-03-21 02:22:00,
2013-03-20 21:23:00,64.2,46.7,30.01,East,101,8.0,9.0,53,0.00,,---,0.00,VWS V14.00,2013-03-21 02:23:00,
2013-03-20 21:24:00,64.1,46.6,30.01,East,101,6.0,9.0,53,0.00,,---,0.00,VWS V14.00,2013-03-21 02:24:00,
2013-03-20 21:25:00,63.8,46.4,30.01,East,101,7.0,9.0,53,0.00,,---,0.00,VWS V14.00,2013-03-21 02:25:00,
2013-03-20 21:26:00,64.0,46.5,30.01,East,101,7.0,9.0,53,0.00,,---,0.00,VWS V14.00,2013-03-21 02:26:00,
2013-03-20 21:27:00,63.9,46.5,30.01,East,101,6.0,8.0,53,0.00,,---,0.00,VWS V14.00,2013-03-21 02:27:00,
2013-03-20 21:28:00,63.8,46.4,30.01,East,101,8.0,9.0,53,0.00,,---,0.00,VWS V14.00,2013-03-21 02:28:00,
2013-03-20 21:29:00,63.7,46.3,30.01,East,100,9.0,9.0,53,0.00,,---,0.00,VWS V14.00,2013-03-21 02:29:00,
2013-03-20 21:30:00,63.6,46.2,30.01,East,101,7.0,8.0,53,0.00,,---,0.00,VWS V14.00,2013-03-21 02:30:00,
2013-03-20 21:31:00,63.7,46.3,30.01,East,101,7.0,11.0,53,0.00,,---,0.00,VWS V14.00,2013-03-21 02:31:00,
2013-03-20 21:32:00,63.7,46.3,30.01,East,101,7.0,9.0,53,0.00,,---,0.00,VWS V14.00,2013-03-21 02:32:00,
2013-03-20 21:33:00,63.7,46.3,30.01,East,101,7.0,9.0,53,0.00,,---,0.00,VWS V14.00,2013-03-21 02:33:00,
2013-03-20 21:34:00,63.6,46.2,30.01,East,101,7.0,8.0,53,0.00,,---,0.00,VWS V14.00,2013-03-21 02:34:00,
2013-03-20 21:35:00,63.3,46.4,30.01,East,101,7.0,8.0,54,0.00,,---,0.00,VWS V14.00,2013-03-21 02:35:00,
2013-03-20 21:36:00,63.4,46.5,30.00,East,101,8.0,9.0,54,0.00,,---,0.00,VWS V14.00,2013-03-21 02:36:00,
2013-03-20 21:37:00,63.4,46.5,30.01,East,101,7.0,8.0,54,0.00,,---,0.00,VWS V14.00,2013-03-21 02:37:00,
2013-03-20 21:38:00,63.3,46.4,30.01,East,101,8.0,8.0,54,0.00,,---,0.00,VWS V14.00,2013-03-21 02:38:00,
2013-03-20 21:39:00,63.2,46.3,30.00,East,101,7.0,8.0,54,0.00,,---,0.00,VWS V14.00,2013-03-21 02:39:00,
2013-03-20 21:40:00,63.0,46.1,30.00,East,101,8.0,9.0,54,0.00,,---,0.00,VWS V14.00,2013-03-21 02:40:00,
2013-03-20 21:41:00,63.0,46.1,30.00,East,101,7.0,8.0,54,0.00,,---,0.00,VWS V14.00,2013-03-21 02:41:00,
2013-03-20 21:42:00,63.0,46.1,30.00,East,101,6.0,8.0,54,0.00,,---,0.00,VWS V14.00,2013-03-21 02:42:00,
2013-03-20 21:43:00,62.9,46.0,30.00,East,101,6.0,9.0,54,0.00,,---,0.00,VWS V14.00,2013-03-21 02:43:00,
2013-03-20 21:44:00,62.9,46.5,30.00,East,101,7.0,8.0,55,0.00,,---,0.00,VWS V14.00,2013-03-21 02:44:00,
2013-03-20 21:45:00,62.9,46.5,30.00,East,101,9.0,9.0,55,0.00,,---,0.00,VWS V14.00,2013-03-21 02:45:00,
2013-03-20 21:46:00,62.9,46.5,30.00,East,101,8.0,9.0,55,0.00,,---,0.00,VWS V14.00,2013-03-21 02:46:00,
2013-03-20 21:47:00,62.9,46.5,30.00,East,101,8.0,8.0,55,0.00,,---,0.00,VWS V14.00,2013-03-21 02:47:00,
2013-03-20 21:48:00,62.8,46.9,30.00,East,101,8.0,9.0,56,0.00,,---,0.00,VWS V14.00,2013-03-21 02:48:00,
2013-03-20 21:49:00,62.9,47.0,30.00,East,101,8.0,9.0,56,0.00,,---,0.00,VWS V14.00,2013-03-21 02:49:00,
2013-03-20 21:50:00,62.9,47.0,30.00,East,101,7.0,13.0,56,0.00,,---,0.00,VWS V14.00,2013-03-21 02:50:00,
2013-03-20 21:51:00,62.8,46.9,30.00,East,101,8.0,8.0,56,0.00,,---,0.00,VWS V14.00,2013-03-21 02:51:00,
2013-03-20 21:52:00,62.9,47.0,30.00,East,101,9.0,11.0,56,0.00,,---,0.00,VWS V14.00,2013-03-21 02:52:00,
2013-03-20 21:53:00,63.0,47.1,30.00,East,101,8.0,13.0,56,0.00,,---,0.00,VWS V14.00,2013-03-21 02:53:00,
2013-03-20 21:54:00,63.1,47.2,30.01,East,101,8.0,8.0,56,0.00,,---,0.00,VWS V14.00,2013-03-21 02:54:00,
2013-03-20 21:55:00,63.0,47.1,30.01,East,101,7.0,9.0,56,0.00,,---,0.00,VWS V14.00,2013-03-21 02:55:00,
2013-03-20 21:56:00,63.1,47.2,30.01,East,101,7.0,8.0,56,0.00,,---,0.00,VWS V14.00,2013-03-21 02:56:00,
2013-03-20 21:57:00,63.0,47.1,30.01,East,101,8.0,8.0,56,0.00,,---,0.00,VWS V14.00,2013-03-21 02:57:00,
2013-03-20 21:58:00,63.0,47.1,30.01,East,101,7.0,9.0,56,0.00,,---,0.00,VWS V14.00,2013-03-21 02:58:00,
2013-03-20 21:59:00,63.0,47.1,30.01,East,101,8.0,9.0,56,0.00,,---,0.00,VWS V14.00,2013-03-21 02:59:00,
2013-03-20 22:00:00,63.0,47.5,30.01,East,101,8.0,9.0,57,0.00,,---,0.00,VWS V14.00,2013-03-21 03:00:00,
2013-03-20 22:01:00,63.0,47.1,30.01,East,101,8.0,11.0,56,0.00,,---,0.00,VWS V14.00,2013-03-21 03:01:00,
2013-03-20 22:02:00,62.9,47.5,30.00,East,101,8.0,9.0,57,0.00,,---,0.00,VWS V14.00,2013-03-21 03:02:00,
2013-03-20 22:03:00,62.9,47.5,30.01,East,101,8.0,9.0,57,0.00,,---,0.00,VWS V14.00,2013-03-21 03:03:00,
2013-03-20 22:04:00,62.9,47.5,30.01,East,101,9.0,12.0,57,0.00,,---,0.00,VWS V14.00,2013-03-21 03:04:00,
2013-03-20 22:05:00,63.1,47.6,30.01,East,101,8.0,8.0,57,0.00,,---,0.00,VWS V14.00,2013-03-21 03:05:00,
2013-03-20 22:06:00,63.1,47.6,30.01,East,101,9.0,11.0,57,0.00,,---,0.00,VWS V14.00,2013-03-21 03:06:00,
2013-03-20 22:07:00,63.1,47.6,30.01,East,101,8.0,9.0,57,0.00,,---,0.00,VWS V14.00,2013-03-21 03:07:00,
2013-03-20 22:08:00,63.1,47.6,30.01,East,101,7.0,9.0,57,0.00,,---,0.00,VWS V14.00,2013-03-21 03:08:00,
2013-03-20 22:09:00,63.1,47.6,30.01,East,101,7.0,9.0,57,0.00,,---,0.00,VWS V14.00,2013-03-21 03:09:00,
2013-03-20 22:10:00,63.1,48.1,30.01,East,101,7.0,9.0,58,0.00,,---,0.00,VWS V14.00,2013-03-21 03:10:00,
2013-03-20 22:11:00,63.1,48.1,30.01,East,101,8.0,8.0,58,0.00,,---,0.00,VWS V14.00,2013-03-21 03:11:00,
2013-03-20 22:12:00,63.1,48.1,30.01,East,101,9.0,9.0,58,0.00,,---,0.00,VWS V14.00,2013-03-21 03:12:00,
2013-03-20 22:13:00,63.1,48.1,30.01,East,101,7.0,9.0,58,0.00,,---,0.00,VWS V14.00,2013-03-21 03:13:00,
2013-03-20 22:14:00,63.0,48.0,30.01,East,101,7.0,7.0,58,0.00,,---,0.00,VWS V14.00,2013-03-21 03:14:00,
2013-03-20 22:15:00,62.8,47.8,30.01,East,101,8.0,8.0,58,0.00,,---,0.00,VWS V14.00,2013-03-21 03:15:00,
2013-03-20 22:16:00,62.9,47.9,30.01,East,101,7.0,9.0,58,0.00,,---,0.00,VWS V14.00,2013-03-21 03:16:00,
2013-03-20 22:17:00,62.9,47.9,30.01,East,101,8.0,8.0,58,0.00,,---,0.00,VWS V14.00,2013-03-21 03:17:00,
2013-03-20 22:18:00,62.8,47.8,30.01,East,101,8.0,9.0,58,0.00,,---,0.00,VWS V14.00,2013-03-21 03:18:00,
2013-03-20 22:19:00,62.8,48.3,30.01,ESE,102,8.0,11.0,59,0.00,,---,0.00,VWS V14.00,2013-03-21 03:19:00,
2013-03-20 22:20:00,62.8,48.7,30.01,ESE,102,9.0,11.0,60,0.00,,---,0.00,VWS V14.00,2013-03-21 03:20:00,
2013-03-20 22:21:00,62.8,48.7,30.01,ESE,102,9.0,12.0,60,0.00,,---,0.00,VWS V14.00,2013-03-21 03:21:00,
2013-03-20 22:22:00,62.8,48.7,30.01,ESE,102,11.0,11.0,60,0.00,,---,0.00,VWS V14.00,2013-03-21 03:22:00,
2013-03-20 22:23:00,62.8,48.7,30.01,ESE,102,8.0,11.0,60,0.00,,---,0.00,VWS V14.00,2013-03-21 03:23:00,
2013-03-20 22:24:00,62.8,48.7,30.01,ESE,102,8.0,9.0,60,0.00,,---,0.00,VWS V14.00,2013-03-21 03:24:00,
2013-03-20 22:25:00,62.6,48.5,30.01,ESE,102,7.0,8.0,60,0.00,,---,0.00,VWS V14.00,2013-03-21 03:25:00,
2013-03-20 22:26:00,62.7,48.2,30.01,ESE,102,6.0,9.0,59,0.00,,---,0.00,VWS V14.00,2013-03-21 03:26:00,
2013-03-20 22:27:00,62.6,48.1,30.01,ESE,102,6.0,9.0,59,0.00,,---,0.00,VWS V14.00,2013-03-21 03:27:00,
2013-03-20 22:28:00,62.6,48.5,30.01,ESE,102,7.0,8.0,60,0.00,,---,0.00,VWS V14.00,2013-03-21 03:28:00,
2013-03-20 22:29:00,62.5,48.4,30.01,ESE,102,8.0,8.0,60,0.00,,---,0.00,VWS V14.00,2013-03-21 03:29:00,
2013-03-20 22:30:00,62.3,48.2,30.01,ESE,102,8.0,9.0,60,0.00,,---,0.00,VWS V14.00,2013-03-21 03:30:00,
2013-03-20 22:31:00,62.4,48.3,30.01,ESE,102,8.0,8.0,60,0.00,,---,0.00,VWS V14.00,2013-03-21 03:31:00,
2013-03-20 22:32:00,62.3,48.2,30.01,ESE,102,8.0,9.0,60,0.00,,---,0.00,VWS V14.00,2013-03-21 03:32:00,
2013-03-20 22:33:00,62.3,48.2,30.01,ESE,102,7.0,9.0,60,0.00,,---,0.00,VWS V14.00,2013-03-21 03:33:00,
2013-03-20 22:34:00,62.4,48.3,30.01,ESE,102,7.0,12.0,60,0.00,,---,0.00,VWS V14.00,2013-03-21 03:34:00,
2013-03-20 22:35:00,62.6,48.5,30.01,ESE,102,7.0,11.0,60,0.00,,---,0.00,VWS V14.00,2013-03-21 03:35:00,
2013-03-20 22:36:00,62.5,48.4,30.01,ESE,102,8.0,13.0,60,0.00,,---,0.00,VWS V14.00,2013-03-21 03:36:00,
2013-03-20 22:37:00,62.5,48.4,30.01,ESE,102,9.0,12.0,60,0.00,,---,0.00,VWS V14.00,2013-03-21 03:37:00,
2013-03-20 22:38:00,62.5,48.4,30.01,ESE,102,8.0,11.0,60,0.00,,---,0.00,VWS V14.00,2013-03-21 03:38:00,
2013-03-20 22:39:00,62.5,48.4,30.01,ESE,102,8.0,11.0,60,0.00,,---,0.00,VWS V14.00,2013-03-21 03:39:00,
2013-03-20 22:40:00,62.5,48.4,30.01,East,101,9.0,11.0,60,0.00,,---,0.00,VWS V14.00,2013-03-21 03:40:00,
2013-03-20 22:41:00,62.5,48.4,30.01,ESE,102,9.0,11.0,60,0.00,,---,0.00,VWS V14.00,2013-03-21 03:41:00,
2013-03-20 22:42:00,62.5,48.4,30.01,East,101,11.0,12.0,60,0.00,,---,0.00,VWS V14.00,2013-03-21 03:42:00,
2013-03-20 22:43:00,62.5,48.9,30.01,East,101,9.0,11.0,61,0.00,,---,0.00,VWS V14.00,2013-03-21 03:43:00,
2013-03-20 22:44:00,62.5,48.4,30.01,East,101,9.0,12.0,60,0.00,,---,0.00,VWS V14.00,2013-03-21 03:44:00,
2013-03-20 22:45:00,62.3,48.7,30.01,East,101,7.0,12.0,61,0.00,,---,0.00,VWS V14.00,2013-03-21 03:45:00,
2013-03-20 22:46:00,62.4,48.8,30.01,East,101,9.0,11.0,61,0.00,,---,0.00,VWS V14.00,2013-03-21 03:46:00,
2013-03-20 22:47:00,62.4,48.8,30.01,East,101,9.0,12.0,61,0.00,,---,0.00,VWS V14.00,2013-03-21 03:47:00,
2013-03-20 22:48:00,62.3,48.7,30.01,East,101,11.0,12.0,61,0.00,,---,0.00,VWS V14.00,2013-03-21 03:48:00,
2013-03-20 22:49:00,62.2,48.6,30.01,ESE,102,11.0,11.0,61,0.00,,---,0.00,VWS V14.00,2013-03-21 03:49:00,
2013-03-20 22:50:00,62.0,48.4,30.00,ESE,102,8.0,11.0,61,0.00,,---,0.00,VWS V14.00,2013-03-21 03:50:00,
2013-03-20 22:51:00,62.2,48.6,30.00,ESE,102,8.0,12.0,61,0.00,,---,0.00,VWS V14.00,2013-03-21 03:51:00,
2013-03-20 22:52:00,62.1,48.5,30.00,ESE,102,9.0,9.0,61,0.00,,---,0.00,VWS V14.00,2013-03-21 03:52:00,
2013-03-20 22:53:00,62.0,48.4,30.00,ESE,102,8.0,11.0,61,0.00,,---,0.00,VWS V14.00,2013-03-21 03:53:00,
2013-03-20 22:54:00,61.9,48.3,30.00,ESE,102,9.0,11.0,61,0.00,,---,0.00,VWS V14.00,2013-03-21 03:54:00,
2013-03-20 22:55:00,62.0,48.4,30.00,ESE,102,11.0,11.0,61,0.00,,---,0.00,VWS V14.00,2013-03-21 03:55:00,
2013-03-20 22:56:00,62.0,48.4,30.00,ESE,102,9.0,12.0,61,0.00,,---,0.00,VWS V14.00,2013-03-21 03:56:00,
2013-03-20 22:57:00,62.0,48.4,30.00,ESE,102,11.0,12.0,61,0.00,,---,0.00,VWS V14.00,2013-03-21 03:57:00,
2013-03-20 22:58:00,62.0,48.4,30.00,ESE,102,11.0,11.0,61,0.00,,---,0.00,VWS V14.00,2013-03-21 03:58:00,
2013-03-20 22:59:00,62.0,48.4,29.99,ESE,102,11.0,11.0,61,0.00,,---,0.00,VWS V14.00,2013-03-21 03:59:00,
2013-03-20 23:00:00,62.0,48.4,30.00,ESE,103,9.0,11.0,61,0.00,,---,0.00,VWS V14.00,2013-03-21 04:00:00,
2013-03-20 23:01:00,62.0,48.4,30.00,ESE,103,9.0,11.0,61,0.00,,---,0.00,VWS V14.00,2013-03-21 04:01:00,
2013-03-20 23:02:00,62.0,48.4,29.99,ESE,103,9.0,9.0,61,0.00,,---,0.00,VWS V14.00,2013-03-21 04:02:00,
2013-03-20 23:03:00,62.0,48.4,30.00,ESE,103,8.0,11.0,61,0.00,,---,0.00,VWS V14.00,2013-03-21 04:03:00,
2013-03-20 23:04:00,62.0,48.4,29.99,ESE,103,8.0,12.0,61,0.00,,---,0.00,VWS V14.00,2013-03-21 04:04:00,
2013-03-20 23:05:00,62.0,48.8,29.99,ESE,103,11.0,13.0,62,0.00,,---,0.00,VWS V14.00,2013-03-21 04:05:00,
2013-03-20 23:06:00,62.0,48.8,29.99,ESE,103,12.0,13.0,62,0.00,,---,0.00,VWS V14.00,2013-03-21 04:06:00,
2013-03-20 23:07:00,62.0,48.8,29.99,ESE,103,11.0,13.0,62,0.00,,---,0.00,VWS V14.00,2013-03-21 04:07:00,
2013-03-20 23:08:00,62.0,48.8,29.99,ESE,103,9.0,13.0,62,0.00,,---,0.00,VWS V14.00,2013-03-21 04:08:00,
2013-03-20 23:09:00,62.0,48.8,29.99,ESE,103,11.0,12.0,62,0.00,,---,0.00,VWS V14.00,2013-03-21 04:09:00,
2013-03-20 23:10:00,61.8,49.1,29.99,ESE,103,11.0,11.0,63,0.00,,---,0.00,VWS V14.00,2013-03-21 04:10:00,
2013-03-20 23:11:00,61.9,48.8,29.99,ESE,103,11.0,11.0,62,0.00,,---,0.00,VWS V14.00,2013-03-21 04:11:00,
2013-03-20 23:12:00,61.8,49.1,29.99,ESE,103,9.0,12.0,63,0.00,,---,0.00,VWS V14.00,2013-03-21 04:12:00,
2013-03-20 23:13:00,61.8,49.1,29.99,ESE,103,11.0,11.0,63,0.00,,---,0.00,VWS V14.00,2013-03-21 04:13:00,
2013-03-20 23:14:00,61.8,49.1,29.99,ESE,103,11.0,12.0,63,0.00,,---,0.00,VWS V14.00,2013-03-21 04:14:00,
2013-03-20 23:15:00,61.8,49.5,29.99,ESE,107,14.0,14.0,64,0.00,,---,0.00,VWS V14.00,2013-03-21 04:15:00,
2013-03-20 23:16:00,61.7,49.4,29.99,ESE,103,7.0,13.0,64,0.00,,---,0.00,VWS V14.00,2013-03-21 04:16:00,
2013-03-20 23:17:00,61.8,49.9,29.99,ESE,106,12.0,14.0,65,0.00,,---,0.00,VWS V14.00,2013-03-21 04:17:00,
2013-03-20 23:18:00,61.8,49.5,29.99,ESE,107,11.0,14.0,64,0.00,,---,0.00,VWS V14.00,2013-03-21 04:18:00,
2013-03-20 23:19:00,61.9,50.0,29.99,ESE,107,12.0,14.0,65,0.00,,---,0.00,VWS V14.00,2013-03-21 04:19:00,
2013-03-20 23:20:00,62.2,50.3,29.99,ESE,107,11.0,13.0,65,0.00,,---,0.00,VWS V14.00,2013-03-21 04:20:00,
2013-03-20 23:21:00,62.0,50.1,29.99,ESE,107,15.0,15.0,65,0.00,,---,0.00,VWS V14.00,2013-03-21 04:21:00,
2013-03-20 23:22:00,62.1,50.2,29.99,ESE,107,11.0,15.0,65,0.00,,---,0.00,VWS V14.00,2013-03-21 04:22:00,
2013-03-20 23:23:00,62.1,50.2,29.99,ESE,107,12.0,13.0,65,0.00,,---,0.00,VWS V14.00,2013-03-21 04:23:00,
2013-03-20 23:24:00,62.2,50.3,29.99,ESE,107,11.0,12.0,65,0.00,,---,0.00,VWS V14.00,2013-03-21 04:24:00,
2013-03-20 23:25:00,62.1,50.2,29.99,ESE,107,8.0,11.0,65,0.00,,---,0.00,VWS V14.00,2013-03-21 04:25:00,
2013-03-20 23:26:00,62.2,50.3,29.99,ESE,107,7.0,14.0,65,0.00,,---,0.00,VWS V14.00,2013-03-21 04:26:00,
2013-03-20 23:27:00,62.2,50.3,29.99,ESE,107,11.0,12.0,65,0.00,,---,0.00,VWS V14.00,2013-03-21 04:27:00,
2013-03-20 23:28:00,62.1,50.2,29.99,ESE,107,8.0,11.0,65,0.00,,---,0.00,VWS V14.00,2013-03-21 04:28:00,
2013-03-20 23:29:00,62.2,50.7,29.99,ESE,107,8.0,11.0,66,0.00,,---,0.00,VWS V14.00,2013-03-21 04:29:00,
2013-03-20 23:30:00,62.2,51.1,29.99,ESE,107,9.0,11.0,67,0.00,,---,0.00,VWS V14.00,2013-03-21 04:30:00,
2013-03-20 23:31:00,62.1,50.6,29.99,ESE,107,8.0,11.0,66,0.00,,---,0.00,VWS V14.00,2013-03-21 04:31:00,
2013-03-20 23:32:00,62.2,50.7,29.99,ESE,107,8.0,11.0,66,0.00,,---,0.00,VWS V14.00,2013-03-21 04:32:00,
2013-03-20 23:33:00,62.2,51.1,29.99,ESE,107,8.0,11.0,67,0.00,,---,0.00,VWS V14.00,2013-03-21 04:33:00,
2013-03-20 23:34:00,62.2,51.1,29.99,ESE,107,8.0,9.0,67,0.00,,---,0.00,VWS V14.00,2013-03-21 04:34:00,
2013-03-20 23:35:00,62.4,51.3,29.99,ESE,107,8.0,11.0,67,0.00,,---,0.00,VWS V14.00,2013-03-21 04:35:00,
2013-03-20 23:36:00,62.3,51.2,29.99,ESE,107,11.0,12.0,67,0.00,,---,0.00,VWS V14.00,2013-03-21 04:36:00,
2013-03-20 23:37:00,62.4,51.3,29.99,ESE,107,9.0,12.0,67,0.00,,---,0.00,VWS V14.00,2013-03-21 04:37:00,
2013-03-20 23:38:00,62.5,51.4,29.99,ESE,106,11.0,11.0,67,0.00,,---,0.00,VWS V14.00,2013-03-21 04:38:00,
2013-03-20 23:39:00,62.5,51.4,29.99,ESE,106,8.0,11.0,67,0.00,,---,0.00,VWS V14.00,2013-03-21 04:39:00,
2013-03-20 23:40:00,62.5,51.8,29.99,ESE,106,9.0,12.0,68,0.00,,---,0.00,VWS V14.00,2013-03-21 04:40:00,
2013-03-20 23:43:00,62.5,51.8,29.99,ESE,106,8.0,12.0,68,0.00,,---,0.00,VWS V14.00,2013-03-21 04:43:00,
2013-03-20 23:44:00,62.5,52.2,29.99,ESE,106,11.0,11.0,69,0.00,,---,0.00,VWS V14.00,2013-03-21 04:44:00,
2013-03-20 23:45:00,62.7,52.4,29.99,ESE,107,11.0,13.0,69,0.00,,---,0.00,VWS V14.00,2013-03-21 04:45:00,
2013-03-20 23:46:00,62.6,52.3,29.99,ESE,107,9.0,11.0,69,0.00,,---,0.00,VWS V14.00,2013-03-21 04:46:00,
2013-03-20 23:47:00,62.7,52.4,29.99,ESE,106,13.0,14.0,69,0.00,,---,0.00,VWS V14.00,2013-03-21 04:47:00,
2013-03-20 23:48:00,62.7,52.4,29.99,ESE,107,11.0,13.0,69,0.00,,---,0.00,VWS V14.00,2013-03-21 04:48:00,
2013-03-20 23:49:00,62.8,52.9,29.99,ESE,107,9.0,12.0,70,0.00,,---,0.00,VWS V14.00,2013-03-21 04:49:00,
2013-03-20 23:50:00,62.5,52.2,29.99,ESE,107,9.0,11.0,69,0.00,,---,0.00,VWS V14.00,2013-03-21 04:50:00,
2013-03-20 23:51:00,62.7,52.4,29.99,ESE,107,6.0,9.0,69,0.00,,---,0.00,VWS V14.00,2013-03-21 04:51:00,
2013-03-20 23:52:00,62.6,52.3,29.99,ESE,107,9.0,11.0,69,0.00,,---,0.00,VWS V14.00,2013-03-21 04:52:00,
2013-03-20 23:53:00,62.5,52.2,29.99,ESE,107,8.0,11.0,69,0.00,,---,0.00,VWS V14.00,2013-03-21 04:53:00,
2013-03-20 23:54:00,62.5,52.6,29.99,ESE,107,8.0,11.0,70,0.00,,---,0.00,VWS V14.00,2013-03-21 04:54:00,
2013-03-20 23:55:00,62.4,52.5,29.99,ESE,107,8.0,13.0,70,0.00,,---,0.00,VWS V14.00,2013-03-21 04:55:00,
2013-03-20 23:56:00,62.5,52.6,29.99,ESE,107,9.0,9.0,70,0.00,,---,0.00,VWS V14.00,2013-03-21 04:56:00,
2013-03-20 23:57:00,62.5,52.6,29.99,ESE,107,9.0,11.0,70,0.00,,---,0.00,VWS V14.00,2013-03-21 04:57:00,
2013-03-20 23:58:00,62.4,52.5,29.99,ESE,107,9.0,13.0,70,0.00,,---,0.00,VWS V14.00,2013-03-21 04:58:00,
2013-03-20 23:59:00,62.4,52.5,29.99,ESE,107,9.0,12.0,70,0.00,,---,0.00,VWS V14.00,2013-03-21 04:59:00,